<?xml version="1.0" encoding="UTF-8" standalone="no" ?>
<gpx xmlns="http://www.topografix.com/GPX/1/1" xmlns:xsi="http://www.w3.org/2001/XMLSchema-instance" xsi:schemaLocation="http://www.topografix.com/GPX/1/1 http://www.topografix.com/GPX/1/1/gpx.xsd" version="1.1" creator="VisuGPX - https://www.visugpx.com">
  <metadata>
    <name>Etaux - Arbusigny</name>
    <desc><![CDATA[Etaux - Arbusigny

Etaux - Arbusigny]]></desc>
  </metadata>
  <trk>
    <name><![CDATA[Etaux - Arbusigny]]></name>
    <cmt><![CDATA[Etaux - Arbusigny]]></cmt>
    <desc><![CDATA[Etaux - Arbusigny]]></desc>
    <trkseg>
      <trkpt lat="46.05663" lon="6.27146">
        <ele>818.968</ele>
        <time>2021-02-23T15:28:34Z</time>
      </trkpt>
      <trkpt lat="46.05656" lon="6.27147">
        <ele>818.542</ele>
        <time>2021-02-23T15:30:00Z</time>
      </trkpt>
      <trkpt lat="46.05651" lon="6.27148">
        <ele>818.526</ele>
        <time>2021-02-23T15:30:01Z</time>
      </trkpt>
      <trkpt lat="46.05644" lon="6.27148">
        <ele>818.508</ele>
        <time>2021-02-23T15:30:02Z</time>
      </trkpt>
      <trkpt lat="46.05636" lon="6.27149">
        <ele>818.542</ele>
        <time>2021-02-23T15:30:03Z</time>
      </trkpt>
      <trkpt lat="46.05625" lon="6.27148">
        <ele>818.573</ele>
        <time>2021-02-23T15:30:04Z</time>
      </trkpt>
      <trkpt lat="46.05611" lon="6.27147">
        <ele>818.454</ele>
        <time>2021-02-23T15:30:05Z</time>
      </trkpt>
      <trkpt lat="46.05598" lon="6.27145">
        <ele>818.357</ele>
        <time>2021-02-23T15:30:06Z</time>
      </trkpt>
      <trkpt lat="46.05583" lon="6.27144">
        <ele>818.32</ele>
        <time>2021-02-23T15:30:07Z</time>
      </trkpt>
      <trkpt lat="46.05568" lon="6.27143">
        <ele>818.293</ele>
        <time>2021-02-23T15:30:08Z</time>
      </trkpt>
      <trkpt lat="46.05553" lon="6.27143">
        <ele>818.277</ele>
        <time>2021-02-23T15:30:09Z</time>
      </trkpt>
      <trkpt lat="46.05539" lon="6.27142">
        <ele>818.261</ele>
        <time>2021-02-23T15:30:10Z</time>
      </trkpt>
      <trkpt lat="46.05525" lon="6.2714">
        <ele>818.166</ele>
        <time>2021-02-23T15:30:11Z</time>
      </trkpt>
      <trkpt lat="46.05513" lon="6.27139">
        <ele>817.929</ele>
        <time>2021-02-23T15:30:12Z</time>
      </trkpt>
      <trkpt lat="46.05501" lon="6.27139">
        <ele>817.321</ele>
        <time>2021-02-23T15:30:13Z</time>
      </trkpt>
      <trkpt lat="46.05489" lon="6.2714">
        <ele>816.908</ele>
        <time>2021-02-23T15:30:14Z</time>
      </trkpt>
      <trkpt lat="46.05478" lon="6.27142">
        <ele>816.442</ele>
        <time>2021-02-23T15:30:15Z</time>
      </trkpt>
      <trkpt lat="46.05466" lon="6.27144">
        <ele>815.823</ele>
        <time>2021-02-23T15:30:16Z</time>
      </trkpt>
      <trkpt lat="46.05455" lon="6.27147">
        <ele>815.234</ele>
        <time>2021-02-23T15:30:17Z</time>
      </trkpt>
      <trkpt lat="46.05445" lon="6.2715">
        <ele>814.637</ele>
        <time>2021-02-23T15:30:18Z</time>
      </trkpt>
      <trkpt lat="46.05435" lon="6.27151">
        <ele>813.88</ele>
        <time>2021-02-23T15:30:19Z</time>
      </trkpt>
      <trkpt lat="46.05424" lon="6.27153">
        <ele>812.733</ele>
        <time>2021-02-23T15:30:20Z</time>
      </trkpt>
      <trkpt lat="46.05414" lon="6.27155">
        <ele>811.567</ele>
        <time>2021-02-23T15:30:21Z</time>
      </trkpt>
      <trkpt lat="46.05402" lon="6.27158">
        <ele>810.061</ele>
        <time>2021-02-23T15:30:22Z</time>
      </trkpt>
      <trkpt lat="46.05392" lon="6.2716">
        <ele>808.235</ele>
        <time>2021-02-23T15:30:23Z</time>
      </trkpt>
      <trkpt lat="46.05384" lon="6.27161">
        <ele>806.486</ele>
        <time>2021-02-23T15:30:24Z</time>
      </trkpt>
      <trkpt lat="46.05376" lon="6.27161">
        <ele>804.814</ele>
        <time>2021-02-23T15:30:25Z</time>
      </trkpt>
      <trkpt lat="46.05371" lon="6.2716">
        <ele>803.208</ele>
        <time>2021-02-23T15:30:26Z</time>
      </trkpt>
      <trkpt lat="46.05365" lon="6.27159">
        <ele>799.789</ele>
        <time>2021-02-23T15:30:29Z</time>
      </trkpt>
      <trkpt lat="46.05359" lon="6.27162">
        <ele>796.33</ele>
        <time>2021-02-23T15:30:33Z</time>
      </trkpt>
      <trkpt lat="46.05352" lon="6.27164">
        <ele>794.981</ele>
        <time>2021-02-23T15:30:35Z</time>
      </trkpt>
      <trkpt lat="46.05346" lon="6.27165">
        <ele>793.564</ele>
        <time>2021-02-23T15:30:37Z</time>
      </trkpt>
      <trkpt lat="46.0534" lon="6.27168">
        <ele>792.797</ele>
        <time>2021-02-23T15:30:38Z</time>
      </trkpt>
      <trkpt lat="46.05332" lon="6.2717">
        <ele>791.19</ele>
        <time>2021-02-23T15:30:40Z</time>
      </trkpt>
      <trkpt lat="46.05323" lon="6.27171">
        <ele>789.424</ele>
        <time>2021-02-23T15:30:42Z</time>
      </trkpt>
      <trkpt lat="46.05317" lon="6.27171">
        <ele>788.538</ele>
        <time>2021-02-23T15:30:43Z</time>
      </trkpt>
      <trkpt lat="46.05312" lon="6.27172">
        <ele>787.619</ele>
        <time>2021-02-23T15:30:44Z</time>
      </trkpt>
      <trkpt lat="46.05302" lon="6.27171">
        <ele>785.909</ele>
        <time>2021-02-23T15:30:46Z</time>
      </trkpt>
      <trkpt lat="46.05295" lon="6.27172">
        <ele>785.219</ele>
        <time>2021-02-23T15:30:47Z</time>
      </trkpt>
      <trkpt lat="46.05287" lon="6.27167">
        <ele>784.008</ele>
        <time>2021-02-23T15:30:49Z</time>
      </trkpt>
      <trkpt lat="46.05282" lon="6.27164">
        <ele>783.597</ele>
        <time>2021-02-23T15:30:50Z</time>
      </trkpt>
      <trkpt lat="46.0527" lon="6.2716">
        <ele>781.868</ele>
        <time>2021-02-23T15:31:02Z</time>
      </trkpt>
      <trkpt lat="46.05286" lon="6.2717">
        <ele>782.059</ele>
        <time>2021-02-23T15:31:15Z</time>
      </trkpt>
      <trkpt lat="46.05291" lon="6.27172">
        <ele>782.362</ele>
        <time>2021-02-23T15:31:16Z</time>
      </trkpt>
      <trkpt lat="46.05299" lon="6.27171">
        <ele>783.445</ele>
        <time>2021-02-23T15:31:18Z</time>
      </trkpt>
      <trkpt lat="46.05307" lon="6.27169">
        <ele>784.958</ele>
        <time>2021-02-23T15:31:20Z</time>
      </trkpt>
      <trkpt lat="46.05312" lon="6.27168">
        <ele>785.912</ele>
        <time>2021-02-23T15:31:21Z</time>
      </trkpt>
      <trkpt lat="46.05319" lon="6.27168">
        <ele>786.866</ele>
        <time>2021-02-23T15:31:22Z</time>
      </trkpt>
      <trkpt lat="46.05325" lon="6.27166">
        <ele>787.793</ele>
        <time>2021-02-23T15:31:23Z</time>
      </trkpt>
      <trkpt lat="46.05332" lon="6.27166">
        <ele>788.865</ele>
        <time>2021-02-23T15:31:24Z</time>
      </trkpt>
      <trkpt lat="46.05337" lon="6.27166">
        <ele>790.021</ele>
        <time>2021-02-23T15:31:25Z</time>
      </trkpt>
      <trkpt lat="46.05342" lon="6.27165">
        <ele>791.208</ele>
        <time>2021-02-23T15:31:26Z</time>
      </trkpt>
      <trkpt lat="46.05347" lon="6.27164">
        <ele>792.455</ele>
        <time>2021-02-23T15:31:27Z</time>
      </trkpt>
      <trkpt lat="46.05353" lon="6.27164">
        <ele>793.586</ele>
        <time>2021-02-23T15:31:28Z</time>
      </trkpt>
      <trkpt lat="46.05361" lon="6.27162">
        <ele>794.617</ele>
        <time>2021-02-23T15:31:29Z</time>
      </trkpt>
      <trkpt lat="46.05367" lon="6.27164">
        <ele>795.79</ele>
        <time>2021-02-23T15:31:30Z</time>
      </trkpt>
      <trkpt lat="46.05374" lon="6.27164">
        <ele>796.723</ele>
        <time>2021-02-23T15:31:31Z</time>
      </trkpt>
      <trkpt lat="46.05384" lon="6.27162">
        <ele>797.626</ele>
        <time>2021-02-23T15:31:32Z</time>
      </trkpt>
      <trkpt lat="46.05393" lon="6.2716">
        <ele>798.65</ele>
        <time>2021-02-23T15:31:33Z</time>
      </trkpt>
      <trkpt lat="46.05403" lon="6.27158">
        <ele>799.644</ele>
        <time>2021-02-23T15:31:34Z</time>
      </trkpt>
      <trkpt lat="46.05414" lon="6.27156">
        <ele>800.567</ele>
        <time>2021-02-23T15:31:35Z</time>
      </trkpt>
      <trkpt lat="46.05425" lon="6.27153">
        <ele>801.581</ele>
        <time>2021-02-23T15:31:36Z</time>
      </trkpt>
      <trkpt lat="46.05435" lon="6.27151">
        <ele>802.719</ele>
        <time>2021-02-23T15:31:37Z</time>
      </trkpt>
      <trkpt lat="46.05447" lon="6.27149">
        <ele>803.808</ele>
        <time>2021-02-23T15:31:38Z</time>
      </trkpt>
      <trkpt lat="46.05458" lon="6.27147">
        <ele>805.062</ele>
        <time>2021-02-23T15:31:39Z</time>
      </trkpt>
      <trkpt lat="46.0547" lon="6.27145">
        <ele>806.343</ele>
        <time>2021-02-23T15:31:40Z</time>
      </trkpt>
      <trkpt lat="46.05483" lon="6.27142">
        <ele>807.354</ele>
        <time>2021-02-23T15:31:41Z</time>
      </trkpt>
      <trkpt lat="46.05496" lon="6.2714">
        <ele>808.487</ele>
        <time>2021-02-23T15:31:42Z</time>
      </trkpt>
      <trkpt lat="46.05511" lon="6.27139">
        <ele>809.45</ele>
        <time>2021-02-23T15:31:43Z</time>
      </trkpt>
      <trkpt lat="46.05525" lon="6.27141">
        <ele>810.393</ele>
        <time>2021-02-23T15:31:44Z</time>
      </trkpt>
      <trkpt lat="46.0554" lon="6.27144">
        <ele>810.827</ele>
        <time>2021-02-23T15:31:45Z</time>
      </trkpt>
      <trkpt lat="46.05555" lon="6.27145">
        <ele>811.811</ele>
        <time>2021-02-23T15:31:46Z</time>
      </trkpt>
      <trkpt lat="46.05568" lon="6.27145">
        <ele>813.197</ele>
        <time>2021-02-23T15:31:47Z</time>
      </trkpt>
      <trkpt lat="46.05578" lon="6.27145">
        <ele>814.423</ele>
        <time>2021-02-23T15:31:48Z</time>
      </trkpt>
      <trkpt lat="46.05589" lon="6.27146">
        <ele>815.625</ele>
        <time>2021-02-23T15:31:49Z</time>
      </trkpt>
      <trkpt lat="46.056" lon="6.27146">
        <ele>817.008</ele>
        <time>2021-02-23T15:31:50Z</time>
      </trkpt>
      <trkpt lat="46.0561" lon="6.27147">
        <ele>818.195</ele>
        <time>2021-02-23T15:31:51Z</time>
      </trkpt>
      <trkpt lat="46.0562" lon="6.27148">
        <ele>818.526</ele>
        <time>2021-02-23T15:31:52Z</time>
      </trkpt>
      <trkpt lat="46.05632" lon="6.27149">
        <ele>818.887</ele>
        <time>2021-02-23T15:31:53Z</time>
      </trkpt>
      <trkpt lat="46.05642" lon="6.27149">
        <ele>819.17</ele>
        <time>2021-02-23T15:31:54Z</time>
      </trkpt>
      <trkpt lat="46.0565" lon="6.27149">
        <ele>819.143</ele>
        <time>2021-02-23T15:31:55Z</time>
      </trkpt>
      <trkpt lat="46.05657" lon="6.27149">
        <ele>819.126</ele>
        <time>2021-02-23T15:31:56Z</time>
      </trkpt>
      <trkpt lat="46.05662" lon="6.27153">
        <ele>819.15</ele>
        <time>2021-02-23T15:31:57Z</time>
      </trkpt>
      <trkpt lat="46.05664" lon="6.27159">
        <ele>819.194</ele>
        <time>2021-02-23T15:31:58Z</time>
      </trkpt>
      <trkpt lat="46.05663" lon="6.27167">
        <ele>819.181</ele>
        <time>2021-02-23T15:31:59Z</time>
      </trkpt>
      <trkpt lat="46.05662" lon="6.27178">
        <ele>819.261</ele>
        <time>2021-02-23T15:32:00Z</time>
      </trkpt>
      <trkpt lat="46.0566" lon="6.27191">
        <ele>819.517</ele>
        <time>2021-02-23T15:32:01Z</time>
      </trkpt>
      <trkpt lat="46.05658" lon="6.27206">
        <ele>820.008</ele>
        <time>2021-02-23T15:32:02Z</time>
      </trkpt>
      <trkpt lat="46.05657" lon="6.27222">
        <ele>820.784</ele>
        <time>2021-02-23T15:32:03Z</time>
      </trkpt>
      <trkpt lat="46.05654" lon="6.27238">
        <ele>821.715</ele>
        <time>2021-02-23T15:32:04Z</time>
      </trkpt>
      <trkpt lat="46.05651" lon="6.27255">
        <ele>822.696</ele>
        <time>2021-02-23T15:32:05Z</time>
      </trkpt>
      <trkpt lat="46.05649" lon="6.27274">
        <ele>823.569</ele>
        <time>2021-02-23T15:32:06Z</time>
      </trkpt>
      <trkpt lat="46.05646" lon="6.27293">
        <ele>824.472</ele>
        <time>2021-02-23T15:32:07Z</time>
      </trkpt>
      <trkpt lat="46.05644" lon="6.27313">
        <ele>825.475</ele>
        <time>2021-02-23T15:32:08Z</time>
      </trkpt>
      <trkpt lat="46.05642" lon="6.27335">
        <ele>825.929</ele>
        <time>2021-02-23T15:32:09Z</time>
      </trkpt>
      <trkpt lat="46.05639" lon="6.27356">
        <ele>826.653</ele>
        <time>2021-02-23T15:32:10Z</time>
      </trkpt>
      <trkpt lat="46.05636" lon="6.27373">
        <ele>827.321</ele>
        <time>2021-02-23T15:32:11Z</time>
      </trkpt>
      <trkpt lat="46.05634" lon="6.27389">
        <ele>827.641</ele>
        <time>2021-02-23T15:32:12Z</time>
      </trkpt>
      <trkpt lat="46.05632" lon="6.27406">
        <ele>827.705</ele>
        <time>2021-02-23T15:32:13Z</time>
      </trkpt>
      <trkpt lat="46.0563" lon="6.27423">
        <ele>827.608</ele>
        <time>2021-02-23T15:32:14Z</time>
      </trkpt>
      <trkpt lat="46.0563" lon="6.27441">
        <ele>827.568</ele>
        <time>2021-02-23T15:32:15Z</time>
      </trkpt>
      <trkpt lat="46.05628" lon="6.27459">
        <ele>826.789</ele>
        <time>2021-02-23T15:32:16Z</time>
      </trkpt>
      <trkpt lat="46.0563" lon="6.27478">
        <ele>826.01</ele>
        <time>2021-02-23T15:32:17Z</time>
      </trkpt>
      <trkpt lat="46.05631" lon="6.27499">
        <ele>825.413</ele>
        <time>2021-02-23T15:32:18Z</time>
      </trkpt>
      <trkpt lat="46.05633" lon="6.2752">
        <ele>824.746</ele>
        <time>2021-02-23T15:32:19Z</time>
      </trkpt>
      <trkpt lat="46.05634" lon="6.27542">
        <ele>823.939</ele>
        <time>2021-02-23T15:32:20Z</time>
      </trkpt>
      <trkpt lat="46.05635" lon="6.27562">
        <ele>823.783</ele>
        <time>2021-02-23T15:32:21Z</time>
      </trkpt>
      <trkpt lat="46.05635" lon="6.27581">
        <ele>823.237</ele>
        <time>2021-02-23T15:32:22Z</time>
      </trkpt>
      <trkpt lat="46.05636" lon="6.276">
        <ele>822.397</ele>
        <time>2021-02-23T15:32:23Z</time>
      </trkpt>
      <trkpt lat="46.05637" lon="6.27618">
        <ele>821.023</ele>
        <time>2021-02-23T15:32:24Z</time>
      </trkpt>
      <trkpt lat="46.05639" lon="6.27636">
        <ele>819.925</ele>
        <time>2021-02-23T15:32:25Z</time>
      </trkpt>
      <trkpt lat="46.0564" lon="6.27653">
        <ele>818.408</ele>
        <time>2021-02-23T15:32:26Z</time>
      </trkpt>
      <trkpt lat="46.05641" lon="6.27668">
        <ele>817.125</ele>
        <time>2021-02-23T15:32:27Z</time>
      </trkpt>
      <trkpt lat="46.05642" lon="6.27684">
        <ele>816.166</ele>
        <time>2021-02-23T15:32:28Z</time>
      </trkpt>
      <trkpt lat="46.05642" lon="6.277">
        <ele>815.557</ele>
        <time>2021-02-23T15:32:29Z</time>
      </trkpt>
      <trkpt lat="46.05643" lon="6.27715">
        <ele>814.99</ele>
        <time>2021-02-23T15:32:30Z</time>
      </trkpt>
      <trkpt lat="46.05644" lon="6.2773">
        <ele>814.533</ele>
        <time>2021-02-23T15:32:31Z</time>
      </trkpt>
      <trkpt lat="46.05643" lon="6.27745">
        <ele>814.246</ele>
        <time>2021-02-23T15:32:32Z</time>
      </trkpt>
      <trkpt lat="46.05642" lon="6.27761">
        <ele>813.84</ele>
        <time>2021-02-23T15:32:33Z</time>
      </trkpt>
      <trkpt lat="46.05638" lon="6.27775">
        <ele>813.384</ele>
        <time>2021-02-23T15:32:34Z</time>
      </trkpt>
      <trkpt lat="46.05634" lon="6.27787">
        <ele>812.729</ele>
        <time>2021-02-23T15:32:35Z</time>
      </trkpt>
      <trkpt lat="46.0563" lon="6.27798">
        <ele>811.9</ele>
        <time>2021-02-23T15:32:36Z</time>
      </trkpt>
      <trkpt lat="46.05627" lon="6.27806">
        <ele>811.02</ele>
        <time>2021-02-23T15:32:37Z</time>
      </trkpt>
      <trkpt lat="46.05623" lon="6.27815">
        <ele>809.308</ele>
        <time>2021-02-23T15:32:39Z</time>
      </trkpt>
      <trkpt lat="46.05623" lon="6.27821">
        <ele>807.928</ele>
        <time>2021-02-23T15:32:41Z</time>
      </trkpt>
      <trkpt lat="46.05627" lon="6.27826">
        <ele>807.429</ele>
        <time>2021-02-23T15:32:42Z</time>
      </trkpt>
      <trkpt lat="46.05633" lon="6.27834">
        <ele>807.03</ele>
        <time>2021-02-23T15:32:44Z</time>
      </trkpt>
      <trkpt lat="46.05637" lon="6.27839">
        <ele>807.073</ele>
        <time>2021-02-23T15:32:45Z</time>
      </trkpt>
      <trkpt lat="46.05643" lon="6.27844">
        <ele>807.276</ele>
        <time>2021-02-23T15:32:46Z</time>
      </trkpt>
      <trkpt lat="46.0565" lon="6.27849">
        <ele>807.439</ele>
        <time>2021-02-23T15:32:47Z</time>
      </trkpt>
      <trkpt lat="46.05658" lon="6.27855">
        <ele>807.693</ele>
        <time>2021-02-23T15:32:48Z</time>
      </trkpt>
      <trkpt lat="46.05665" lon="6.27861">
        <ele>807.677</ele>
        <time>2021-02-23T15:32:49Z</time>
      </trkpt>
      <trkpt lat="46.05673" lon="6.27868">
        <ele>807.661</ele>
        <time>2021-02-23T15:32:50Z</time>
      </trkpt>
      <trkpt lat="46.0568" lon="6.27876">
        <ele>807.321</ele>
        <time>2021-02-23T15:32:51Z</time>
      </trkpt>
      <trkpt lat="46.05686" lon="6.27883">
        <ele>806.913</ele>
        <time>2021-02-23T15:32:52Z</time>
      </trkpt>
      <trkpt lat="46.05691" lon="6.27893">
        <ele>806.308</ele>
        <time>2021-02-23T15:32:53Z</time>
      </trkpt>
      <trkpt lat="46.05696" lon="6.27903">
        <ele>805.532</ele>
        <time>2021-02-23T15:32:54Z</time>
      </trkpt>
      <trkpt lat="46.05703" lon="6.27907">
        <ele>804.773</ele>
        <time>2021-02-23T15:32:55Z</time>
      </trkpt>
      <trkpt lat="46.0571" lon="6.2791">
        <ele>804.094</ele>
        <time>2021-02-23T15:32:56Z</time>
      </trkpt>
      <trkpt lat="46.05719" lon="6.27912">
        <ele>803.417</ele>
        <time>2021-02-23T15:32:57Z</time>
      </trkpt>
      <trkpt lat="46.05728" lon="6.27916">
        <ele>803.06</ele>
        <time>2021-02-23T15:32:58Z</time>
      </trkpt>
      <trkpt lat="46.05737" lon="6.2792">
        <ele>802.733</ele>
        <time>2021-02-23T15:32:59Z</time>
      </trkpt>
      <trkpt lat="46.05747" lon="6.27924">
        <ele>802.717</ele>
        <time>2021-02-23T15:33:00Z</time>
      </trkpt>
      <trkpt lat="46.05757" lon="6.27928">
        <ele>802.751</ele>
        <time>2021-02-23T15:33:01Z</time>
      </trkpt>
      <trkpt lat="46.05767" lon="6.27933">
        <ele>802.798</ele>
        <time>2021-02-23T15:33:02Z</time>
      </trkpt>
      <trkpt lat="46.05776" lon="6.27936">
        <ele>802.615</ele>
        <time>2021-02-23T15:33:03Z</time>
      </trkpt>
      <trkpt lat="46.05784" lon="6.27939">
        <ele>802.526</ele>
        <time>2021-02-23T15:33:04Z</time>
      </trkpt>
      <trkpt lat="46.05792" lon="6.27941">
        <ele>802.408</ele>
        <time>2021-02-23T15:33:05Z</time>
      </trkpt>
      <trkpt lat="46.058" lon="6.2794">
        <ele>802.495</ele>
        <time>2021-02-23T15:33:06Z</time>
      </trkpt>
      <trkpt lat="46.05806" lon="6.27936">
        <ele>802.446</ele>
        <time>2021-02-23T15:33:07Z</time>
      </trkpt>
      <trkpt lat="46.05812" lon="6.27929">
        <ele>802.497</ele>
        <time>2021-02-23T15:33:08Z</time>
      </trkpt>
      <trkpt lat="46.05817" lon="6.27921">
        <ele>802.66</ele>
        <time>2021-02-23T15:33:09Z</time>
      </trkpt>
      <trkpt lat="46.05822" lon="6.27912">
        <ele>803.053</ele>
        <time>2021-02-23T15:33:10Z</time>
      </trkpt>
      <trkpt lat="46.05827" lon="6.27902">
        <ele>803.656</ele>
        <time>2021-02-23T15:33:11Z</time>
      </trkpt>
      <trkpt lat="46.05833" lon="6.27892">
        <ele>804.59</ele>
        <time>2021-02-23T15:33:12Z</time>
      </trkpt>
      <trkpt lat="46.05838" lon="6.27883">
        <ele>805.654</ele>
        <time>2021-02-23T15:33:13Z</time>
      </trkpt>
      <trkpt lat="46.05844" lon="6.27872">
        <ele>806.765</ele>
        <time>2021-02-23T15:33:14Z</time>
      </trkpt>
      <trkpt lat="46.05849" lon="6.27861">
        <ele>807.868</ele>
        <time>2021-02-23T15:33:15Z</time>
      </trkpt>
      <trkpt lat="46.05853" lon="6.2785">
        <ele>808.914</ele>
        <time>2021-02-23T15:33:16Z</time>
      </trkpt>
      <trkpt lat="46.05856" lon="6.27841">
        <ele>809.908</ele>
        <time>2021-02-23T15:33:17Z</time>
      </trkpt>
      <trkpt lat="46.05858" lon="6.27834">
        <ele>810.932</ele>
        <time>2021-02-23T15:33:18Z</time>
      </trkpt>
      <trkpt lat="46.05862" lon="6.27829">
        <ele>811.813</ele>
        <time>2021-02-23T15:33:19Z</time>
      </trkpt>
      <trkpt lat="46.05867" lon="6.2783">
        <ele>812.654</ele>
        <time>2021-02-23T15:33:20Z</time>
      </trkpt>
      <trkpt lat="46.05874" lon="6.27833">
        <ele>813.427</ele>
        <time>2021-02-23T15:33:21Z</time>
      </trkpt>
      <trkpt lat="46.05882" lon="6.27838">
        <ele>813.94</ele>
        <time>2021-02-23T15:33:22Z</time>
      </trkpt>
      <trkpt lat="46.05891" lon="6.27842">
        <ele>814.123</ele>
        <time>2021-02-23T15:33:23Z</time>
      </trkpt>
      <trkpt lat="46.059" lon="6.27846">
        <ele>814.347</ele>
        <time>2021-02-23T15:33:24Z</time>
      </trkpt>
      <trkpt lat="46.0591" lon="6.27849">
        <ele>814.491</ele>
        <time>2021-02-23T15:33:25Z</time>
      </trkpt>
      <trkpt lat="46.05922" lon="6.27852">
        <ele>814.485</ele>
        <time>2021-02-23T15:33:26Z</time>
      </trkpt>
      <trkpt lat="46.05932" lon="6.27855">
        <ele>814.489</ele>
        <time>2021-02-23T15:33:27Z</time>
      </trkpt>
      <trkpt lat="46.0594" lon="6.27857">
        <ele>814.417</ele>
        <time>2021-02-23T15:33:28Z</time>
      </trkpt>
      <trkpt lat="46.05948" lon="6.27861">
        <ele>814.408</ele>
        <time>2021-02-23T15:33:29Z</time>
      </trkpt>
      <trkpt lat="46.05957" lon="6.27866">
        <ele>814.424</ele>
        <time>2021-02-23T15:33:30Z</time>
      </trkpt>
      <trkpt lat="46.05966" lon="6.27871">
        <ele>814.525</ele>
        <time>2021-02-23T15:33:31Z</time>
      </trkpt>
      <trkpt lat="46.05973" lon="6.27878">
        <ele>814.656</ele>
        <time>2021-02-23T15:33:32Z</time>
      </trkpt>
      <trkpt lat="46.0598" lon="6.27886">
        <ele>814.699</ele>
        <time>2021-02-23T15:33:33Z</time>
      </trkpt>
      <trkpt lat="46.05985" lon="6.27894">
        <ele>814.662</ele>
        <time>2021-02-23T15:33:34Z</time>
      </trkpt>
      <trkpt lat="46.05989" lon="6.27901">
        <ele>814.655</ele>
        <time>2021-02-23T15:33:35Z</time>
      </trkpt>
      <trkpt lat="46.05993" lon="6.27907">
        <ele>814.539</ele>
        <time>2021-02-23T15:33:36Z</time>
      </trkpt>
      <trkpt lat="46.05997" lon="6.27911">
        <ele>814.363</ele>
        <time>2021-02-23T15:33:37Z</time>
      </trkpt>
      <trkpt lat="46.06002" lon="6.27916">
        <ele>813.978</ele>
        <time>2021-02-23T15:33:39Z</time>
      </trkpt>
      <trkpt lat="46.06003" lon="6.27927">
        <ele>813.533</ele>
        <time>2021-02-23T15:33:41Z</time>
      </trkpt>
      <trkpt lat="46.06003" lon="6.27935">
        <ele>813.426</ele>
        <time>2021-02-23T15:33:42Z</time>
      </trkpt>
      <trkpt lat="46.06002" lon="6.27943">
        <ele>813.208</ele>
        <time>2021-02-23T15:33:43Z</time>
      </trkpt>
      <trkpt lat="46.06002" lon="6.2795">
        <ele>813.013</ele>
        <time>2021-02-23T15:33:44Z</time>
      </trkpt>
      <trkpt lat="46.06002" lon="6.27956">
        <ele>812.754</ele>
        <time>2021-02-23T15:33:45Z</time>
      </trkpt>
      <trkpt lat="46.06003" lon="6.27968">
        <ele>811.985</ele>
        <time>2021-02-23T15:33:47Z</time>
      </trkpt>
      <trkpt lat="46.06004" lon="6.27982">
        <ele>810.718</ele>
        <time>2021-02-23T15:33:49Z</time>
      </trkpt>
      <trkpt lat="46.06004" lon="6.2799">
        <ele>809.991</ele>
        <time>2021-02-23T15:33:50Z</time>
      </trkpt>
      <trkpt lat="46.06004" lon="6.27998">
        <ele>809.054</ele>
        <time>2021-02-23T15:33:51Z</time>
      </trkpt>
      <trkpt lat="46.06004" lon="6.28007">
        <ele>807.958</ele>
        <time>2021-02-23T15:33:52Z</time>
      </trkpt>
      <trkpt lat="46.06005" lon="6.28014">
        <ele>806.762</ele>
        <time>2021-02-23T15:33:53Z</time>
      </trkpt>
      <trkpt lat="46.06004" lon="6.28025">
        <ele>804.559</ele>
        <time>2021-02-23T15:33:55Z</time>
      </trkpt>
      <trkpt lat="46.06005" lon="6.28036">
        <ele>803.003</ele>
        <time>2021-02-23T15:33:57Z</time>
      </trkpt>
      <trkpt lat="46.06009" lon="6.28042">
        <ele>801.823</ele>
        <time>2021-02-23T15:34:00Z</time>
      </trkpt>
      <trkpt lat="46.06016" lon="6.2804">
        <ele>801.308</ele>
        <time>2021-02-23T15:34:02Z</time>
      </trkpt>
      <trkpt lat="46.06023" lon="6.28038">
        <ele>801.151</ele>
        <time>2021-02-23T15:34:04Z</time>
      </trkpt>
      <trkpt lat="46.06028" lon="6.28036">
        <ele>801.112</ele>
        <time>2021-02-23T15:34:06Z</time>
      </trkpt>
      <trkpt lat="46.06034" lon="6.28034">
        <ele>801.113</ele>
        <time>2021-02-23T15:34:08Z</time>
      </trkpt>
      <trkpt lat="46.06041" lon="6.2803">
        <ele>801.176</ele>
        <time>2021-02-23T15:34:10Z</time>
      </trkpt>
      <trkpt lat="46.06049" lon="6.28025">
        <ele>801.119</ele>
        <time>2021-02-23T15:34:12Z</time>
      </trkpt>
      <trkpt lat="46.06053" lon="6.28022">
        <ele>801.122</ele>
        <time>2021-02-23T15:34:13Z</time>
      </trkpt>
      <trkpt lat="46.06058" lon="6.28018">
        <ele>801.186</ele>
        <time>2021-02-23T15:34:14Z</time>
      </trkpt>
      <trkpt lat="46.06063" lon="6.28015">
        <ele>801.13</ele>
        <time>2021-02-23T15:34:15Z</time>
      </trkpt>
      <trkpt lat="46.06069" lon="6.2801">
        <ele>801.166</ele>
        <time>2021-02-23T15:34:16Z</time>
      </trkpt>
      <trkpt lat="46.06074" lon="6.28006">
        <ele>801.029</ele>
        <time>2021-02-23T15:34:17Z</time>
      </trkpt>
      <trkpt lat="46.06079" lon="6.28001">
        <ele>800.921</ele>
        <time>2021-02-23T15:34:18Z</time>
      </trkpt>
      <trkpt lat="46.06083" lon="6.27997">
        <ele>800.808</ele>
        <time>2021-02-23T15:34:19Z</time>
      </trkpt>
      <trkpt lat="46.06087" lon="6.27993">
        <ele>800.742</ele>
        <time>2021-02-23T15:34:20Z</time>
      </trkpt>
      <trkpt lat="46.06091" lon="6.27988">
        <ele>800.573</ele>
        <time>2021-02-23T15:34:21Z</time>
      </trkpt>
      <trkpt lat="46.06095" lon="6.27983">
        <ele>800.364</ele>
        <time>2021-02-23T15:34:22Z</time>
      </trkpt>
      <trkpt lat="46.061" lon="6.27981">
        <ele>800.157</ele>
        <time>2021-02-23T15:34:23Z</time>
      </trkpt>
      <trkpt lat="46.06106" lon="6.27985">
        <ele>799.83</ele>
        <time>2021-02-23T15:34:24Z</time>
      </trkpt>
      <trkpt lat="46.0611" lon="6.2799">
        <ele>799.413</ele>
        <time>2021-02-23T15:34:25Z</time>
      </trkpt>
      <trkpt lat="46.06116" lon="6.27996">
        <ele>798.947</ele>
        <time>2021-02-23T15:34:26Z</time>
      </trkpt>
      <trkpt lat="46.06121" lon="6.28002">
        <ele>798.341</ele>
        <time>2021-02-23T15:34:27Z</time>
      </trkpt>
      <trkpt lat="46.06127" lon="6.28005">
        <ele>797.476</ele>
        <time>2021-02-23T15:34:28Z</time>
      </trkpt>
      <trkpt lat="46.06133" lon="6.2801">
        <ele>796.49</ele>
        <time>2021-02-23T15:34:29Z</time>
      </trkpt>
      <trkpt lat="46.0614" lon="6.28012">
        <ele>795.319</ele>
        <time>2021-02-23T15:34:30Z</time>
      </trkpt>
      <trkpt lat="46.06148" lon="6.28013">
        <ele>794.008</ele>
        <time>2021-02-23T15:34:31Z</time>
      </trkpt>
      <trkpt lat="46.06156" lon="6.28011">
        <ele>792.783</ele>
        <time>2021-02-23T15:34:32Z</time>
      </trkpt>
      <trkpt lat="46.06164" lon="6.28011">
        <ele>791.544</ele>
        <time>2021-02-23T15:34:33Z</time>
      </trkpt>
      <trkpt lat="46.06171" lon="6.28011">
        <ele>790.365</ele>
        <time>2021-02-23T15:34:34Z</time>
      </trkpt>
      <trkpt lat="46.06177" lon="6.28013">
        <ele>789.218</ele>
        <time>2021-02-23T15:34:35Z</time>
      </trkpt>
      <trkpt lat="46.06184" lon="6.28018">
        <ele>788.041</ele>
        <time>2021-02-23T15:34:36Z</time>
      </trkpt>
      <trkpt lat="46.06193" lon="6.28022">
        <ele>786.884</ele>
        <time>2021-02-23T15:34:37Z</time>
      </trkpt>
      <trkpt lat="46.062" lon="6.28026">
        <ele>785.858</ele>
        <time>2021-02-23T15:34:38Z</time>
      </trkpt>
      <trkpt lat="46.06207" lon="6.28031">
        <ele>784.822</ele>
        <time>2021-02-23T15:34:39Z</time>
      </trkpt>
      <trkpt lat="46.06214" lon="6.28036">
        <ele>783.691</ele>
        <time>2021-02-23T15:34:40Z</time>
      </trkpt>
      <trkpt lat="46.06221" lon="6.28039">
        <ele>782.681</ele>
        <time>2021-02-23T15:34:41Z</time>
      </trkpt>
      <trkpt lat="46.06228" lon="6.28041">
        <ele>781.519</ele>
        <time>2021-02-23T15:34:42Z</time>
      </trkpt>
      <trkpt lat="46.06235" lon="6.28044">
        <ele>780.108</ele>
        <time>2021-02-23T15:34:43Z</time>
      </trkpt>
      <trkpt lat="46.06242" lon="6.28047">
        <ele>778.845</ele>
        <time>2021-02-23T15:34:44Z</time>
      </trkpt>
      <trkpt lat="46.06248" lon="6.28049">
        <ele>777.716</ele>
        <time>2021-02-23T15:34:45Z</time>
      </trkpt>
      <trkpt lat="46.06254" lon="6.28052">
        <ele>776.497</ele>
        <time>2021-02-23T15:34:46Z</time>
      </trkpt>
      <trkpt lat="46.06259" lon="6.28054">
        <ele>775.38</ele>
        <time>2021-02-23T15:34:47Z</time>
      </trkpt>
      <trkpt lat="46.06265" lon="6.28055">
        <ele>774.423</ele>
        <time>2021-02-23T15:34:48Z</time>
      </trkpt>
      <trkpt lat="46.0627" lon="6.28056">
        <ele>773.456</ele>
        <time>2021-02-23T15:34:49Z</time>
      </trkpt>
      <trkpt lat="46.06275" lon="6.28058">
        <ele>772.57</ele>
        <time>2021-02-23T15:34:50Z</time>
      </trkpt>
      <trkpt lat="46.06279" lon="6.2806">
        <ele>770.654</ele>
        <time>2021-02-23T15:34:53Z</time>
      </trkpt>
      <trkpt lat="46.06284" lon="6.28062">
        <ele>769.848</ele>
        <time>2021-02-23T15:34:55Z</time>
      </trkpt>
      <trkpt lat="46.06289" lon="6.28066">
        <ele>769.461</ele>
        <time>2021-02-23T15:34:56Z</time>
      </trkpt>
      <trkpt lat="46.06294" lon="6.2807">
        <ele>768.917</ele>
        <time>2021-02-23T15:34:57Z</time>
      </trkpt>
      <trkpt lat="46.06299" lon="6.28072">
        <ele>768.308</ele>
        <time>2021-02-23T15:34:58Z</time>
      </trkpt>
      <trkpt lat="46.06304" lon="6.28075">
        <ele>767.61</ele>
        <time>2021-02-23T15:34:59Z</time>
      </trkpt>
      <trkpt lat="46.06309" lon="6.28079">
        <ele>766.951</ele>
        <time>2021-02-23T15:35:00Z</time>
      </trkpt>
      <trkpt lat="46.06315" lon="6.28082">
        <ele>766.222</ele>
        <time>2021-02-23T15:35:01Z</time>
      </trkpt>
      <trkpt lat="46.0632" lon="6.28085">
        <ele>765.575</ele>
        <time>2021-02-23T15:35:02Z</time>
      </trkpt>
      <trkpt lat="46.06325" lon="6.28088">
        <ele>764.938</ele>
        <time>2021-02-23T15:35:03Z</time>
      </trkpt>
      <trkpt lat="46.06332" lon="6.28093">
        <ele>763.891</ele>
        <time>2021-02-23T15:35:05Z</time>
      </trkpt>
      <trkpt lat="46.06337" lon="6.28096">
        <ele>762.845</ele>
        <time>2021-02-23T15:35:07Z</time>
      </trkpt>
      <trkpt lat="46.06343" lon="6.281">
        <ele>761.349</ele>
        <time>2021-02-23T15:35:11Z</time>
      </trkpt>
      <trkpt lat="46.06343" lon="6.28107">
        <ele>760.839</ele>
        <time>2021-02-23T15:35:13Z</time>
      </trkpt>
      <trkpt lat="46.06337" lon="6.28115">
        <ele>760.601</ele>
        <time>2021-02-23T15:35:15Z</time>
      </trkpt>
      <trkpt lat="46.06333" lon="6.28121">
        <ele>760.621</ele>
        <time>2021-02-23T15:35:16Z</time>
      </trkpt>
      <trkpt lat="46.0633" lon="6.28129">
        <ele>760.708</ele>
        <time>2021-02-23T15:35:17Z</time>
      </trkpt>
      <trkpt lat="46.06325" lon="6.28138">
        <ele>760.819</ele>
        <time>2021-02-23T15:35:18Z</time>
      </trkpt>
      <trkpt lat="46.0632" lon="6.28147">
        <ele>760.96</ele>
        <time>2021-02-23T15:35:19Z</time>
      </trkpt>
      <trkpt lat="46.06313" lon="6.28157">
        <ele>761.011</ele>
        <time>2021-02-23T15:35:20Z</time>
      </trkpt>
      <trkpt lat="46.06307" lon="6.28165">
        <ele>761.064</ele>
        <time>2021-02-23T15:35:21Z</time>
      </trkpt>
      <trkpt lat="46.063" lon="6.28174">
        <ele>761.087</ele>
        <time>2021-02-23T15:35:22Z</time>
      </trkpt>
      <trkpt lat="46.06294" lon="6.28184">
        <ele>761.09</ele>
        <time>2021-02-23T15:35:23Z</time>
      </trkpt>
      <trkpt lat="46.06289" lon="6.28193">
        <ele>761.084</ele>
        <time>2021-02-23T15:35:24Z</time>
      </trkpt>
      <trkpt lat="46.06283" lon="6.28202">
        <ele>761.098</ele>
        <time>2021-02-23T15:35:25Z</time>
      </trkpt>
      <trkpt lat="46.06279" lon="6.28211">
        <ele>761.057</ele>
        <time>2021-02-23T15:35:26Z</time>
      </trkpt>
      <trkpt lat="46.06275" lon="6.2822">
        <ele>760.9</ele>
        <time>2021-02-23T15:35:27Z</time>
      </trkpt>
      <trkpt lat="46.0627" lon="6.2823">
        <ele>760.82</ele>
        <time>2021-02-23T15:35:28Z</time>
      </trkpt>
      <trkpt lat="46.06264" lon="6.28241">
        <ele>760.608</ele>
        <time>2021-02-23T15:35:29Z</time>
      </trkpt>
      <trkpt lat="46.06259" lon="6.28252">
        <ele>760.291</ele>
        <time>2021-02-23T15:35:30Z</time>
      </trkpt>
      <trkpt lat="46.06254" lon="6.28262">
        <ele>760.042</ele>
        <time>2021-02-23T15:35:31Z</time>
      </trkpt>
      <trkpt lat="46.0625" lon="6.28271">
        <ele>759.933</ele>
        <time>2021-02-23T15:35:32Z</time>
      </trkpt>
      <trkpt lat="46.06246" lon="6.28279">
        <ele>759.996</ele>
        <time>2021-02-23T15:35:33Z</time>
      </trkpt>
      <trkpt lat="46.06242" lon="6.28283">
        <ele>759.959</ele>
        <time>2021-02-23T15:35:34Z</time>
      </trkpt>
      <trkpt lat="46.06239" lon="6.28289">
        <ele>759.912</ele>
        <time>2021-02-23T15:35:35Z</time>
      </trkpt>
      <trkpt lat="46.06235" lon="6.28295">
        <ele>759.816</ele>
        <time>2021-02-23T15:35:37Z</time>
      </trkpt>
      <trkpt lat="46.06238" lon="6.28303">
        <ele>759.53</ele>
        <time>2021-02-23T15:35:39Z</time>
      </trkpt>
      <trkpt lat="46.06242" lon="6.28309">
        <ele>759.196</ele>
        <time>2021-02-23T15:35:40Z</time>
      </trkpt>
      <trkpt lat="46.06247" lon="6.28308">
        <ele>758.631</ele>
        <time>2021-02-23T15:35:41Z</time>
      </trkpt>
      <trkpt lat="46.06252" lon="6.28305">
        <ele>758.024</ele>
        <time>2021-02-23T15:35:42Z</time>
      </trkpt>
      <trkpt lat="46.06256" lon="6.283">
        <ele>757.308</ele>
        <time>2021-02-23T15:35:43Z</time>
      </trkpt>
      <trkpt lat="46.06263" lon="6.28297">
        <ele>756.125</ele>
        <time>2021-02-23T15:35:45Z</time>
      </trkpt>
      <trkpt lat="46.06272" lon="6.28299">
        <ele>755.096</ele>
        <time>2021-02-23T15:35:47Z</time>
      </trkpt>
      <trkpt lat="46.06277" lon="6.28299">
        <ele>754.337</ele>
        <time>2021-02-23T15:35:48Z</time>
      </trkpt>
      <trkpt lat="46.06286" lon="6.28301">
        <ele>752.87</ele>
        <time>2021-02-23T15:35:50Z</time>
      </trkpt>
      <trkpt lat="46.06291" lon="6.28303">
        <ele>752.033</ele>
        <time>2021-02-23T15:35:51Z</time>
      </trkpt>
      <trkpt lat="46.06296" lon="6.28306">
        <ele>751.136</ele>
        <time>2021-02-23T15:35:52Z</time>
      </trkpt>
      <trkpt lat="46.06301" lon="6.28308">
        <ele>750.23</ele>
        <time>2021-02-23T15:35:53Z</time>
      </trkpt>
      <trkpt lat="46.06305" lon="6.28311">
        <ele>749.334</ele>
        <time>2021-02-23T15:35:54Z</time>
      </trkpt>
      <trkpt lat="46.0631" lon="6.28315">
        <ele>748.361</ele>
        <time>2021-02-23T15:35:55Z</time>
      </trkpt>
      <trkpt lat="46.06315" lon="6.2832">
        <ele>747.321</ele>
        <time>2021-02-23T15:35:56Z</time>
      </trkpt>
      <trkpt lat="46.06321" lon="6.28324">
        <ele>746.213</ele>
        <time>2021-02-23T15:35:57Z</time>
      </trkpt>
      <trkpt lat="46.06327" lon="6.28328">
        <ele>745.008</ele>
        <time>2021-02-23T15:35:58Z</time>
      </trkpt>
      <trkpt lat="46.06334" lon="6.28331">
        <ele>743.882</ele>
        <time>2021-02-23T15:35:59Z</time>
      </trkpt>
      <trkpt lat="46.0634" lon="6.28334">
        <ele>742.523</ele>
        <time>2021-02-23T15:36:00Z</time>
      </trkpt>
      <trkpt lat="46.06346" lon="6.28338">
        <ele>741.144</ele>
        <time>2021-02-23T15:36:01Z</time>
      </trkpt>
      <trkpt lat="46.06354" lon="6.28342">
        <ele>739.667</ele>
        <time>2021-02-23T15:36:02Z</time>
      </trkpt>
      <trkpt lat="46.0636" lon="6.28346">
        <ele>738.16</ele>
        <time>2021-02-23T15:36:03Z</time>
      </trkpt>
      <trkpt lat="46.06367" lon="6.2835">
        <ele>736.713</ele>
        <time>2021-02-23T15:36:04Z</time>
      </trkpt>
      <trkpt lat="46.06373" lon="6.28353">
        <ele>735.367</ele>
        <time>2021-02-23T15:36:05Z</time>
      </trkpt>
      <trkpt lat="46.06378" lon="6.28355">
        <ele>734.061</ele>
        <time>2021-02-23T15:36:06Z</time>
      </trkpt>
      <trkpt lat="46.06384" lon="6.28355">
        <ele>732.987</ele>
        <time>2021-02-23T15:36:07Z</time>
      </trkpt>
      <trkpt lat="46.06393" lon="6.28354">
        <ele>731.242</ele>
        <time>2021-02-23T15:36:09Z</time>
      </trkpt>
      <trkpt lat="46.06397" lon="6.28351">
        <ele>730.626</ele>
        <time>2021-02-23T15:36:10Z</time>
      </trkpt>
      <trkpt lat="46.06402" lon="6.28349">
        <ele>730.208</ele>
        <time>2021-02-23T15:36:11Z</time>
      </trkpt>
      <trkpt lat="46.06407" lon="6.28346">
        <ele>730.014</ele>
        <time>2021-02-23T15:36:12Z</time>
      </trkpt>
      <trkpt lat="46.06411" lon="6.28341">
        <ele>729.945</ele>
        <time>2021-02-23T15:36:13Z</time>
      </trkpt>
      <trkpt lat="46.06412" lon="6.28332">
        <ele>729.996</ele>
        <time>2021-02-23T15:36:14Z</time>
      </trkpt>
      <trkpt lat="46.06411" lon="6.28324">
        <ele>730.179</ele>
        <time>2021-02-23T15:36:15Z</time>
      </trkpt>
      <trkpt lat="46.06408" lon="6.28318">
        <ele>730.432</ele>
        <time>2021-02-23T15:36:16Z</time>
      </trkpt>
      <trkpt lat="46.06403" lon="6.2831">
        <ele>731.045</ele>
        <time>2021-02-23T15:36:17Z</time>
      </trkpt>
      <trkpt lat="46.06398" lon="6.28304">
        <ele>731.869</ele>
        <time>2021-02-23T15:36:18Z</time>
      </trkpt>
      <trkpt lat="46.06392" lon="6.28296">
        <ele>732.973</ele>
        <time>2021-02-23T15:36:19Z</time>
      </trkpt>
      <trkpt lat="46.06386" lon="6.28289">
        <ele>734.295</ele>
        <time>2021-02-23T15:36:20Z</time>
      </trkpt>
      <trkpt lat="46.0638" lon="6.28279">
        <ele>735.749</ele>
        <time>2021-02-23T15:36:21Z</time>
      </trkpt>
      <trkpt lat="46.06376" lon="6.28269">
        <ele>737.223</ele>
        <time>2021-02-23T15:36:22Z</time>
      </trkpt>
      <trkpt lat="46.06372" lon="6.2826">
        <ele>738.808</ele>
        <time>2021-02-23T15:36:23Z</time>
      </trkpt>
      <trkpt lat="46.06367" lon="6.2825">
        <ele>740.595</ele>
        <time>2021-02-23T15:36:24Z</time>
      </trkpt>
      <trkpt lat="46.06363" lon="6.28241">
        <ele>742.166</ele>
        <time>2021-02-23T15:36:25Z</time>
      </trkpt>
      <trkpt lat="46.0636" lon="6.28232">
        <ele>743.677</ele>
        <time>2021-02-23T15:36:26Z</time>
      </trkpt>
      <trkpt lat="46.06357" lon="6.28224">
        <ele>745.28</ele>
        <time>2021-02-23T15:36:27Z</time>
      </trkpt>
      <trkpt lat="46.06354" lon="6.28216">
        <ele>746.753</ele>
        <time>2021-02-23T15:36:28Z</time>
      </trkpt>
      <trkpt lat="46.06349" lon="6.28204">
        <ele>748.376</ele>
        <time>2021-02-23T15:36:29Z</time>
      </trkpt>
      <trkpt lat="46.06346" lon="6.28193">
        <ele>750.03</ele>
        <time>2021-02-23T15:36:30Z</time>
      </trkpt>
      <trkpt lat="46.06343" lon="6.2818">
        <ele>751.794</ele>
        <time>2021-02-23T15:36:31Z</time>
      </trkpt>
      <trkpt lat="46.0634" lon="6.28168">
        <ele>753.334</ele>
        <time>2021-02-23T15:36:32Z</time>
      </trkpt>
      <trkpt lat="46.06336" lon="6.28156">
        <ele>754.955</ele>
        <time>2021-02-23T15:36:33Z</time>
      </trkpt>
      <trkpt lat="46.06333" lon="6.28147">
        <ele>756.41</ele>
        <time>2021-02-23T15:36:34Z</time>
      </trkpt>
      <trkpt lat="46.0633" lon="6.28137">
        <ele>757.708</ele>
        <time>2021-02-23T15:36:35Z</time>
      </trkpt>
      <trkpt lat="46.06327" lon="6.28128">
        <ele>758.899</ele>
        <time>2021-02-23T15:36:36Z</time>
      </trkpt>
      <trkpt lat="46.06322" lon="6.28121">
        <ele>759.89</ele>
        <time>2021-02-23T15:36:37Z</time>
      </trkpt>
      <trkpt lat="46.06316" lon="6.28112">
        <ele>760.871</ele>
        <time>2021-02-23T15:36:38Z</time>
      </trkpt>
      <trkpt lat="46.0631" lon="6.28102">
        <ele>761.754</ele>
        <time>2021-02-23T15:36:39Z</time>
      </trkpt>
      <trkpt lat="46.06304" lon="6.28093">
        <ele>762.617</ele>
        <time>2021-02-23T15:36:40Z</time>
      </trkpt>
      <trkpt lat="46.06296" lon="6.28084">
        <ele>762.63</ele>
        <time>2021-02-23T15:36:41Z</time>
      </trkpt>
      <trkpt lat="46.06288" lon="6.28076">
        <ele>764.724</ele>
        <time>2021-02-23T15:36:42Z</time>
      </trkpt>
      <trkpt lat="46.06279" lon="6.2807">
        <ele>764.748</ele>
        <time>2021-02-23T15:36:43Z</time>
      </trkpt>
      <trkpt lat="46.0627" lon="6.28066">
        <ele>765.616</ele>
        <time>2021-02-23T15:36:44Z</time>
      </trkpt>
      <trkpt lat="46.0626" lon="6.28059">
        <ele>767.776</ele>
        <time>2021-02-23T15:36:45Z</time>
      </trkpt>
      <trkpt lat="46.06251" lon="6.28055">
        <ele>768.913</ele>
        <time>2021-02-23T15:36:46Z</time>
      </trkpt>
      <trkpt lat="46.06241" lon="6.28049">
        <ele>770.208</ele>
        <time>2021-02-23T15:36:47Z</time>
      </trkpt>
      <trkpt lat="46.06231" lon="6.28045">
        <ele>771.667</ele>
        <time>2021-02-23T15:36:48Z</time>
      </trkpt>
      <trkpt lat="46.06222" lon="6.28039">
        <ele>773.128</ele>
        <time>2021-02-23T15:36:49Z</time>
      </trkpt>
      <trkpt lat="46.06213" lon="6.28034">
        <ele>773.159</ele>
        <time>2021-02-23T15:36:50Z</time>
      </trkpt>
      <trkpt lat="46.06205" lon="6.28029">
        <ele>776.262</ele>
        <time>2021-02-23T15:36:51Z</time>
      </trkpt>
      <trkpt lat="46.06197" lon="6.28025">
        <ele>776.285</ele>
        <time>2021-02-23T15:36:52Z</time>
      </trkpt>
      <trkpt lat="46.06189" lon="6.28023">
        <ele>777.848</ele>
        <time>2021-02-23T15:36:53Z</time>
      </trkpt>
      <trkpt lat="46.06183" lon="6.28024">
        <ele>779.582</ele>
        <time>2021-02-23T15:36:54Z</time>
      </trkpt>
      <trkpt lat="46.06183" lon="6.28033">
        <ele>784.266</ele>
        <time>2021-02-23T15:36:57Z</time>
      </trkpt>
      <trkpt lat="46.0619" lon="6.28029">
        <ele>791.946</ele>
        <time>2021-02-23T15:37:01Z</time>
      </trkpt>
      <trkpt lat="46.06202" lon="6.28031">
        <ele>793.688</ele>
        <time>2021-02-23T15:37:03Z</time>
      </trkpt>
      <trkpt lat="46.0609" lon="6.27981">
        <ele>795.216</ele>
        <time>2021-02-23T15:37:04Z</time>
      </trkpt>
      <trkpt lat="46.06083" lon="6.27988">
        <ele>796.808</ele>
        <time>2021-02-23T15:37:05Z</time>
      </trkpt>
      <trkpt lat="46.06075" lon="6.27998">
        <ele>798.28</ele>
        <time>2021-02-23T15:37:06Z</time>
      </trkpt>
      <trkpt lat="46.06066" lon="6.28009">
        <ele>799.521</ele>
        <time>2021-02-23T15:37:07Z</time>
      </trkpt>
      <trkpt lat="46.06055" lon="6.28018">
        <ele>800.582</ele>
        <time>2021-02-23T15:37:08Z</time>
      </trkpt>
      <trkpt lat="46.06043" lon="6.28027">
        <ele>801.435</ele>
        <time>2021-02-23T15:37:09Z</time>
      </trkpt>
      <trkpt lat="46.0603" lon="6.28034">
        <ele>802.038</ele>
        <time>2021-02-23T15:37:10Z</time>
      </trkpt>
      <trkpt lat="46.06017" lon="6.2804">
        <ele>802.281</ele>
        <time>2021-02-23T15:37:11Z</time>
      </trkpt>
      <trkpt lat="46.06003" lon="6.28041">
        <ele>802.495</ele>
        <time>2021-02-23T15:37:12Z</time>
      </trkpt>
      <trkpt lat="46.05988" lon="6.2804">
        <ele>802.449</ele>
        <time>2021-02-23T15:37:13Z</time>
      </trkpt>
      <trkpt lat="46.05974" lon="6.28038">
        <ele>802.344</ele>
        <time>2021-02-23T15:37:14Z</time>
      </trkpt>
      <trkpt lat="46.0596" lon="6.28038">
        <ele>802.305</ele>
        <time>2021-02-23T15:37:15Z</time>
      </trkpt>
      <trkpt lat="46.05946" lon="6.28036">
        <ele>802.515</ele>
        <time>2021-02-23T15:37:16Z</time>
      </trkpt>
      <trkpt lat="46.05934" lon="6.28034">
        <ele>802.508</ele>
        <time>2021-02-23T15:37:17Z</time>
      </trkpt>
      <trkpt lat="46.05923" lon="6.2803">
        <ele>802.62</ele>
        <time>2021-02-23T15:37:18Z</time>
      </trkpt>
      <trkpt lat="46.05912" lon="6.28024">
        <ele>802.961</ele>
        <time>2021-02-23T15:37:19Z</time>
      </trkpt>
      <trkpt lat="46.05901" lon="6.28016">
        <ele>803.112</ele>
        <time>2021-02-23T15:37:20Z</time>
      </trkpt>
      <trkpt lat="46.0589" lon="6.28007">
        <ele>803.325</ele>
        <time>2021-02-23T15:37:21Z</time>
      </trkpt>
      <trkpt lat="46.0588" lon="6.27999">
        <ele>803.718</ele>
        <time>2021-02-23T15:37:22Z</time>
      </trkpt>
      <trkpt lat="46.05869" lon="6.27992">
        <ele>804.381</ele>
        <time>2021-02-23T15:37:23Z</time>
      </trkpt>
      <trkpt lat="46.05857" lon="6.27984">
        <ele>804.965</ele>
        <time>2021-02-23T15:37:24Z</time>
      </trkpt>
      <trkpt lat="46.05846" lon="6.27975">
        <ele>805.569</ele>
        <time>2021-02-23T15:37:25Z</time>
      </trkpt>
      <trkpt lat="46.05835" lon="6.27967">
        <ele>805.822</ele>
        <time>2021-02-23T15:37:26Z</time>
      </trkpt>
      <trkpt lat="46.05825" lon="6.2796">
        <ele>805.862</ele>
        <time>2021-02-23T15:37:27Z</time>
      </trkpt>
      <trkpt lat="46.05817" lon="6.27953">
        <ele>805.608</ele>
        <time>2021-02-23T15:37:28Z</time>
      </trkpt>
      <trkpt lat="46.05807" lon="6.27947">
        <ele>805.108</ele>
        <time>2021-02-23T15:37:29Z</time>
      </trkpt>
      <trkpt lat="46.05796" lon="6.27941">
        <ele>804.628</ele>
        <time>2021-02-23T15:37:30Z</time>
      </trkpt>
      <trkpt lat="46.05784" lon="6.27935">
        <ele>804.299</ele>
        <time>2021-02-23T15:37:31Z</time>
      </trkpt>
      <trkpt lat="46.05771" lon="6.27931">
        <ele>803.82</ele>
        <time>2021-02-23T15:37:32Z</time>
      </trkpt>
      <trkpt lat="46.05759" lon="6.27926">
        <ele>803.563</ele>
        <time>2021-02-23T15:37:33Z</time>
      </trkpt>
      <trkpt lat="46.05746" lon="6.27921">
        <ele>803.356</ele>
        <time>2021-02-23T15:37:34Z</time>
      </trkpt>
      <trkpt lat="46.05734" lon="6.27915">
        <ele>803.239</ele>
        <time>2021-02-23T15:37:35Z</time>
      </trkpt>
      <trkpt lat="46.05721" lon="6.2791">
        <ele>803.183</ele>
        <time>2021-02-23T15:37:36Z</time>
      </trkpt>
      <trkpt lat="46.0571" lon="6.27906">
        <ele>803.027</ele>
        <time>2021-02-23T15:37:37Z</time>
      </trkpt>
      <trkpt lat="46.057" lon="6.27903">
        <ele>802.921</ele>
        <time>2021-02-23T15:37:38Z</time>
      </trkpt>
      <trkpt lat="46.05692" lon="6.27901">
        <ele>802.941</ele>
        <time>2021-02-23T15:37:39Z</time>
      </trkpt>
      <trkpt lat="46.05684" lon="6.27901">
        <ele>802.805</ele>
        <time>2021-02-23T15:37:40Z</time>
      </trkpt>
      <trkpt lat="46.05676" lon="6.279">
        <ele>802.808</ele>
        <time>2021-02-23T15:37:41Z</time>
      </trkpt>
      <trkpt lat="46.05669" lon="6.27898">
        <ele>802.838</ele>
        <time>2021-02-23T15:37:42Z</time>
      </trkpt>
      <trkpt lat="46.05663" lon="6.27894">
        <ele>802.829</ele>
        <time>2021-02-23T15:37:43Z</time>
      </trkpt>
      <trkpt lat="46.05656" lon="6.2789">
        <ele>802.82</ele>
        <time>2021-02-23T15:37:44Z</time>
      </trkpt>
      <trkpt lat="46.05648" lon="6.27885">
        <ele>802.913</ele>
        <time>2021-02-23T15:37:45Z</time>
      </trkpt>
      <trkpt lat="46.0564" lon="6.27881">
        <ele>802.946</ele>
        <time>2021-02-23T15:37:46Z</time>
      </trkpt>
      <trkpt lat="46.05632" lon="6.27878">
        <ele>802.999</ele>
        <time>2021-02-23T15:37:47Z</time>
      </trkpt>
      <trkpt lat="46.05625" lon="6.27873">
        <ele>802.993</ele>
        <time>2021-02-23T15:37:48Z</time>
      </trkpt>
      <trkpt lat="46.05619" lon="6.27868">
        <ele>803.047</ele>
        <time>2021-02-23T15:37:49Z</time>
      </trkpt>
      <trkpt lat="46.05615" lon="6.27861">
        <ele>803.136</ele>
        <time>2021-02-23T15:37:50Z</time>
      </trkpt>
      <trkpt lat="46.05612" lon="6.27856">
        <ele>803.317</ele>
        <time>2021-02-23T15:37:51Z</time>
      </trkpt>
      <trkpt lat="46.05605" lon="6.27848">
        <ele>803.818</ele>
        <time>2021-02-23T15:37:53Z</time>
      </trkpt>
      <trkpt lat="46.05598" lon="6.27857">
        <ele>804.308</ele>
        <time>2021-02-23T15:37:55Z</time>
      </trkpt>
      <trkpt lat="46.05599" lon="6.27865">
        <ele>804.369</ele>
        <time>2021-02-23T15:37:56Z</time>
      </trkpt>
      <trkpt lat="46.05601" lon="6.27875">
        <ele>804.36</ele>
        <time>2021-02-23T15:37:57Z</time>
      </trkpt>
      <trkpt lat="46.05604" lon="6.27885">
        <ele>804.181</ele>
        <time>2021-02-23T15:37:58Z</time>
      </trkpt>
      <trkpt lat="46.0561" lon="6.27896">
        <ele>803.784</ele>
        <time>2021-02-23T15:37:59Z</time>
      </trkpt>
      <trkpt lat="46.05618" lon="6.27909">
        <ele>803.227</ele>
        <time>2021-02-23T15:38:00Z</time>
      </trkpt>
      <trkpt lat="46.05624" lon="6.27921">
        <ele>802.62</ele>
        <time>2021-02-23T15:38:01Z</time>
      </trkpt>
      <trkpt lat="46.05631" lon="6.27933">
        <ele>802.194</ele>
        <time>2021-02-23T15:38:02Z</time>
      </trkpt>
      <trkpt lat="46.05637" lon="6.27948">
        <ele>801.548</ele>
        <time>2021-02-23T15:38:03Z</time>
      </trkpt>
      <trkpt lat="46.05645" lon="6.27962">
        <ele>801.068</ele>
        <time>2021-02-23T15:38:04Z</time>
      </trkpt>
      <trkpt lat="46.05652" lon="6.27978">
        <ele>800.542</ele>
        <time>2021-02-23T15:38:05Z</time>
      </trkpt>
      <trkpt lat="46.05659" lon="6.27992">
        <ele>799.926</ele>
        <time>2021-02-23T15:38:06Z</time>
      </trkpt>
      <trkpt lat="46.05665" lon="6.28005">
        <ele>799.108</ele>
        <time>2021-02-23T15:38:07Z</time>
      </trkpt>
      <trkpt lat="46.05672" lon="6.28017">
        <ele>798.482</ele>
        <time>2021-02-23T15:38:08Z</time>
      </trkpt>
      <trkpt lat="46.0568" lon="6.28027">
        <ele>797.753</ele>
        <time>2021-02-23T15:38:09Z</time>
      </trkpt>
      <trkpt lat="46.05688" lon="6.28037">
        <ele>797.024</ele>
        <time>2021-02-23T15:38:10Z</time>
      </trkpt>
      <trkpt lat="46.05697" lon="6.28046">
        <ele>796.387</ele>
        <time>2021-02-23T15:38:11Z</time>
      </trkpt>
      <trkpt lat="46.05707" lon="6.28055">
        <ele>795.88</ele>
        <time>2021-02-23T15:38:12Z</time>
      </trkpt>
      <trkpt lat="46.05716" lon="6.28064">
        <ele>795.333</ele>
        <time>2021-02-23T15:38:13Z</time>
      </trkpt>
      <trkpt lat="46.05726" lon="6.28072">
        <ele>794.917</ele>
        <time>2021-02-23T15:38:14Z</time>
      </trkpt>
      <trkpt lat="46.05736" lon="6.28081">
        <ele>794.491</ele>
        <time>2021-02-23T15:38:15Z</time>
      </trkpt>
      <trkpt lat="46.05746" lon="6.28092">
        <ele>793.973</ele>
        <time>2021-02-23T15:38:16Z</time>
      </trkpt>
      <trkpt lat="46.05757" lon="6.28104">
        <ele>793.385</ele>
        <time>2021-02-23T15:38:17Z</time>
      </trkpt>
      <trkpt lat="46.05767" lon="6.28118">
        <ele>792.813</ele>
        <time>2021-02-23T15:38:18Z</time>
      </trkpt>
      <trkpt lat="46.05777" lon="6.28133">
        <ele>792.108</ele>
        <time>2021-02-23T15:38:19Z</time>
      </trkpt>
      <trkpt lat="46.05786" lon="6.28147">
        <ele>791.133</ele>
        <time>2021-02-23T15:38:20Z</time>
      </trkpt>
      <trkpt lat="46.05795" lon="6.28161">
        <ele>790.184</ele>
        <time>2021-02-23T15:38:21Z</time>
      </trkpt>
      <trkpt lat="46.05804" lon="6.28173">
        <ele>789.265</ele>
        <time>2021-02-23T15:38:22Z</time>
      </trkpt>
      <trkpt lat="46.05811" lon="6.28185">
        <ele>787.978</ele>
        <time>2021-02-23T15:38:23Z</time>
      </trkpt>
      <trkpt lat="46.05817" lon="6.28199">
        <ele>786.641</ele>
        <time>2021-02-23T15:38:24Z</time>
      </trkpt>
      <trkpt lat="46.05818" lon="6.28212">
        <ele>785.674</ele>
        <time>2021-02-23T15:38:25Z</time>
      </trkpt>
      <trkpt lat="46.05814" lon="6.2822">
        <ele>784.658</ele>
        <time>2021-02-23T15:38:26Z</time>
      </trkpt>
      <trkpt lat="46.05806" lon="6.28227">
        <ele>783.412</ele>
        <time>2021-02-23T15:38:27Z</time>
      </trkpt>
      <trkpt lat="46.05797" lon="6.28231">
        <ele>782.599</ele>
        <time>2021-02-23T15:38:28Z</time>
      </trkpt>
      <trkpt lat="46.05786" lon="6.2823">
        <ele>781.807</ele>
        <time>2021-02-23T15:38:29Z</time>
      </trkpt>
      <trkpt lat="46.05774" lon="6.2823">
        <ele>781.127</ele>
        <time>2021-02-23T15:38:30Z</time>
      </trkpt>
      <trkpt lat="46.05759" lon="6.28226">
        <ele>780.308</ele>
        <time>2021-02-23T15:38:31Z</time>
      </trkpt>
      <trkpt lat="46.05747" lon="6.28223">
        <ele>779.715</ele>
        <time>2021-02-23T15:38:32Z</time>
      </trkpt>
      <trkpt lat="46.05736" lon="6.28222">
        <ele>779.026</ele>
        <time>2021-02-23T15:38:33Z</time>
      </trkpt>
      <trkpt lat="46.05725" lon="6.28221">
        <ele>778.347</ele>
        <time>2021-02-23T15:38:34Z</time>
      </trkpt>
      <trkpt lat="46.05715" lon="6.28219">
        <ele>777.57</ele>
        <time>2021-02-23T15:38:35Z</time>
      </trkpt>
      <trkpt lat="46.05704" lon="6.28216">
        <ele>776.773</ele>
        <time>2021-02-23T15:38:36Z</time>
      </trkpt>
      <trkpt lat="46.05692" lon="6.28215">
        <ele>775.846</ele>
        <time>2021-02-23T15:38:37Z</time>
      </trkpt>
      <trkpt lat="46.05681" lon="6.28213">
        <ele>775.08</ele>
        <time>2021-02-23T15:38:38Z</time>
      </trkpt>
      <trkpt lat="46.0567" lon="6.28211">
        <ele>774.214</ele>
        <time>2021-02-23T15:38:39Z</time>
      </trkpt>
      <trkpt lat="46.05661" lon="6.28214">
        <ele>773.393</ele>
        <time>2021-02-23T15:38:40Z</time>
      </trkpt>
      <trkpt lat="46.05653" lon="6.28218">
        <ele>772.565</ele>
        <time>2021-02-23T15:38:41Z</time>
      </trkpt>
      <trkpt lat="46.05648" lon="6.28229">
        <ele>771.721</ele>
        <time>2021-02-23T15:38:42Z</time>
      </trkpt>
      <trkpt lat="46.05649" lon="6.28238">
        <ele>770.908</ele>
        <time>2021-02-23T15:38:43Z</time>
      </trkpt>
      <trkpt lat="46.05651" lon="6.28246">
        <ele>770.145</ele>
        <time>2021-02-23T15:38:44Z</time>
      </trkpt>
      <trkpt lat="46.05656" lon="6.28254">
        <ele>769.556</ele>
        <time>2021-02-23T15:38:45Z</time>
      </trkpt>
      <trkpt lat="46.0566" lon="6.28261">
        <ele>769.077</ele>
        <time>2021-02-23T15:38:46Z</time>
      </trkpt>
      <trkpt lat="46.05667" lon="6.28265">
        <ele>768.67</ele>
        <time>2021-02-23T15:38:47Z</time>
      </trkpt>
      <trkpt lat="46.05674" lon="6.2827">
        <ele>768.133</ele>
        <time>2021-02-23T15:38:48Z</time>
      </trkpt>
      <trkpt lat="46.05682" lon="6.28275">
        <ele>767.676</ele>
        <time>2021-02-23T15:38:49Z</time>
      </trkpt>
      <trkpt lat="46.05692" lon="6.28282">
        <ele>767.05</ele>
        <time>2021-02-23T15:38:50Z</time>
      </trkpt>
      <trkpt lat="46.057" lon="6.28291">
        <ele>766.164</ele>
        <time>2021-02-23T15:38:51Z</time>
      </trkpt>
      <trkpt lat="46.05706" lon="6.283">
        <ele>765.144</ele>
        <time>2021-02-23T15:38:52Z</time>
      </trkpt>
      <trkpt lat="46.05707" lon="6.28315">
        <ele>764.205</ele>
        <time>2021-02-23T15:38:53Z</time>
      </trkpt>
      <trkpt lat="46.05706" lon="6.28327">
        <ele>763.415</ele>
        <time>2021-02-23T15:38:54Z</time>
      </trkpt>
      <trkpt lat="46.05705" lon="6.28342">
        <ele>762.708</ele>
        <time>2021-02-23T15:38:55Z</time>
      </trkpt>
      <trkpt lat="46.05702" lon="6.28361">
        <ele>762.26</ele>
        <time>2021-02-23T15:38:56Z</time>
      </trkpt>
      <trkpt lat="46.05698" lon="6.28376">
        <ele>761.791</ele>
        <time>2021-02-23T15:38:57Z</time>
      </trkpt>
      <trkpt lat="46.05692" lon="6.2839">
        <ele>761.162</ele>
        <time>2021-02-23T15:38:58Z</time>
      </trkpt>
      <trkpt lat="46.05686" lon="6.28403">
        <ele>760.335</ele>
        <time>2021-02-23T15:38:59Z</time>
      </trkpt>
      <trkpt lat="46.05679" lon="6.28417">
        <ele>759.518</ele>
        <time>2021-02-23T15:39:00Z</time>
      </trkpt>
      <trkpt lat="46.05673" lon="6.2843">
        <ele>758.531</ele>
        <time>2021-02-23T15:39:01Z</time>
      </trkpt>
      <trkpt lat="46.05666" lon="6.28443">
        <ele>757.495</ele>
        <time>2021-02-23T15:39:02Z</time>
      </trkpt>
      <trkpt lat="46.0566" lon="6.28456">
        <ele>756.329</ele>
        <time>2021-02-23T15:39:03Z</time>
      </trkpt>
      <trkpt lat="46.05654" lon="6.28466">
        <ele>755.359</ele>
        <time>2021-02-23T15:39:04Z</time>
      </trkpt>
      <trkpt lat="46.0565" lon="6.28473">
        <ele>754.203</ele>
        <time>2021-02-23T15:39:05Z</time>
      </trkpt>
      <trkpt lat="46.05645" lon="6.28466">
        <ele>751.023</ele>
        <time>2021-02-23T15:39:09Z</time>
      </trkpt>
      <trkpt lat="46.05641" lon="6.28456">
        <ele>750.708</ele>
        <time>2021-02-23T15:39:10Z</time>
      </trkpt>
      <trkpt lat="46.05637" lon="6.28445">
        <ele>750.721</ele>
        <time>2021-02-23T15:39:11Z</time>
      </trkpt>
      <trkpt lat="46.05633" lon="6.28436">
        <ele>751.062</ele>
        <time>2021-02-23T15:39:12Z</time>
      </trkpt>
      <trkpt lat="46.05629" lon="6.28425">
        <ele>751.563</ele>
        <time>2021-02-23T15:39:13Z</time>
      </trkpt>
      <trkpt lat="46.05625" lon="6.28416">
        <ele>752.236</ele>
        <time>2021-02-23T15:39:14Z</time>
      </trkpt>
      <trkpt lat="46.05622" lon="6.28407">
        <ele>752.979</ele>
        <time>2021-02-23T15:39:15Z</time>
      </trkpt>
      <trkpt lat="46.05619" lon="6.28398">
        <ele>753.692</ele>
        <time>2021-02-23T15:39:16Z</time>
      </trkpt>
      <trkpt lat="46.05615" lon="6.2839">
        <ele>754.326</ele>
        <time>2021-02-23T15:39:17Z</time>
      </trkpt>
      <trkpt lat="46.05611" lon="6.28381">
        <ele>755.01</ele>
        <time>2021-02-23T15:39:18Z</time>
      </trkpt>
      <trkpt lat="46.05607" lon="6.28372">
        <ele>755.697</ele>
        <time>2021-02-23T15:39:19Z</time>
      </trkpt>
      <trkpt lat="46.05602" lon="6.28362">
        <ele>756.123</ele>
        <time>2021-02-23T15:39:20Z</time>
      </trkpt>
      <trkpt lat="46.05597" lon="6.28351">
        <ele>756.725</ele>
        <time>2021-02-23T15:39:21Z</time>
      </trkpt>
      <trkpt lat="46.05592" lon="6.28339">
        <ele>757.308</ele>
        <time>2021-02-23T15:39:22Z</time>
      </trkpt>
      <trkpt lat="46.05588" lon="6.28327">
        <ele>757.885</ele>
        <time>2021-02-23T15:39:23Z</time>
      </trkpt>
      <trkpt lat="46.05584" lon="6.28316">
        <ele>758.376</ele>
        <time>2021-02-23T15:39:24Z</time>
      </trkpt>
      <trkpt lat="46.05579" lon="6.28306">
        <ele>758.727</ele>
        <time>2021-02-23T15:39:25Z</time>
      </trkpt>
      <trkpt lat="46.05575" lon="6.28296">
        <ele>759.01</ele>
        <time>2021-02-23T15:39:26Z</time>
      </trkpt>
      <trkpt lat="46.0557" lon="6.28287">
        <ele>759.283</ele>
        <time>2021-02-23T15:39:27Z</time>
      </trkpt>
      <trkpt lat="46.05566" lon="6.28277">
        <ele>759.366</ele>
        <time>2021-02-23T15:39:28Z</time>
      </trkpt>
      <trkpt lat="46.05562" lon="6.28268">
        <ele>759.45</ele>
        <time>2021-02-23T15:39:29Z</time>
      </trkpt>
      <trkpt lat="46.05558" lon="6.28258">
        <ele>759.674</ele>
        <time>2021-02-23T15:39:30Z</time>
      </trkpt>
      <trkpt lat="46.05555" lon="6.28249">
        <ele>759.828</ele>
        <time>2021-02-23T15:39:31Z</time>
      </trkpt>
      <trkpt lat="46.05552" lon="6.28239">
        <ele>759.989</ele>
        <time>2021-02-23T15:39:32Z</time>
      </trkpt>
      <trkpt lat="46.05548" lon="6.28229">
        <ele>760.117</ele>
        <time>2021-02-23T15:39:33Z</time>
      </trkpt>
      <trkpt lat="46.05545" lon="6.28219">
        <ele>760.208</ele>
        <time>2021-02-23T15:39:34Z</time>
      </trkpt>
      <trkpt lat="46.05542" lon="6.28209">
        <ele>760.338</ele>
        <time>2021-02-23T15:39:35Z</time>
      </trkpt>
      <trkpt lat="46.05539" lon="6.28199">
        <ele>760.499</ele>
        <time>2021-02-23T15:39:36Z</time>
      </trkpt>
      <trkpt lat="46.05536" lon="6.28191">
        <ele>760.49</ele>
        <time>2021-02-23T15:39:37Z</time>
      </trkpt>
      <trkpt lat="46.05532" lon="6.28201">
        <ele>759.793</ele>
        <time>2021-02-23T15:39:54Z</time>
      </trkpt>
      <trkpt lat="46.05534" lon="6.28208">
        <ele>759.656</ele>
        <time>2021-02-23T15:39:55Z</time>
      </trkpt>
      <trkpt lat="46.05538" lon="6.28216">
        <ele>759.579</ele>
        <time>2021-02-23T15:39:56Z</time>
      </trkpt>
      <trkpt lat="46.05544" lon="6.28227">
        <ele>759.433</ele>
        <time>2021-02-23T15:39:57Z</time>
      </trkpt>
      <trkpt lat="46.05552" lon="6.28242">
        <ele>759.367</ele>
        <time>2021-02-23T15:39:58Z</time>
      </trkpt>
      <trkpt lat="46.0556" lon="6.28258">
        <ele>759.048</ele>
        <time>2021-02-23T15:39:59Z</time>
      </trkpt>
      <trkpt lat="46.05568" lon="6.28276">
        <ele>758.861</ele>
        <time>2021-02-23T15:40:00Z</time>
      </trkpt>
      <trkpt lat="46.05575" lon="6.28295">
        <ele>758.517</ele>
        <time>2021-02-23T15:40:01Z</time>
      </trkpt>
      <trkpt lat="46.05584" lon="6.2832">
        <ele>758.108</ele>
        <time>2021-02-23T15:40:02Z</time>
      </trkpt>
      <trkpt lat="46.05594" lon="6.28343">
        <ele>757.77</ele>
        <time>2021-02-23T15:40:03Z</time>
      </trkpt>
      <trkpt lat="46.05603" lon="6.28365">
        <ele>757.571</ele>
        <time>2021-02-23T15:40:04Z</time>
      </trkpt>
      <trkpt lat="46.05612" lon="6.28384">
        <ele>757.562</ele>
        <time>2021-02-23T15:40:05Z</time>
      </trkpt>
      <trkpt lat="46.05619" lon="6.28401">
        <ele>757.395</ele>
        <time>2021-02-23T15:40:06Z</time>
      </trkpt>
      <trkpt lat="46.05626" lon="6.28416">
        <ele>757.168</ele>
        <time>2021-02-23T15:40:07Z</time>
      </trkpt>
      <trkpt lat="46.05632" lon="6.28429">
        <ele>756.731</ele>
        <time>2021-02-23T15:40:08Z</time>
      </trkpt>
      <trkpt lat="46.05637" lon="6.28441">
        <ele>756.185</ele>
        <time>2021-02-23T15:40:09Z</time>
      </trkpt>
      <trkpt lat="46.05641" lon="6.28452">
        <ele>755.529</ele>
        <time>2021-02-23T15:40:10Z</time>
      </trkpt>
      <trkpt lat="46.05646" lon="6.2846">
        <ele>754.846</ele>
        <time>2021-02-23T15:40:11Z</time>
      </trkpt>
      <trkpt lat="46.05649" lon="6.28467">
        <ele>754.288</ele>
        <time>2021-02-23T15:40:12Z</time>
      </trkpt>
      <trkpt lat="46.0565" lon="6.28477">
        <ele>753.516</ele>
        <time>2021-02-23T15:40:13Z</time>
      </trkpt>
      <trkpt lat="46.05647" lon="6.28483">
        <ele>752.908</ele>
        <time>2021-02-23T15:40:14Z</time>
      </trkpt>
      <trkpt lat="46.05643" lon="6.28491">
        <ele>752.17</ele>
        <time>2021-02-23T15:40:15Z</time>
      </trkpt>
      <trkpt lat="46.05638" lon="6.28497">
        <ele>751.461</ele>
        <time>2021-02-23T15:40:16Z</time>
      </trkpt>
      <trkpt lat="46.05635" lon="6.28504">
        <ele>750.182</ele>
        <time>2021-02-23T15:40:18Z</time>
      </trkpt>
      <trkpt lat="46.05641" lon="6.28513">
        <ele>749.315</ele>
        <time>2021-02-23T15:40:20Z</time>
      </trkpt>
      <trkpt lat="46.0565" lon="6.28515">
        <ele>749.058</ele>
        <time>2021-02-23T15:40:21Z</time>
      </trkpt>
      <trkpt lat="46.05657" lon="6.2852">
        <ele>748.821</ele>
        <time>2021-02-23T15:40:22Z</time>
      </trkpt>
      <trkpt lat="46.05668" lon="6.28526">
        <ele>748.885</ele>
        <time>2021-02-23T15:40:23Z</time>
      </trkpt>
      <trkpt lat="46.05678" lon="6.28535">
        <ele>748.889</ele>
        <time>2021-02-23T15:40:24Z</time>
      </trkpt>
      <trkpt lat="46.05689" lon="6.28544">
        <ele>749.088</ele>
        <time>2021-02-23T15:40:25Z</time>
      </trkpt>
      <trkpt lat="46.05699" lon="6.28555">
        <ele>749.224</ele>
        <time>2021-02-23T15:40:26Z</time>
      </trkpt>
      <trkpt lat="46.0571" lon="6.28566">
        <ele>749.426</ele>
        <time>2021-02-23T15:40:27Z</time>
      </trkpt>
      <trkpt lat="46.0572" lon="6.28578">
        <ele>749.508</ele>
        <time>2021-02-23T15:40:28Z</time>
      </trkpt>
      <trkpt lat="46.0573" lon="6.28589">
        <ele>749.554</ele>
        <time>2021-02-23T15:40:29Z</time>
      </trkpt>
      <trkpt lat="46.05739" lon="6.28598">
        <ele>749.285</ele>
        <time>2021-02-23T15:40:30Z</time>
      </trkpt>
      <trkpt lat="46.05749" lon="6.28605">
        <ele>748.566</ele>
        <time>2021-02-23T15:40:31Z</time>
      </trkpt>
      <trkpt lat="46.05759" lon="6.28614">
        <ele>747.989</ele>
        <time>2021-02-23T15:40:32Z</time>
      </trkpt>
      <trkpt lat="46.05768" lon="6.28622">
        <ele>747.222</ele>
        <time>2021-02-23T15:40:33Z</time>
      </trkpt>
      <trkpt lat="46.05777" lon="6.28631">
        <ele>746.575</ele>
        <time>2021-02-23T15:40:34Z</time>
      </trkpt>
      <trkpt lat="46.05787" lon="6.28639">
        <ele>745.829</ele>
        <time>2021-02-23T15:40:35Z</time>
      </trkpt>
      <trkpt lat="46.05797" lon="6.28647">
        <ele>745.453</ele>
        <time>2021-02-23T15:40:36Z</time>
      </trkpt>
      <trkpt lat="46.05807" lon="6.28656">
        <ele>745.024</ele>
        <time>2021-02-23T15:40:37Z</time>
      </trkpt>
      <trkpt lat="46.05817" lon="6.28665">
        <ele>744.404</ele>
        <time>2021-02-23T15:40:38Z</time>
      </trkpt>
      <trkpt lat="46.05825" lon="6.28675">
        <ele>743.814</ele>
        <time>2021-02-23T15:40:39Z</time>
      </trkpt>
      <trkpt lat="46.05834" lon="6.28685">
        <ele>743.408</ele>
        <time>2021-02-23T15:40:40Z</time>
      </trkpt>
      <trkpt lat="46.05842" lon="6.28694">
        <ele>742.978</ele>
        <time>2021-02-23T15:40:41Z</time>
      </trkpt>
      <trkpt lat="46.0585" lon="6.28702">
        <ele>742.519</ele>
        <time>2021-02-23T15:40:42Z</time>
      </trkpt>
      <trkpt lat="46.05857" lon="6.28708">
        <ele>742.14</ele>
        <time>2021-02-23T15:40:43Z</time>
      </trkpt>
      <trkpt lat="46.05862" lon="6.28714">
        <ele>741.773</ele>
        <time>2021-02-23T15:40:44Z</time>
      </trkpt>
      <trkpt lat="46.05867" lon="6.28718">
        <ele>741.396</ele>
        <time>2021-02-23T15:40:45Z</time>
      </trkpt>
      <trkpt lat="46.05871" lon="6.28723">
        <ele>740.319</ele>
        <time>2021-02-23T15:40:47Z</time>
      </trkpt>
      <trkpt lat="46.05876" lon="6.28727">
        <ele>738.763</ele>
        <time>2021-02-23T15:40:50Z</time>
      </trkpt>
      <trkpt lat="46.05871" lon="6.28721">
        <ele>735.447</ele>
        <time>2021-02-23T15:41:00Z</time>
      </trkpt>
      <trkpt lat="46.05866" lon="6.28716">
        <ele>735.768</ele>
        <time>2021-02-23T15:41:01Z</time>
      </trkpt>
      <trkpt lat="46.0586" lon="6.28711">
        <ele>736.342</ele>
        <time>2021-02-23T15:41:02Z</time>
      </trkpt>
      <trkpt lat="46.05853" lon="6.28704">
        <ele>737.126</ele>
        <time>2021-02-23T15:41:03Z</time>
      </trkpt>
      <trkpt lat="46.05844" lon="6.28697">
        <ele>738.008</ele>
        <time>2021-02-23T15:41:04Z</time>
      </trkpt>
      <trkpt lat="46.05835" lon="6.28687">
        <ele>738.982</ele>
        <time>2021-02-23T15:41:05Z</time>
      </trkpt>
      <trkpt lat="46.05825" lon="6.28677">
        <ele>739.583</ele>
        <time>2021-02-23T15:41:06Z</time>
      </trkpt>
      <trkpt lat="46.05815" lon="6.28668">
        <ele>740.154</ele>
        <time>2021-02-23T15:41:07Z</time>
      </trkpt>
      <trkpt lat="46.05804" lon="6.28657">
        <ele>740.527</ele>
        <time>2021-02-23T15:41:08Z</time>
      </trkpt>
      <trkpt lat="46.05792" lon="6.28646">
        <ele>740.84</ele>
        <time>2021-02-23T15:41:09Z</time>
      </trkpt>
      <trkpt lat="46.05778" lon="6.28636">
        <ele>741.283</ele>
        <time>2021-02-23T15:41:10Z</time>
      </trkpt>
      <trkpt lat="46.05765" lon="6.28624">
        <ele>741.727</ele>
        <time>2021-02-23T15:41:11Z</time>
      </trkpt>
      <trkpt lat="46.05752" lon="6.28611">
        <ele>742.261</ele>
        <time>2021-02-23T15:41:12Z</time>
      </trkpt>
      <trkpt lat="46.05739" lon="6.28598">
        <ele>742.663</ele>
        <time>2021-02-23T15:41:13Z</time>
      </trkpt>
      <trkpt lat="46.05726" lon="6.28585">
        <ele>743.344</ele>
        <time>2021-02-23T15:41:14Z</time>
      </trkpt>
      <trkpt lat="46.05714" lon="6.28573">
        <ele>743.818</ele>
        <time>2021-02-23T15:41:15Z</time>
      </trkpt>
      <trkpt lat="46.05704" lon="6.28561">
        <ele>744.108</ele>
        <time>2021-02-23T15:41:16Z</time>
      </trkpt>
      <trkpt lat="46.05697" lon="6.28551">
        <ele>744.782</ele>
        <time>2021-02-23T15:41:17Z</time>
      </trkpt>
      <trkpt lat="46.05689" lon="6.28542">
        <ele>745.713</ele>
        <time>2021-02-23T15:41:18Z</time>
      </trkpt>
      <trkpt lat="46.05682" lon="6.28536">
        <ele>746.854</ele>
        <time>2021-02-23T15:41:19Z</time>
      </trkpt>
      <trkpt lat="46.05674" lon="6.2853">
        <ele>747.727</ele>
        <time>2021-02-23T15:41:20Z</time>
      </trkpt>
      <trkpt lat="46.05665" lon="6.28524">
        <ele>748.78</ele>
        <time>2021-02-23T15:41:21Z</time>
      </trkpt>
      <trkpt lat="46.05657" lon="6.2852">
        <ele>749.363</ele>
        <time>2021-02-23T15:41:22Z</time>
      </trkpt>
      <trkpt lat="46.05649" lon="6.28516">
        <ele>749.357</ele>
        <time>2021-02-23T15:41:23Z</time>
      </trkpt>
      <trkpt lat="46.05643" lon="6.28513">
        <ele>749.341</ele>
        <time>2021-02-23T15:41:24Z</time>
      </trkpt>
      <trkpt lat="46.05639" lon="6.2851">
        <ele>749.286</ele>
        <time>2021-02-23T15:41:25Z</time>
      </trkpt>
      <trkpt lat="46.05634" lon="6.28508">
        <ele>749.06</ele>
        <time>2021-02-23T15:41:26Z</time>
      </trkpt>
      <trkpt lat="46.05629" lon="6.28511">
        <ele>748.926</ele>
        <time>2021-02-23T15:41:27Z</time>
      </trkpt>
      <trkpt lat="46.05623" lon="6.28519">
        <ele>748.808</ele>
        <time>2021-02-23T15:41:28Z</time>
      </trkpt>
      <trkpt lat="46.05616" lon="6.28527">
        <ele>748.694</ele>
        <time>2021-02-23T15:41:29Z</time>
      </trkpt>
      <trkpt lat="46.05606" lon="6.28534">
        <ele>748.465</ele>
        <time>2021-02-23T15:41:30Z</time>
      </trkpt>
      <trkpt lat="46.05594" lon="6.28537">
        <ele>748.276</ele>
        <time>2021-02-23T15:41:31Z</time>
      </trkpt>
      <trkpt lat="46.05582" lon="6.28538">
        <ele>747.829</ele>
        <time>2021-02-23T15:41:32Z</time>
      </trkpt>
      <trkpt lat="46.05571" lon="6.28537">
        <ele>747.352</ele>
        <time>2021-02-23T15:41:33Z</time>
      </trkpt>
      <trkpt lat="46.0556" lon="6.28534">
        <ele>746.675</ele>
        <time>2021-02-23T15:41:34Z</time>
      </trkpt>
      <trkpt lat="46.0555" lon="6.28532">
        <ele>746.059</ele>
        <time>2021-02-23T15:41:35Z</time>
      </trkpt>
      <trkpt lat="46.05541" lon="6.28527">
        <ele>745.293</ele>
        <time>2021-02-23T15:41:36Z</time>
      </trkpt>
      <trkpt lat="46.05531" lon="6.28521">
        <ele>744.649</ele>
        <time>2021-02-23T15:41:37Z</time>
      </trkpt>
      <trkpt lat="46.05522" lon="6.28511">
        <ele>743.802</ele>
        <time>2021-02-23T15:41:38Z</time>
      </trkpt>
      <trkpt lat="46.05514" lon="6.28498">
        <ele>743.222</ele>
        <time>2021-02-23T15:41:39Z</time>
      </trkpt>
      <trkpt lat="46.05508" lon="6.28485">
        <ele>742.708</ele>
        <time>2021-02-23T15:41:40Z</time>
      </trkpt>
      <trkpt lat="46.05504" lon="6.28474">
        <ele>742.36</ele>
        <time>2021-02-23T15:41:41Z</time>
      </trkpt>
      <trkpt lat="46.05498" lon="6.28466">
        <ele>741.891</ele>
        <time>2021-02-23T15:41:42Z</time>
      </trkpt>
      <trkpt lat="46.05492" lon="6.28463">
        <ele>741.512</ele>
        <time>2021-02-23T15:41:43Z</time>
      </trkpt>
      <trkpt lat="46.05487" lon="6.28462">
        <ele>741.295</ele>
        <time>2021-02-23T15:41:44Z</time>
      </trkpt>
      <trkpt lat="46.05482" lon="6.28464">
        <ele>740.548</ele>
        <time>2021-02-23T15:41:46Z</time>
      </trkpt>
      <trkpt lat="46.05474" lon="6.28456">
        <ele>739.551</ele>
        <time>2021-02-23T15:41:53Z</time>
      </trkpt>
      <trkpt lat="46.05471" lon="6.28445">
        <ele>739.515</ele>
        <time>2021-02-23T15:41:54Z</time>
      </trkpt>
      <trkpt lat="46.05467" lon="6.28432">
        <ele>739.659</ele>
        <time>2021-02-23T15:41:55Z</time>
      </trkpt>
      <trkpt lat="46.05461" lon="6.28418">
        <ele>739.769</ele>
        <time>2021-02-23T15:41:56Z</time>
      </trkpt>
      <trkpt lat="46.05455" lon="6.28402">
        <ele>739.704</ele>
        <time>2021-02-23T15:41:57Z</time>
      </trkpt>
      <trkpt lat="46.05449" lon="6.28385">
        <ele>739.724</ele>
        <time>2021-02-23T15:41:58Z</time>
      </trkpt>
      <trkpt lat="46.05442" lon="6.28367">
        <ele>739.908</ele>
        <time>2021-02-23T15:41:59Z</time>
      </trkpt>
      <trkpt lat="46.05434" lon="6.28346">
        <ele>739.912</ele>
        <time>2021-02-23T15:42:00Z</time>
      </trkpt>
      <trkpt lat="46.05426" lon="6.28325">
        <ele>740.283</ele>
        <time>2021-02-23T15:42:01Z</time>
      </trkpt>
      <trkpt lat="46.05418" lon="6.28302">
        <ele>740.464</ele>
        <time>2021-02-23T15:42:02Z</time>
      </trkpt>
      <trkpt lat="46.0541" lon="6.28279">
        <ele>740.597</ele>
        <time>2021-02-23T15:42:03Z</time>
      </trkpt>
      <trkpt lat="46.05401" lon="6.28256">
        <ele>740.86</ele>
        <time>2021-02-23T15:42:04Z</time>
      </trkpt>
      <trkpt lat="46.05393" lon="6.28234">
        <ele>740.943</ele>
        <time>2021-02-23T15:42:05Z</time>
      </trkpt>
      <trkpt lat="46.05385" lon="6.28212">
        <ele>741.427</ele>
        <time>2021-02-23T15:42:06Z</time>
      </trkpt>
      <trkpt lat="46.05377" lon="6.28191">
        <ele>742.141</ele>
        <time>2021-02-23T15:42:07Z</time>
      </trkpt>
      <trkpt lat="46.05369" lon="6.28169">
        <ele>743.025</ele>
        <time>2021-02-23T15:42:08Z</time>
      </trkpt>
      <trkpt lat="46.05362" lon="6.28146">
        <ele>743.926</ele>
        <time>2021-02-23T15:42:09Z</time>
      </trkpt>
      <trkpt lat="46.05354" lon="6.28123">
        <ele>745.108</ele>
        <time>2021-02-23T15:42:10Z</time>
      </trkpt>
      <trkpt lat="46.05346" lon="6.28102">
        <ele>745.908</ele>
        <time>2021-02-23T15:42:11Z</time>
      </trkpt>
      <trkpt lat="46.05338" lon="6.28079">
        <ele>746.768</ele>
        <time>2021-02-23T15:42:12Z</time>
      </trkpt>
      <trkpt lat="46.0533" lon="6.28056">
        <ele>747.359</ele>
        <time>2021-02-23T15:42:13Z</time>
      </trkpt>
      <trkpt lat="46.05321" lon="6.28033">
        <ele>747.75</ele>
        <time>2021-02-23T15:42:14Z</time>
      </trkpt>
      <trkpt lat="46.05314" lon="6.2801">
        <ele>748.133</ele>
        <time>2021-02-23T15:42:15Z</time>
      </trkpt>
      <trkpt lat="46.05306" lon="6.27986">
        <ele>748.356</ele>
        <time>2021-02-23T15:42:16Z</time>
      </trkpt>
      <trkpt lat="46.05298" lon="6.27963">
        <ele>748.419</ele>
        <time>2021-02-23T15:42:17Z</time>
      </trkpt>
      <trkpt lat="46.0529" lon="6.27939">
        <ele>748.713</ele>
        <time>2021-02-23T15:42:18Z</time>
      </trkpt>
      <trkpt lat="46.05282" lon="6.27914">
        <ele>749.087</ele>
        <time>2021-02-23T15:42:19Z</time>
      </trkpt>
      <trkpt lat="46.05273" lon="6.27889">
        <ele>749.157</ele>
        <time>2021-02-23T15:42:20Z</time>
      </trkpt>
      <trkpt lat="46.05265" lon="6.27864">
        <ele>749.2</ele>
        <time>2021-02-23T15:42:21Z</time>
      </trkpt>
      <trkpt lat="46.05256" lon="6.27838">
        <ele>749.42</ele>
        <time>2021-02-23T15:42:22Z</time>
      </trkpt>
      <trkpt lat="46.05247" lon="6.27811">
        <ele>749.708</ele>
        <time>2021-02-23T15:42:23Z</time>
      </trkpt>
      <trkpt lat="46.05238" lon="6.27785">
        <ele>749.941</ele>
        <time>2021-02-23T15:42:24Z</time>
      </trkpt>
      <trkpt lat="46.05229" lon="6.27759">
        <ele>750.392</ele>
        <time>2021-02-23T15:42:25Z</time>
      </trkpt>
      <trkpt lat="46.0522" lon="6.27733">
        <ele>750.763</ele>
        <time>2021-02-23T15:42:26Z</time>
      </trkpt>
      <trkpt lat="46.05212" lon="6.27708">
        <ele>751.156</ele>
        <time>2021-02-23T15:42:27Z</time>
      </trkpt>
      <trkpt lat="46.05203" lon="6.27683">
        <ele>751.589</ele>
        <time>2021-02-23T15:42:28Z</time>
      </trkpt>
      <trkpt lat="46.05195" lon="6.27657">
        <ele>752.062</ele>
        <time>2021-02-23T15:42:29Z</time>
      </trkpt>
      <trkpt lat="46.05188" lon="6.27631">
        <ele>752.666</ele>
        <time>2021-02-23T15:42:30Z</time>
      </trkpt>
      <trkpt lat="46.05181" lon="6.27605">
        <ele>753.15</ele>
        <time>2021-02-23T15:42:31Z</time>
      </trkpt>
      <trkpt lat="46.05174" lon="6.27578">
        <ele>754.098</ele>
        <time>2021-02-23T15:42:32Z</time>
      </trkpt>
      <trkpt lat="46.05168" lon="6.27551">
        <ele>754.415</ele>
        <time>2021-02-23T15:42:33Z</time>
      </trkpt>
      <trkpt lat="46.05163" lon="6.27524">
        <ele>754.826</ele>
        <time>2021-02-23T15:42:34Z</time>
      </trkpt>
      <trkpt lat="46.05158" lon="6.27496">
        <ele>755.208</ele>
        <time>2021-02-23T15:42:35Z</time>
      </trkpt>
      <trkpt lat="46.05153" lon="6.27468">
        <ele>755.495</ele>
        <time>2021-02-23T15:42:36Z</time>
      </trkpt>
      <trkpt lat="46.05147" lon="6.2744">
        <ele>755.736</ele>
        <time>2021-02-23T15:42:37Z</time>
      </trkpt>
      <trkpt lat="46.05143" lon="6.27412">
        <ele>756.147</ele>
        <time>2021-02-23T15:42:38Z</time>
      </trkpt>
      <trkpt lat="46.0514" lon="6.27383">
        <ele>756.25</ele>
        <time>2021-02-23T15:42:39Z</time>
      </trkpt>
      <trkpt lat="46.05137" lon="6.27354">
        <ele>756.963</ele>
        <time>2021-02-23T15:42:40Z</time>
      </trkpt>
      <trkpt lat="46.05135" lon="6.27326">
        <ele>757.476</ele>
        <time>2021-02-23T15:42:41Z</time>
      </trkpt>
      <trkpt lat="46.05133" lon="6.273">
        <ele>758.19</ele>
        <time>2021-02-23T15:42:42Z</time>
      </trkpt>
      <trkpt lat="46.05132" lon="6.27271">
        <ele>758.854</ele>
        <time>2021-02-23T15:42:43Z</time>
      </trkpt>
      <trkpt lat="46.0513" lon="6.27243">
        <ele>759.874</ele>
        <time>2021-02-23T15:42:44Z</time>
      </trkpt>
      <trkpt lat="46.05129" lon="6.27215">
        <ele>760.656</ele>
        <time>2021-02-23T15:42:45Z</time>
      </trkpt>
      <trkpt lat="46.05129" lon="6.27186">
        <ele>761.721</ele>
        <time>2021-02-23T15:42:46Z</time>
      </trkpt>
      <trkpt lat="46.05129" lon="6.27157">
        <ele>762.708</ele>
        <time>2021-02-23T15:42:47Z</time>
      </trkpt>
      <trkpt lat="46.05129" lon="6.27128">
        <ele>763.583</ele>
        <time>2021-02-23T15:42:48Z</time>
      </trkpt>
      <trkpt lat="46.05131" lon="6.27101">
        <ele>764.614</ele>
        <time>2021-02-23T15:42:49Z</time>
      </trkpt>
      <trkpt lat="46.05132" lon="6.27074">
        <ele>765.425</ele>
        <time>2021-02-23T15:42:50Z</time>
      </trkpt>
      <trkpt lat="46.05134" lon="6.27045">
        <ele>766.348</ele>
        <time>2021-02-23T15:42:51Z</time>
      </trkpt>
      <trkpt lat="46.05137" lon="6.27015">
        <ele>767.081</ele>
        <time>2021-02-23T15:42:52Z</time>
      </trkpt>
      <trkpt lat="46.0514" lon="6.26986">
        <ele>767.734</ele>
        <time>2021-02-23T15:42:53Z</time>
      </trkpt>
      <trkpt lat="46.05143" lon="6.26959">
        <ele>768.378</ele>
        <time>2021-02-23T15:42:54Z</time>
      </trkpt>
      <trkpt lat="46.05146" lon="6.26932">
        <ele>769.052</ele>
        <time>2021-02-23T15:42:55Z</time>
      </trkpt>
      <trkpt lat="46.05149" lon="6.26904">
        <ele>769.399</ele>
        <time>2021-02-23T15:42:56Z</time>
      </trkpt>
      <trkpt lat="46.05152" lon="6.26876">
        <ele>769.807</ele>
        <time>2021-02-23T15:42:57Z</time>
      </trkpt>
      <trkpt lat="46.05154" lon="6.26848">
        <ele>770.127</ele>
        <time>2021-02-23T15:42:58Z</time>
      </trkpt>
      <trkpt lat="46.05154" lon="6.26819">
        <ele>770.308</ele>
        <time>2021-02-23T15:42:59Z</time>
      </trkpt>
      <trkpt lat="46.05153" lon="6.26791">
        <ele>770.725</ele>
        <time>2021-02-23T15:43:00Z</time>
      </trkpt>
      <trkpt lat="46.0515" lon="6.26764">
        <ele>771.316</ele>
        <time>2021-02-23T15:43:01Z</time>
      </trkpt>
      <trkpt lat="46.05146" lon="6.26737">
        <ele>771.787</ele>
        <time>2021-02-23T15:43:02Z</time>
      </trkpt>
      <trkpt lat="46.05141" lon="6.2671">
        <ele>772.22</ele>
        <time>2021-02-23T15:43:03Z</time>
      </trkpt>
      <trkpt lat="46.05134" lon="6.26684">
        <ele>772.543</ele>
        <time>2021-02-23T15:43:04Z</time>
      </trkpt>
      <trkpt lat="46.05127" lon="6.26659">
        <ele>772.616</ele>
        <time>2021-02-23T15:43:05Z</time>
      </trkpt>
      <trkpt lat="46.05118" lon="6.26635">
        <ele>772.74</ele>
        <time>2021-02-23T15:43:06Z</time>
      </trkpt>
      <trkpt lat="46.05108" lon="6.26611">
        <ele>772.944</ele>
        <time>2021-02-23T15:43:07Z</time>
      </trkpt>
      <trkpt lat="46.05096" lon="6.26589">
        <ele>773.273</ele>
        <time>2021-02-23T15:43:08Z</time>
      </trkpt>
      <trkpt lat="46.05082" lon="6.26568">
        <ele>773.885</ele>
        <time>2021-02-23T15:43:09Z</time>
      </trkpt>
      <trkpt lat="46.05069" lon="6.26548">
        <ele>774.513</ele>
        <time>2021-02-23T15:43:10Z</time>
      </trkpt>
      <trkpt lat="46.05055" lon="6.26531">
        <ele>775.408</ele>
        <time>2021-02-23T15:43:11Z</time>
      </trkpt>
      <trkpt lat="46.0504" lon="6.26513">
        <ele>776.293</ele>
        <time>2021-02-23T15:43:12Z</time>
      </trkpt>
      <trkpt lat="46.05024" lon="6.26497">
        <ele>777.294</ele>
        <time>2021-02-23T15:43:13Z</time>
      </trkpt>
      <trkpt lat="46.05007" lon="6.26483">
        <ele>778.175</ele>
        <time>2021-02-23T15:43:14Z</time>
      </trkpt>
      <trkpt lat="46.04992" lon="6.26471">
        <ele>779.248</ele>
        <time>2021-02-23T15:43:15Z</time>
      </trkpt>
      <trkpt lat="46.04977" lon="6.26458">
        <ele>780.041</ele>
        <time>2021-02-23T15:43:16Z</time>
      </trkpt>
      <trkpt lat="46.04962" lon="6.26445">
        <ele>780.964</ele>
        <time>2021-02-23T15:43:17Z</time>
      </trkpt>
      <trkpt lat="46.04945" lon="6.26432">
        <ele>781.668</ele>
        <time>2021-02-23T15:43:18Z</time>
      </trkpt>
      <trkpt lat="46.04929" lon="6.26418">
        <ele>782.322</ele>
        <time>2021-02-23T15:43:19Z</time>
      </trkpt>
      <trkpt lat="46.04914" lon="6.26404">
        <ele>782.893</ele>
        <time>2021-02-23T15:43:20Z</time>
      </trkpt>
      <trkpt lat="46.049" lon="6.26389">
        <ele>783.565</ele>
        <time>2021-02-23T15:43:21Z</time>
      </trkpt>
      <trkpt lat="46.04887" lon="6.26373">
        <ele>784.221</ele>
        <time>2021-02-23T15:43:22Z</time>
      </trkpt>
      <trkpt lat="46.04874" lon="6.26355">
        <ele>785.008</ele>
        <time>2021-02-23T15:43:23Z</time>
      </trkpt>
      <trkpt lat="46.04862" lon="6.26335">
        <ele>785.785</ele>
        <time>2021-02-23T15:43:24Z</time>
      </trkpt>
      <trkpt lat="46.04851" lon="6.26315">
        <ele>786.666</ele>
        <time>2021-02-23T15:43:25Z</time>
      </trkpt>
      <trkpt lat="46.04841" lon="6.26296">
        <ele>787.447</ele>
        <time>2021-02-23T15:43:26Z</time>
      </trkpt>
      <trkpt lat="46.04832" lon="6.26277">
        <ele>788.38</ele>
        <time>2021-02-23T15:43:27Z</time>
      </trkpt>
      <trkpt lat="46.04823" lon="6.26258">
        <ele>789.643</ele>
        <time>2021-02-23T15:43:28Z</time>
      </trkpt>
      <trkpt lat="46.04814" lon="6.26241">
        <ele>790.916</ele>
        <time>2021-02-23T15:43:29Z</time>
      </trkpt>
      <trkpt lat="46.04806" lon="6.26224">
        <ele>792.19</ele>
        <time>2021-02-23T15:43:30Z</time>
      </trkpt>
      <trkpt lat="46.04799" lon="6.26208">
        <ele>793.464</ele>
        <time>2021-02-23T15:43:31Z</time>
      </trkpt>
      <trkpt lat="46.04792" lon="6.26194">
        <ele>794.365</ele>
        <time>2021-02-23T15:43:32Z</time>
      </trkpt>
      <trkpt lat="46.04787" lon="6.2618">
        <ele>794.968</ele>
        <time>2021-02-23T15:43:33Z</time>
      </trkpt>
      <trkpt lat="46.04786" lon="6.26167">
        <ele>795.414</ele>
        <time>2021-02-23T15:43:34Z</time>
      </trkpt>
      <trkpt lat="46.04789" lon="6.26153">
        <ele>795.808</ele>
        <time>2021-02-23T15:43:35Z</time>
      </trkpt>
      <trkpt lat="46.04797" lon="6.2614">
        <ele>795.812</ele>
        <time>2021-02-23T15:43:36Z</time>
      </trkpt>
      <trkpt lat="46.04807" lon="6.2613">
        <ele>795.883</ele>
        <time>2021-02-23T15:43:37Z</time>
      </trkpt>
      <trkpt lat="46.04819" lon="6.26118">
        <ele>795.674</ele>
        <time>2021-02-23T15:43:38Z</time>
      </trkpt>
      <trkpt lat="46.0483" lon="6.26106">
        <ele>795.667</ele>
        <time>2021-02-23T15:43:39Z</time>
      </trkpt>
      <trkpt lat="46.04842" lon="6.26093">
        <ele>795.77</ele>
        <time>2021-02-23T15:43:40Z</time>
      </trkpt>
      <trkpt lat="46.04853" lon="6.26078">
        <ele>796.433</ele>
        <time>2021-02-23T15:43:41Z</time>
      </trkpt>
      <trkpt lat="46.04865" lon="6.2606">
        <ele>797.457</ele>
        <time>2021-02-23T15:43:42Z</time>
      </trkpt>
      <trkpt lat="46.04875" lon="6.2604">
        <ele>798.421</ele>
        <time>2021-02-23T15:43:43Z</time>
      </trkpt>
      <trkpt lat="46.04883" lon="6.26019">
        <ele>799.697</ele>
        <time>2021-02-23T15:43:44Z</time>
      </trkpt>
      <trkpt lat="46.04891" lon="6.25997">
        <ele>800.423</ele>
        <time>2021-02-23T15:43:45Z</time>
      </trkpt>
      <trkpt lat="46.04898" lon="6.25973">
        <ele>801.225</ele>
        <time>2021-02-23T15:43:46Z</time>
      </trkpt>
      <trkpt lat="46.04905" lon="6.25949">
        <ele>801.708</ele>
        <time>2021-02-23T15:43:47Z</time>
      </trkpt>
      <trkpt lat="46.04912" lon="6.25928">
        <ele>802.545</ele>
        <time>2021-02-23T15:43:48Z</time>
      </trkpt>
      <trkpt lat="46.04918" lon="6.25908">
        <ele>803.666</ele>
        <time>2021-02-23T15:43:49Z</time>
      </trkpt>
      <trkpt lat="46.04924" lon="6.25889">
        <ele>804.877</ele>
        <time>2021-02-23T15:43:50Z</time>
      </trkpt>
      <trkpt lat="46.04928" lon="6.25874">
        <ele>806.01</ele>
        <time>2021-02-23T15:43:51Z</time>
      </trkpt>
      <trkpt lat="46.04932" lon="6.25861">
        <ele>807.583</ele>
        <time>2021-02-23T15:43:52Z</time>
      </trkpt>
      <trkpt lat="46.04936" lon="6.25851">
        <ele>808.946</ele>
        <time>2021-02-23T15:43:53Z</time>
      </trkpt>
      <trkpt lat="46.04938" lon="6.25843">
        <ele>810.18</ele>
        <time>2021-02-23T15:43:54Z</time>
      </trkpt>
      <trkpt lat="46.0494" lon="6.25836">
        <ele>811.214</ele>
        <time>2021-02-23T15:43:55Z</time>
      </trkpt>
      <trkpt lat="46.0494" lon="6.25829">
        <ele>813.468</ele>
        <time>2021-02-23T15:43:58Z</time>
      </trkpt>
      <trkpt lat="46.0494" lon="6.25822">
        <ele>814.042</ele>
        <time>2021-02-23T15:44:01Z</time>
      </trkpt>
      <trkpt lat="46.04938" lon="6.25811">
        <ele>814.326</ele>
        <time>2021-02-23T15:44:05Z</time>
      </trkpt>
      <trkpt lat="46.04938" lon="6.258">
        <ele>814.408</ele>
        <time>2021-02-23T15:44:06Z</time>
      </trkpt>
      <trkpt lat="46.04939" lon="6.25787">
        <ele>814.622</ele>
        <time>2021-02-23T15:44:07Z</time>
      </trkpt>
      <trkpt lat="46.0494" lon="6.25772">
        <ele>814.823</ele>
        <time>2021-02-23T15:44:08Z</time>
      </trkpt>
      <trkpt lat="46.04941" lon="6.25756">
        <ele>815.254</ele>
        <time>2021-02-23T15:44:09Z</time>
      </trkpt>
      <trkpt lat="46.04942" lon="6.25738">
        <ele>815.637</ele>
        <time>2021-02-23T15:44:10Z</time>
      </trkpt>
      <trkpt lat="46.04942" lon="6.25719">
        <ele>816.13</ele>
        <time>2021-02-23T15:44:11Z</time>
      </trkpt>
      <trkpt lat="46.04943" lon="6.25698">
        <ele>816.563</ele>
        <time>2021-02-23T15:44:12Z</time>
      </trkpt>
      <trkpt lat="46.04944" lon="6.25676">
        <ele>816.987</ele>
        <time>2021-02-23T15:44:13Z</time>
      </trkpt>
      <trkpt lat="46.04945" lon="6.25652">
        <ele>817.561</ele>
        <time>2021-02-23T15:44:14Z</time>
      </trkpt>
      <trkpt lat="46.04945" lon="6.25627">
        <ele>818.398</ele>
        <time>2021-02-23T15:44:15Z</time>
      </trkpt>
      <trkpt lat="46.04947" lon="6.256">
        <ele>818.815</ele>
        <time>2021-02-23T15:44:16Z</time>
      </trkpt>
      <trkpt lat="46.04949" lon="6.25574">
        <ele>819.226</ele>
        <time>2021-02-23T15:44:17Z</time>
      </trkpt>
      <trkpt lat="46.04953" lon="6.25549">
        <ele>819.808</ele>
        <time>2021-02-23T15:44:18Z</time>
      </trkpt>
      <trkpt lat="46.04957" lon="6.25523">
        <ele>820.255</ele>
        <time>2021-02-23T15:44:19Z</time>
      </trkpt>
      <trkpt lat="46.04963" lon="6.255">
        <ele>820.346</ele>
        <time>2021-02-23T15:44:20Z</time>
      </trkpt>
      <trkpt lat="46.0497" lon="6.25475">
        <ele>820.397</ele>
        <time>2021-02-23T15:44:21Z</time>
      </trkpt>
      <trkpt lat="46.04976" lon="6.25451">
        <ele>820.34</ele>
        <time>2021-02-23T15:44:22Z</time>
      </trkpt>
      <trkpt lat="46.04983" lon="6.25427">
        <ele>820.093</ele>
        <time>2021-02-23T15:44:23Z</time>
      </trkpt>
      <trkpt lat="46.04989" lon="6.25404">
        <ele>819.956</ele>
        <time>2021-02-23T15:44:24Z</time>
      </trkpt>
      <trkpt lat="46.04996" lon="6.25382">
        <ele>819.75</ele>
        <time>2021-02-23T15:44:25Z</time>
      </trkpt>
      <trkpt lat="46.05002" lon="6.25359">
        <ele>819.414</ele>
        <time>2021-02-23T15:44:26Z</time>
      </trkpt>
      <trkpt lat="46.05009" lon="6.25336">
        <ele>819.135</ele>
        <time>2021-02-23T15:44:27Z</time>
      </trkpt>
      <trkpt lat="46.05015" lon="6.25312">
        <ele>818.486</ele>
        <time>2021-02-23T15:44:28Z</time>
      </trkpt>
      <trkpt lat="46.05023" lon="6.25287">
        <ele>817.214</ele>
        <time>2021-02-23T15:44:29Z</time>
      </trkpt>
      <trkpt lat="46.05031" lon="6.25263">
        <ele>815.608</ele>
        <time>2021-02-23T15:44:30Z</time>
      </trkpt>
      <trkpt lat="46.0504" lon="6.25242">
        <ele>814.889</ele>
        <time>2021-02-23T15:44:31Z</time>
      </trkpt>
      <trkpt lat="46.05049" lon="6.25221">
        <ele>814.81</ele>
        <time>2021-02-23T15:44:32Z</time>
      </trkpt>
      <trkpt lat="46.05058" lon="6.252">
        <ele>815.051</ele>
        <time>2021-02-23T15:44:33Z</time>
      </trkpt>
      <trkpt lat="46.05067" lon="6.25178">
        <ele>815.524</ele>
        <time>2021-02-23T15:44:34Z</time>
      </trkpt>
      <trkpt lat="46.05077" lon="6.25156">
        <ele>815.827</ele>
        <time>2021-02-23T15:44:35Z</time>
      </trkpt>
      <trkpt lat="46.05086" lon="6.25135">
        <ele>815.88</ele>
        <time>2021-02-23T15:44:36Z</time>
      </trkpt>
      <trkpt lat="46.05095" lon="6.25115">
        <ele>815.544</ele>
        <time>2021-02-23T15:44:37Z</time>
      </trkpt>
      <trkpt lat="46.05102" lon="6.25098">
        <ele>814.828</ele>
        <time>2021-02-23T15:44:38Z</time>
      </trkpt>
      <trkpt lat="46.05109" lon="6.25082">
        <ele>814.293</ele>
        <time>2021-02-23T15:44:39Z</time>
      </trkpt>
      <trkpt lat="46.05115" lon="6.25068">
        <ele>814.265</ele>
        <time>2021-02-23T15:44:40Z</time>
      </trkpt>
      <trkpt lat="46.0512" lon="6.25056">
        <ele>814.221</ele>
        <time>2021-02-23T15:44:41Z</time>
      </trkpt>
      <trkpt lat="46.05124" lon="6.25046">
        <ele>814.208</ele>
        <time>2021-02-23T15:44:42Z</time>
      </trkpt>
      <trkpt lat="46.05128" lon="6.25037">
        <ele>814.135</ele>
        <time>2021-02-23T15:44:43Z</time>
      </trkpt>
      <trkpt lat="46.0513" lon="6.2503">
        <ele>814.136</ele>
        <time>2021-02-23T15:44:44Z</time>
      </trkpt>
      <trkpt lat="46.05131" lon="6.25019">
        <ele>814.197</ele>
        <time>2021-02-23T15:44:46Z</time>
      </trkpt>
      <trkpt lat="46.05127" lon="6.25012">
        <ele>814.03</ele>
        <time>2021-02-23T15:44:47Z</time>
      </trkpt>
      <trkpt lat="46.05122" lon="6.25005">
        <ele>813.813</ele>
        <time>2021-02-23T15:44:48Z</time>
      </trkpt>
      <trkpt lat="46.05116" lon="6.24996">
        <ele>813.586</ele>
        <time>2021-02-23T15:44:49Z</time>
      </trkpt>
      <trkpt lat="46.0511" lon="6.24986">
        <ele>813.18</ele>
        <time>2021-02-23T15:44:50Z</time>
      </trkpt>
      <trkpt lat="46.05102" lon="6.24977">
        <ele>812.644</ele>
        <time>2021-02-23T15:44:51Z</time>
      </trkpt>
      <trkpt lat="46.0509" lon="6.24969">
        <ele>811.814</ele>
        <time>2021-02-23T15:44:52Z</time>
      </trkpt>
      <trkpt lat="46.05079" lon="6.24964">
        <ele>810.754</ele>
        <time>2021-02-23T15:44:53Z</time>
      </trkpt>
      <trkpt lat="46.05067" lon="6.2496">
        <ele>809.809</ele>
        <time>2021-02-23T15:44:54Z</time>
      </trkpt>
      <trkpt lat="46.05056" lon="6.24957">
        <ele>809.108</ele>
        <time>2021-02-23T15:44:55Z</time>
      </trkpt>
      <trkpt lat="46.05046" lon="6.24955">
        <ele>808.377</ele>
        <time>2021-02-23T15:44:56Z</time>
      </trkpt>
      <trkpt lat="46.05036" lon="6.24956">
        <ele>808.028</ele>
        <time>2021-02-23T15:44:57Z</time>
      </trkpt>
      <trkpt lat="46.05024" lon="6.24957">
        <ele>808.059</ele>
        <time>2021-02-23T15:44:58Z</time>
      </trkpt>
      <trkpt lat="46.05013" lon="6.24959">
        <ele>808.282</ele>
        <time>2021-02-23T15:44:59Z</time>
      </trkpt>
      <trkpt lat="46.05002" lon="6.24959">
        <ele>808.385</ele>
        <time>2021-02-23T15:45:00Z</time>
      </trkpt>
      <trkpt lat="46.04993" lon="6.2496">
        <ele>808.598</ele>
        <time>2021-02-23T15:45:01Z</time>
      </trkpt>
      <trkpt lat="46.04983" lon="6.24958">
        <ele>808.632</ele>
        <time>2021-02-23T15:45:02Z</time>
      </trkpt>
      <trkpt lat="46.04973" lon="6.24954">
        <ele>808.646</ele>
        <time>2021-02-23T15:45:03Z</time>
      </trkpt>
      <trkpt lat="46.04965" lon="6.2495">
        <ele>808.531</ele>
        <time>2021-02-23T15:45:04Z</time>
      </trkpt>
      <trkpt lat="46.04957" lon="6.24949">
        <ele>808.361</ele>
        <time>2021-02-23T15:45:05Z</time>
      </trkpt>
      <trkpt lat="46.04949" lon="6.24951">
        <ele>808.107</ele>
        <time>2021-02-23T15:45:06Z</time>
      </trkpt>
      <trkpt lat="46.0494" lon="6.24953">
        <ele>807.908</ele>
        <time>2021-02-23T15:45:07Z</time>
      </trkpt>
      <trkpt lat="46.04932" lon="6.24954">
        <ele>807.849</ele>
        <time>2021-02-23T15:45:08Z</time>
      </trkpt>
      <trkpt lat="46.04926" lon="6.24955">
        <ele>807.68</ele>
        <time>2021-02-23T15:45:09Z</time>
      </trkpt>
      <trkpt lat="46.04921" lon="6.24955">
        <ele>807.431</ele>
        <time>2021-02-23T15:45:10Z</time>
      </trkpt>
      <trkpt lat="46.0491" lon="6.24952">
        <ele>806.924</ele>
        <time>2021-02-23T15:45:12Z</time>
      </trkpt>
      <trkpt lat="46.04904" lon="6.2495">
        <ele>806.387</ele>
        <time>2021-02-23T15:45:14Z</time>
      </trkpt>
      <trkpt lat="46.04899" lon="6.24951">
        <ele>806.17</ele>
        <time>2021-02-23T15:45:15Z</time>
      </trkpt>
      <trkpt lat="46.04896" lon="6.24955">
        <ele>805.944</ele>
        <time>2021-02-23T15:45:17Z</time>
      </trkpt>
      <trkpt lat="46.04901" lon="6.24959">
        <ele>805.958</ele>
        <time>2021-02-23T15:45:19Z</time>
      </trkpt>
      <trkpt lat="46.04909" lon="6.24954">
        <ele>806.015</ele>
        <time>2021-02-23T15:45:21Z</time>
      </trkpt>
      <trkpt lat="46.04913" lon="6.2495">
        <ele>806.165</ele>
        <time>2021-02-23T15:45:22Z</time>
      </trkpt>
      <trkpt lat="46.0492" lon="6.2495">
        <ele>806.211</ele>
        <time>2021-02-23T15:45:23Z</time>
      </trkpt>
      <trkpt lat="46.04925" lon="6.24948">
        <ele>806.208</ele>
        <time>2021-02-23T15:45:24Z</time>
      </trkpt>
      <trkpt lat="46.04929" lon="6.24946">
        <ele>806.137</ele>
        <time>2021-02-23T15:45:25Z</time>
      </trkpt>
      <trkpt lat="46.04938" lon="6.24947">
        <ele>806.058</ele>
        <time>2021-02-23T15:45:26Z</time>
      </trkpt>
      <trkpt lat="46.0495" lon="6.2495">
        <ele>806.049</ele>
        <time>2021-02-23T15:45:27Z</time>
      </trkpt>
      <trkpt lat="46.04961" lon="6.24953">
        <ele>806.122</ele>
        <time>2021-02-23T15:45:28Z</time>
      </trkpt>
      <trkpt lat="46.04972" lon="6.24958">
        <ele>806.385</ele>
        <time>2021-02-23T15:45:29Z</time>
      </trkpt>
      <trkpt lat="46.04981" lon="6.24959">
        <ele>806.538</ele>
        <time>2021-02-23T15:45:30Z</time>
      </trkpt>
      <trkpt lat="46.04996" lon="6.24959">
        <ele>806.992</ele>
        <time>2021-02-23T15:45:31Z</time>
      </trkpt>
      <trkpt lat="46.0501" lon="6.24957">
        <ele>807.166</ele>
        <time>2021-02-23T15:45:32Z</time>
      </trkpt>
      <trkpt lat="46.05025" lon="6.24956">
        <ele>807.161</ele>
        <time>2021-02-23T15:45:33Z</time>
      </trkpt>
      <trkpt lat="46.0504" lon="6.24955">
        <ele>807.121</ele>
        <time>2021-02-23T15:45:34Z</time>
      </trkpt>
      <trkpt lat="46.05054" lon="6.24956">
        <ele>807.113</ele>
        <time>2021-02-23T15:45:35Z</time>
      </trkpt>
      <trkpt lat="46.05065" lon="6.24958">
        <ele>807.008</ele>
        <time>2021-02-23T15:45:36Z</time>
      </trkpt>
      <trkpt lat="46.05077" lon="6.24962">
        <ele>807.012</ele>
        <time>2021-02-23T15:45:37Z</time>
      </trkpt>
      <trkpt lat="46.05088" lon="6.24966">
        <ele>807.083</ele>
        <time>2021-02-23T15:45:38Z</time>
      </trkpt>
      <trkpt lat="46.05098" lon="6.24972">
        <ele>807.334</ele>
        <time>2021-02-23T15:45:39Z</time>
      </trkpt>
      <trkpt lat="46.05106" lon="6.24978">
        <ele>807.647</ele>
        <time>2021-02-23T15:45:40Z</time>
      </trkpt>
      <trkpt lat="46.05116" lon="6.24988">
        <ele>807.91</ele>
        <time>2021-02-23T15:45:41Z</time>
      </trkpt>
      <trkpt lat="46.05122" lon="6.25001">
        <ele>808.693</ele>
        <time>2021-02-23T15:45:42Z</time>
      </trkpt>
      <trkpt lat="46.05125" lon="6.2501">
        <ele>809.397</ele>
        <time>2021-02-23T15:45:43Z</time>
      </trkpt>
      <trkpt lat="46.05131" lon="6.25014">
        <ele>810.631</ele>
        <time>2021-02-23T15:45:45Z</time>
      </trkpt>
      <trkpt lat="46.0514" lon="6.25008">
        <ele>812.256</ele>
        <time>2021-02-23T15:45:47Z</time>
      </trkpt>
      <trkpt lat="46.05144" lon="6.24998">
        <ele>812.759</ele>
        <time>2021-02-23T15:45:48Z</time>
      </trkpt>
      <trkpt lat="46.05151" lon="6.24985">
        <ele>813.014</ele>
        <time>2021-02-23T15:45:49Z</time>
      </trkpt>
      <trkpt lat="46.05153" lon="6.24968">
        <ele>813.108</ele>
        <time>2021-02-23T15:45:50Z</time>
      </trkpt>
      <trkpt lat="46.05155" lon="6.24954">
        <ele>813.271</ele>
        <time>2021-02-23T15:45:51Z</time>
      </trkpt>
      <trkpt lat="46.05155" lon="6.24943">
        <ele>813.322</ele>
        <time>2021-02-23T15:45:52Z</time>
      </trkpt>
      <trkpt lat="46.05156" lon="6.24935">
        <ele>813.423</ele>
        <time>2021-02-23T15:45:53Z</time>
      </trkpt>
      <trkpt lat="46.05159" lon="6.24925">
        <ele>813.626</ele>
        <time>2021-02-23T15:45:55Z</time>
      </trkpt>
      <trkpt lat="46.05151" lon="6.24926">
        <ele>813.759</ele>
        <time>2021-02-23T15:45:58Z</time>
      </trkpt>
      <trkpt lat="46.05152" lon="6.2494">
        <ele>813.742</ele>
        <time>2021-02-23T15:46:00Z</time>
      </trkpt>
      <trkpt lat="46.05152" lon="6.2495">
        <ele>813.656</ele>
        <time>2021-02-23T15:46:01Z</time>
      </trkpt>
      <trkpt lat="46.05151" lon="6.24965">
        <ele>813.48</ele>
        <time>2021-02-23T15:46:02Z</time>
      </trkpt>
      <trkpt lat="46.05148" lon="6.24978">
        <ele>813.159</ele>
        <time>2021-02-23T15:46:03Z</time>
      </trkpt>
      <trkpt lat="46.05146" lon="6.24987">
        <ele>813.003</ele>
        <time>2021-02-23T15:46:04Z</time>
      </trkpt>
      <trkpt lat="46.05149" lon="6.24993">
        <ele>813.023</ele>
        <time>2021-02-23T15:46:05Z</time>
      </trkpt>
      <trkpt lat="46.05154" lon="6.24995">
        <ele>813.108</ele>
        <time>2021-02-23T15:46:06Z</time>
      </trkpt>
      <trkpt lat="46.05159" lon="6.25">
        <ele>813.141</ele>
        <time>2021-02-23T15:46:07Z</time>
      </trkpt>
      <trkpt lat="46.05169" lon="6.25007">
        <ele>812.992</ele>
        <time>2021-02-23T15:46:08Z</time>
      </trkpt>
      <trkpt lat="46.05179" lon="6.25018">
        <ele>812.573</ele>
        <time>2021-02-23T15:46:09Z</time>
      </trkpt>
      <trkpt lat="46.0519" lon="6.2503">
        <ele>812.036</ele>
        <time>2021-02-23T15:46:10Z</time>
      </trkpt>
      <trkpt lat="46.05199" lon="6.25038">
        <ele>811.739</ele>
        <time>2021-02-23T15:46:11Z</time>
      </trkpt>
      <trkpt lat="46.05207" lon="6.25046">
        <ele>811.762</ele>
        <time>2021-02-23T15:46:12Z</time>
      </trkpt>
      <trkpt lat="46.05213" lon="6.25055">
        <ele>812.066</ele>
        <time>2021-02-23T15:46:13Z</time>
      </trkpt>
      <trkpt lat="46.0522" lon="6.25065">
        <ele>812.73</ele>
        <time>2021-02-23T15:46:14Z</time>
      </trkpt>
      <trkpt lat="46.05225" lon="6.25076">
        <ele>813.318</ele>
        <time>2021-02-23T15:46:15Z</time>
      </trkpt>
      <trkpt lat="46.05229" lon="6.25086">
        <ele>813.998</ele>
        <time>2021-02-23T15:46:16Z</time>
      </trkpt>
      <trkpt lat="46.05231" lon="6.25094">
        <ele>814.317</ele>
        <time>2021-02-23T15:46:17Z</time>
      </trkpt>
      <trkpt lat="46.05236" lon="6.25104">
        <ele>814.808</ele>
        <time>2021-02-23T15:46:18Z</time>
      </trkpt>
      <trkpt lat="46.05241" lon="6.25115">
        <ele>814.997</ele>
        <time>2021-02-23T15:46:19Z</time>
      </trkpt>
      <trkpt lat="46.05251" lon="6.25125">
        <ele>815.428</ele>
        <time>2021-02-23T15:46:20Z</time>
      </trkpt>
      <trkpt lat="46.05259" lon="6.25133">
        <ele>815.959</ele>
        <time>2021-02-23T15:46:21Z</time>
      </trkpt>
      <trkpt lat="46.05266" lon="6.25138">
        <ele>816.432</ele>
        <time>2021-02-23T15:46:22Z</time>
      </trkpt>
      <trkpt lat="46.05271" lon="6.25144">
        <ele>817.025</ele>
        <time>2021-02-23T15:46:23Z</time>
      </trkpt>
      <trkpt lat="46.05277" lon="6.25151">
        <ele>818.528</ele>
        <time>2021-02-23T15:46:25Z</time>
      </trkpt>
      <trkpt lat="46.05283" lon="6.25155">
        <ele>820.232</ele>
        <time>2021-02-23T15:46:28Z</time>
      </trkpt>
      <trkpt lat="46.05282" lon="6.25147">
        <ele>820.616</ele>
        <time>2021-02-23T15:46:30Z</time>
      </trkpt>
      <trkpt lat="46.05277" lon="6.25144">
        <ele>820.782</ele>
        <time>2021-02-23T15:46:31Z</time>
      </trkpt>
      <trkpt lat="46.0527" lon="6.25139">
        <ele>820.743</ele>
        <time>2021-02-23T15:46:33Z</time>
      </trkpt>
      <trkpt lat="46.05268" lon="6.25145">
        <ele>819.317</ele>
        <time>2021-02-23T15:46:37Z</time>
      </trkpt>
      <trkpt lat="46.05268" lon="6.25152">
        <ele>819.108</ele>
        <time>2021-02-23T15:46:38Z</time>
      </trkpt>
      <trkpt lat="46.05272" lon="6.25159">
        <ele>819.144</ele>
        <time>2021-02-23T15:46:39Z</time>
      </trkpt>
      <trkpt lat="46.05278" lon="6.25166">
        <ele>819.255</ele>
        <time>2021-02-23T15:46:40Z</time>
      </trkpt>
      <trkpt lat="46.05284" lon="6.25174">
        <ele>819.446</ele>
        <time>2021-02-23T15:46:41Z</time>
      </trkpt>
      <trkpt lat="46.05291" lon="6.25184">
        <ele>819.549</ele>
        <time>2021-02-23T15:46:42Z</time>
      </trkpt>
      <trkpt lat="46.05296" lon="6.25191">
        <ele>819.642</ele>
        <time>2021-02-23T15:46:43Z</time>
      </trkpt>
      <trkpt lat="46.05301" lon="6.25197">
        <ele>820.095</ele>
        <time>2021-02-23T15:46:44Z</time>
      </trkpt>
      <trkpt lat="46.05305" lon="6.25204">
        <ele>820.499</ele>
        <time>2021-02-23T15:46:45Z</time>
      </trkpt>
      <trkpt lat="46.05309" lon="6.25212">
        <ele>820.853</ele>
        <time>2021-02-23T15:46:46Z</time>
      </trkpt>
      <trkpt lat="46.05315" lon="6.25217">
        <ele>821.594</ele>
        <time>2021-02-23T15:46:47Z</time>
      </trkpt>
      <trkpt lat="46.0532" lon="6.25218">
        <ele>822.157</ele>
        <time>2021-02-23T15:46:48Z</time>
      </trkpt>
      <trkpt lat="46.05315" lon="6.25229">
        <ele>822.822</ele>
        <time>2021-02-23T15:46:50Z</time>
      </trkpt>
      <trkpt lat="46.0531" lon="6.25224">
        <ele>823.008</ele>
        <time>2021-02-23T15:46:51Z</time>
      </trkpt>
      <trkpt lat="46.05306" lon="6.25215">
        <ele>823.145</ele>
        <time>2021-02-23T15:46:52Z</time>
      </trkpt>
      <trkpt lat="46.05301" lon="6.25203">
        <ele>823.186</ele>
        <time>2021-02-23T15:46:53Z</time>
      </trkpt>
      <trkpt lat="46.05295" lon="6.25192">
        <ele>823.097</ele>
        <time>2021-02-23T15:46:54Z</time>
      </trkpt>
      <trkpt lat="46.05291" lon="6.25182">
        <ele>822.93</ele>
        <time>2021-02-23T15:46:55Z</time>
      </trkpt>
      <trkpt lat="46.05286" lon="6.25174">
        <ele>822.693</ele>
        <time>2021-02-23T15:46:56Z</time>
      </trkpt>
      <trkpt lat="46.05283" lon="6.25167">
        <ele>822.116</ele>
        <time>2021-02-23T15:46:57Z</time>
      </trkpt>
      <trkpt lat="46.05279" lon="6.2516">
        <ele>821.57</ele>
        <time>2021-02-23T15:46:58Z</time>
      </trkpt>
      <trkpt lat="46.05273" lon="6.25151">
        <ele>820.994</ele>
        <time>2021-02-23T15:46:59Z</time>
      </trkpt>
      <trkpt lat="46.05269" lon="6.25142">
        <ele>820.375</ele>
        <time>2021-02-23T15:47:00Z</time>
      </trkpt>
      <trkpt lat="46.05268" lon="6.25135">
        <ele>819.828</ele>
        <time>2021-02-23T15:47:01Z</time>
      </trkpt>
      <trkpt lat="46.05262" lon="6.25128">
        <ele>819.32</ele>
        <time>2021-02-23T15:47:02Z</time>
      </trkpt>
      <trkpt lat="46.05254" lon="6.25121">
        <ele>818.908</ele>
        <time>2021-02-23T15:47:03Z</time>
      </trkpt>
      <trkpt lat="46.05246" lon="6.25107">
        <ele>818.423</ele>
        <time>2021-02-23T15:47:04Z</time>
      </trkpt>
      <trkpt lat="46.05237" lon="6.25092">
        <ele>817.944</ele>
        <time>2021-02-23T15:47:05Z</time>
      </trkpt>
      <trkpt lat="46.05232" lon="6.25083">
        <ele>817.415</ele>
        <time>2021-02-23T15:47:06Z</time>
      </trkpt>
      <trkpt lat="46.05226" lon="6.25072">
        <ele>816.918</ele>
        <time>2021-02-23T15:47:07Z</time>
      </trkpt>
      <trkpt lat="46.0522" lon="6.25061">
        <ele>816.591</ele>
        <time>2021-02-23T15:47:08Z</time>
      </trkpt>
      <trkpt lat="46.05213" lon="6.25052">
        <ele>816.184</ele>
        <time>2021-02-23T15:47:09Z</time>
      </trkpt>
      <trkpt lat="46.05204" lon="6.25044">
        <ele>815.858</ele>
        <time>2021-02-23T15:47:10Z</time>
      </trkpt>
      <trkpt lat="46.05194" lon="6.25035">
        <ele>815.432</ele>
        <time>2021-02-23T15:47:11Z</time>
      </trkpt>
      <trkpt lat="46.05185" lon="6.25028">
        <ele>815.036</ele>
        <time>2021-02-23T15:47:12Z</time>
      </trkpt>
      <trkpt lat="46.05175" lon="6.25019">
        <ele>814.417</ele>
        <time>2021-02-23T15:47:13Z</time>
      </trkpt>
      <trkpt lat="46.05166" lon="6.25011">
        <ele>813.818</ele>
        <time>2021-02-23T15:47:14Z</time>
      </trkpt>
      <trkpt lat="46.05159" lon="6.25005">
        <ele>813.408</ele>
        <time>2021-02-23T15:47:15Z</time>
      </trkpt>
      <trkpt lat="46.05153" lon="6.25001">
        <ele>813.179</ele>
        <time>2021-02-23T15:47:16Z</time>
      </trkpt>
      <trkpt lat="46.05148" lon="6.24997">
        <ele>812.93</ele>
        <time>2021-02-23T15:47:17Z</time>
      </trkpt>
      <trkpt lat="46.05148" lon="6.24984">
        <ele>813.181</ele>
        <time>2021-02-23T15:47:19Z</time>
      </trkpt>
      <trkpt lat="46.0515" lon="6.24974">
        <ele>813.224</ele>
        <time>2021-02-23T15:47:20Z</time>
      </trkpt>
      <trkpt lat="46.05153" lon="6.24964">
        <ele>813.347</ele>
        <time>2021-02-23T15:47:21Z</time>
      </trkpt>
      <trkpt lat="46.05156" lon="6.24951">
        <ele>813.42</ele>
        <time>2021-02-23T15:47:22Z</time>
      </trkpt>
      <trkpt lat="46.05157" lon="6.24933">
        <ele>813.464</ele>
        <time>2021-02-23T15:47:23Z</time>
      </trkpt>
      <trkpt lat="46.05159" lon="6.24913">
        <ele>813.388</ele>
        <time>2021-02-23T15:47:24Z</time>
      </trkpt>
      <trkpt lat="46.05161" lon="6.24892">
        <ele>813.235</ele>
        <time>2021-02-23T15:47:25Z</time>
      </trkpt>
      <trkpt lat="46.05162" lon="6.24871">
        <ele>813.086</ele>
        <time>2021-02-23T15:47:26Z</time>
      </trkpt>
      <trkpt lat="46.05163" lon="6.24849">
        <ele>812.914</ele>
        <time>2021-02-23T15:47:27Z</time>
      </trkpt>
      <trkpt lat="46.05164" lon="6.24826">
        <ele>812.908</ele>
        <time>2021-02-23T15:47:28Z</time>
      </trkpt>
      <trkpt lat="46.05166" lon="6.24802">
        <ele>813.059</ele>
        <time>2021-02-23T15:47:29Z</time>
      </trkpt>
      <trkpt lat="46.05167" lon="6.24777">
        <ele>813.29</ele>
        <time>2021-02-23T15:47:30Z</time>
      </trkpt>
      <trkpt lat="46.05168" lon="6.24755">
        <ele>813.791</ele>
        <time>2021-02-23T15:47:31Z</time>
      </trkpt>
      <trkpt lat="46.0517" lon="6.24734">
        <ele>814.444</ele>
        <time>2021-02-23T15:47:32Z</time>
      </trkpt>
      <trkpt lat="46.05171" lon="6.24713">
        <ele>814.997</ele>
        <time>2021-02-23T15:47:33Z</time>
      </trkpt>
      <trkpt lat="46.05172" lon="6.24693">
        <ele>815.69</ele>
        <time>2021-02-23T15:47:34Z</time>
      </trkpt>
      <trkpt lat="46.05174" lon="6.2467">
        <ele>816.154</ele>
        <time>2021-02-23T15:47:35Z</time>
      </trkpt>
      <trkpt lat="46.05176" lon="6.24647">
        <ele>816.298</ele>
        <time>2021-02-23T15:47:36Z</time>
      </trkpt>
      <trkpt lat="46.05177" lon="6.24623">
        <ele>816.323</ele>
        <time>2021-02-23T15:47:37Z</time>
      </trkpt>
      <trkpt lat="46.05179" lon="6.246">
        <ele>816.783</ele>
        <time>2021-02-23T15:47:38Z</time>
      </trkpt>
      <trkpt lat="46.05182" lon="6.24577">
        <ele>817.111</ele>
        <time>2021-02-23T15:47:39Z</time>
      </trkpt>
      <trkpt lat="46.05185" lon="6.24553">
        <ele>817.608</ele>
        <time>2021-02-23T15:47:40Z</time>
      </trkpt>
      <trkpt lat="46.05189" lon="6.24529">
        <ele>818.158</ele>
        <time>2021-02-23T15:47:41Z</time>
      </trkpt>
      <trkpt lat="46.05194" lon="6.24505">
        <ele>818.579</ele>
        <time>2021-02-23T15:47:42Z</time>
      </trkpt>
      <trkpt lat="46.05198" lon="6.24481">
        <ele>818.59</ele>
        <time>2021-02-23T15:47:43Z</time>
      </trkpt>
      <trkpt lat="46.05202" lon="6.24458">
        <ele>818.183</ele>
        <time>2021-02-23T15:47:44Z</time>
      </trkpt>
      <trkpt lat="46.05206" lon="6.24434">
        <ele>817.436</ele>
        <time>2021-02-23T15:47:45Z</time>
      </trkpt>
      <trkpt lat="46.0521" lon="6.2441">
        <ele>816.899</ele>
        <time>2021-02-23T15:47:46Z</time>
      </trkpt>
      <trkpt lat="46.05214" lon="6.24387">
        <ele>816.493</ele>
        <time>2021-02-23T15:47:47Z</time>
      </trkpt>
      <trkpt lat="46.05219" lon="6.24365">
        <ele>815.847</ele>
        <time>2021-02-23T15:47:48Z</time>
      </trkpt>
      <trkpt lat="46.05222" lon="6.24343">
        <ele>815.871</ele>
        <time>2021-02-23T15:47:49Z</time>
      </trkpt>
      <trkpt lat="46.05226" lon="6.24323">
        <ele>816.241</ele>
        <time>2021-02-23T15:47:50Z</time>
      </trkpt>
      <trkpt lat="46.05233" lon="6.24304">
        <ele>816.215</ele>
        <time>2021-02-23T15:47:51Z</time>
      </trkpt>
      <trkpt lat="46.05241" lon="6.24287">
        <ele>816.208</ele>
        <time>2021-02-23T15:47:52Z</time>
      </trkpt>
      <trkpt lat="46.05251" lon="6.24274">
        <ele>816.183</ele>
        <time>2021-02-23T15:47:53Z</time>
      </trkpt>
      <trkpt lat="46.05264" lon="6.24265">
        <ele>816.134</ele>
        <time>2021-02-23T15:47:54Z</time>
      </trkpt>
      <trkpt lat="46.05279" lon="6.2426">
        <ele>815.335</ele>
        <time>2021-02-23T15:47:55Z</time>
      </trkpt>
      <trkpt lat="46.05293" lon="6.24255">
        <ele>814.968</ele>
        <time>2021-02-23T15:47:56Z</time>
      </trkpt>
      <trkpt lat="46.05306" lon="6.24248">
        <ele>814.541</ele>
        <time>2021-02-23T15:47:57Z</time>
      </trkpt>
      <trkpt lat="46.05319" lon="6.24237">
        <ele>814.184</ele>
        <time>2021-02-23T15:47:58Z</time>
      </trkpt>
      <trkpt lat="46.0533" lon="6.24222">
        <ele>813.948</ele>
        <time>2021-02-23T15:47:59Z</time>
      </trkpt>
      <trkpt lat="46.05339" lon="6.24205">
        <ele>813.962</ele>
        <time>2021-02-23T15:48:00Z</time>
      </trkpt>
      <trkpt lat="46.05348" lon="6.24188">
        <ele>813.991</ele>
        <time>2021-02-23T15:48:01Z</time>
      </trkpt>
      <trkpt lat="46.05357" lon="6.24172">
        <ele>814.381</ele>
        <time>2021-02-23T15:48:02Z</time>
      </trkpt>
      <trkpt lat="46.05362" lon="6.24153">
        <ele>814.719</ele>
        <time>2021-02-23T15:48:03Z</time>
      </trkpt>
      <trkpt lat="46.05365" lon="6.24132">
        <ele>815.108</ele>
        <time>2021-02-23T15:48:04Z</time>
      </trkpt>
      <trkpt lat="46.05366" lon="6.2411">
        <ele>815.645</ele>
        <time>2021-02-23T15:48:05Z</time>
      </trkpt>
      <trkpt lat="46.05367" lon="6.24087">
        <ele>816.236</ele>
        <time>2021-02-23T15:48:06Z</time>
      </trkpt>
      <trkpt lat="46.05366" lon="6.24064">
        <ele>816.317</ele>
        <time>2021-02-23T15:48:07Z</time>
      </trkpt>
      <trkpt lat="46.05362" lon="6.24042">
        <ele>816.68</ele>
        <time>2021-02-23T15:48:08Z</time>
      </trkpt>
      <trkpt lat="46.05354" lon="6.24021">
        <ele>817.213</ele>
        <time>2021-02-23T15:48:09Z</time>
      </trkpt>
      <trkpt lat="46.05342" lon="6.24003">
        <ele>817.886</ele>
        <time>2021-02-23T15:48:10Z</time>
      </trkpt>
      <trkpt lat="46.0533" lon="6.23985">
        <ele>818.41</ele>
        <time>2021-02-23T15:48:11Z</time>
      </trkpt>
      <trkpt lat="46.05318" lon="6.23968">
        <ele>819.234</ele>
        <time>2021-02-23T15:48:12Z</time>
      </trkpt>
      <trkpt lat="46.05306" lon="6.23951">
        <ele>820.177</ele>
        <time>2021-02-23T15:48:13Z</time>
      </trkpt>
      <trkpt lat="46.05295" lon="6.23932">
        <ele>820.961</ele>
        <time>2021-02-23T15:48:14Z</time>
      </trkpt>
      <trkpt lat="46.05283" lon="6.23912">
        <ele>821.627</ele>
        <time>2021-02-23T15:48:15Z</time>
      </trkpt>
      <trkpt lat="46.05272" lon="6.2389">
        <ele>821.908</ele>
        <time>2021-02-23T15:48:16Z</time>
      </trkpt>
      <trkpt lat="46.05262" lon="6.23868">
        <ele>822.323</ele>
        <time>2021-02-23T15:48:17Z</time>
      </trkpt>
      <trkpt lat="46.05252" lon="6.23846">
        <ele>822.394</ele>
        <time>2021-02-23T15:48:18Z</time>
      </trkpt>
      <trkpt lat="46.05243" lon="6.23826">
        <ele>822.725</ele>
        <time>2021-02-23T15:48:19Z</time>
      </trkpt>
      <trkpt lat="46.05234" lon="6.23805">
        <ele>823.298</ele>
        <time>2021-02-23T15:48:20Z</time>
      </trkpt>
      <trkpt lat="46.05225" lon="6.23785">
        <ele>824.191</ele>
        <time>2021-02-23T15:48:21Z</time>
      </trkpt>
      <trkpt lat="46.05218" lon="6.23765">
        <ele>825.114</ele>
        <time>2021-02-23T15:48:22Z</time>
      </trkpt>
      <trkpt lat="46.05209" lon="6.23746">
        <ele>826.478</ele>
        <time>2021-02-23T15:48:23Z</time>
      </trkpt>
      <trkpt lat="46.05201" lon="6.23725">
        <ele>826.972</ele>
        <time>2021-02-23T15:48:24Z</time>
      </trkpt>
      <trkpt lat="46.05193" lon="6.23706">
        <ele>827.593</ele>
        <time>2021-02-23T15:48:25Z</time>
      </trkpt>
      <trkpt lat="46.05187" lon="6.23686">
        <ele>827.865</ele>
        <time>2021-02-23T15:48:26Z</time>
      </trkpt>
      <trkpt lat="46.05181" lon="6.23664">
        <ele>827.821</ele>
        <time>2021-02-23T15:48:27Z</time>
      </trkpt>
      <trkpt lat="46.05176" lon="6.2364">
        <ele>827.908</ele>
        <time>2021-02-23T15:48:28Z</time>
      </trkpt>
      <trkpt lat="46.05172" lon="6.23615">
        <ele>827.975</ele>
        <time>2021-02-23T15:48:29Z</time>
      </trkpt>
      <trkpt lat="46.0517" lon="6.23588">
        <ele>827.626</ele>
        <time>2021-02-23T15:48:30Z</time>
      </trkpt>
      <trkpt lat="46.0517" lon="6.23559">
        <ele>827.697</ele>
        <time>2021-02-23T15:48:31Z</time>
      </trkpt>
      <trkpt lat="46.05171" lon="6.2353">
        <ele>827.82</ele>
        <time>2021-02-23T15:48:32Z</time>
      </trkpt>
      <trkpt lat="46.05173" lon="6.23503">
        <ele>827.813</ele>
        <time>2021-02-23T15:48:33Z</time>
      </trkpt>
      <trkpt lat="46.05177" lon="6.23477">
        <ele>828.076</ele>
        <time>2021-02-23T15:48:34Z</time>
      </trkpt>
      <trkpt lat="46.05182" lon="6.23452">
        <ele>828.38</ele>
        <time>2021-02-23T15:48:35Z</time>
      </trkpt>
      <trkpt lat="46.05187" lon="6.23427">
        <ele>828.394</ele>
        <time>2021-02-23T15:48:36Z</time>
      </trkpt>
      <trkpt lat="46.05192" lon="6.23406">
        <ele>828.121</ele>
        <time>2021-02-23T15:48:37Z</time>
      </trkpt>
      <trkpt lat="46.05196" lon="6.2339">
        <ele>828.141</ele>
        <time>2021-02-23T15:48:38Z</time>
      </trkpt>
      <trkpt lat="46.05199" lon="6.23378">
        <ele>828.105</ele>
        <time>2021-02-23T15:48:39Z</time>
      </trkpt>
      <trkpt lat="46.05204" lon="6.23369">
        <ele>828.408</ele>
        <time>2021-02-23T15:48:40Z</time>
      </trkpt>
      <trkpt lat="46.05206" lon="6.23361">
        <ele>829.198</ele>
        <time>2021-02-23T15:48:41Z</time>
      </trkpt>
      <trkpt lat="46.05208" lon="6.23351">
        <ele>829.779</ele>
        <time>2021-02-23T15:48:42Z</time>
      </trkpt>
      <trkpt lat="46.05211" lon="6.23338">
        <ele>830.61</ele>
        <time>2021-02-23T15:48:43Z</time>
      </trkpt>
      <trkpt lat="46.05214" lon="6.23322">
        <ele>831.013</ele>
        <time>2021-02-23T15:48:44Z</time>
      </trkpt>
      <trkpt lat="46.05216" lon="6.23305">
        <ele>831.486</ele>
        <time>2021-02-23T15:48:45Z</time>
      </trkpt>
      <trkpt lat="46.05217" lon="6.23289">
        <ele>831.879</ele>
        <time>2021-02-23T15:48:46Z</time>
      </trkpt>
      <trkpt lat="46.05218" lon="6.23275">
        <ele>832.233</ele>
        <time>2021-02-23T15:48:47Z</time>
      </trkpt>
      <trkpt lat="46.05219" lon="6.23263">
        <ele>832.667</ele>
        <time>2021-02-23T15:48:48Z</time>
      </trkpt>
      <trkpt lat="46.05221" lon="6.23255">
        <ele>832.948</ele>
        <time>2021-02-23T15:48:49Z</time>
      </trkpt>
      <trkpt lat="46.05226" lon="6.2325">
        <ele>833.161</ele>
        <time>2021-02-23T15:48:50Z</time>
      </trkpt>
      <trkpt lat="46.05232" lon="6.2325">
        <ele>833.217</ele>
        <time>2021-02-23T15:48:51Z</time>
      </trkpt>
      <trkpt lat="46.05241" lon="6.23254">
        <ele>833.408</ele>
        <time>2021-02-23T15:48:52Z</time>
      </trkpt>
      <trkpt lat="46.0525" lon="6.2326">
        <ele>833.52</ele>
        <time>2021-02-23T15:48:53Z</time>
      </trkpt>
      <trkpt lat="46.05262" lon="6.23266">
        <ele>833.531</ele>
        <time>2021-02-23T15:48:54Z</time>
      </trkpt>
      <trkpt lat="46.05273" lon="6.23273">
        <ele>833.532</ele>
        <time>2021-02-23T15:48:55Z</time>
      </trkpt>
      <trkpt lat="46.05285" lon="6.2328">
        <ele>833.255</ele>
        <time>2021-02-23T15:48:56Z</time>
      </trkpt>
      <trkpt lat="46.05297" lon="6.23286">
        <ele>832.988</ele>
        <time>2021-02-23T15:48:57Z</time>
      </trkpt>
      <trkpt lat="46.05308" lon="6.23293">
        <ele>832.691</ele>
        <time>2021-02-23T15:48:58Z</time>
      </trkpt>
      <trkpt lat="46.05318" lon="6.23299">
        <ele>832.635</ele>
        <time>2021-02-23T15:48:59Z</time>
      </trkpt>
      <trkpt lat="46.05328" lon="6.23305">
        <ele>832.779</ele>
        <time>2021-02-23T15:49:00Z</time>
      </trkpt>
      <trkpt lat="46.05339" lon="6.23312">
        <ele>833.448</ele>
        <time>2021-02-23T15:49:01Z</time>
      </trkpt>
      <trkpt lat="46.05351" lon="6.23318">
        <ele>834.261</ele>
        <time>2021-02-23T15:49:02Z</time>
      </trkpt>
      <trkpt lat="46.05363" lon="6.23325">
        <ele>835.217</ele>
        <time>2021-02-23T15:49:03Z</time>
      </trkpt>
      <trkpt lat="46.05377" lon="6.23333">
        <ele>836.008</ele>
        <time>2021-02-23T15:49:04Z</time>
      </trkpt>
      <trkpt lat="46.05391" lon="6.23341">
        <ele>836.74</ele>
        <time>2021-02-23T15:49:05Z</time>
      </trkpt>
      <trkpt lat="46.05405" lon="6.23349">
        <ele>836.941</ele>
        <time>2021-02-23T15:49:06Z</time>
      </trkpt>
      <trkpt lat="46.05421" lon="6.23359">
        <ele>836.932</ele>
        <time>2021-02-23T15:49:07Z</time>
      </trkpt>
      <trkpt lat="46.05434" lon="6.23369">
        <ele>836.745</ele>
        <time>2021-02-23T15:49:08Z</time>
      </trkpt>
      <trkpt lat="46.0545" lon="6.23381">
        <ele>836.738</ele>
        <time>2021-02-23T15:49:09Z</time>
      </trkpt>
      <trkpt lat="46.05463" lon="6.2339">
        <ele>836.771</ele>
        <time>2021-02-23T15:49:10Z</time>
      </trkpt>
      <trkpt lat="46.05476" lon="6.23399">
        <ele>837.525</ele>
        <time>2021-02-23T15:49:11Z</time>
      </trkpt>
      <trkpt lat="46.05488" lon="6.23409">
        <ele>838.679</ele>
        <time>2021-02-23T15:49:12Z</time>
      </trkpt>
      <trkpt lat="46.05501" lon="6.23421">
        <ele>839.524</ele>
        <time>2021-02-23T15:49:13Z</time>
      </trkpt>
      <trkpt lat="46.05516" lon="6.23434">
        <ele>840.504</ele>
        <time>2021-02-23T15:49:14Z</time>
      </trkpt>
      <trkpt lat="46.05531" lon="6.23447">
        <ele>840.914</ele>
        <time>2021-02-23T15:49:15Z</time>
      </trkpt>
      <trkpt lat="46.05549" lon="6.23461">
        <ele>841.008</ele>
        <time>2021-02-23T15:49:16Z</time>
      </trkpt>
      <trkpt lat="46.05565" lon="6.23476">
        <ele>841.288</ele>
        <time>2021-02-23T15:49:17Z</time>
      </trkpt>
      <trkpt lat="46.05581" lon="6.23492">
        <ele>841.359</ele>
        <time>2021-02-23T15:49:18Z</time>
      </trkpt>
      <trkpt lat="46.05596" lon="6.23508">
        <ele>841.79</ele>
        <time>2021-02-23T15:49:19Z</time>
      </trkpt>
      <trkpt lat="46.05611" lon="6.23525">
        <ele>842.333</ele>
        <time>2021-02-23T15:49:20Z</time>
      </trkpt>
      <trkpt lat="46.05625" lon="6.23539">
        <ele>843.126</ele>
        <time>2021-02-23T15:49:21Z</time>
      </trkpt>
      <trkpt lat="46.05639" lon="6.23554">
        <ele>844.649</ele>
        <time>2021-02-23T15:49:22Z</time>
      </trkpt>
      <trkpt lat="46.05654" lon="6.23569">
        <ele>846.053</ele>
        <time>2021-02-23T15:49:23Z</time>
      </trkpt>
      <trkpt lat="46.05669" lon="6.23585">
        <ele>847.187</ele>
        <time>2021-02-23T15:49:24Z</time>
      </trkpt>
      <trkpt lat="46.05684" lon="6.236">
        <ele>848.725</ele>
        <time>2021-02-23T15:49:25Z</time>
      </trkpt>
      <trkpt lat="46.05697" lon="6.23614">
        <ele>849.626</ele>
        <time>2021-02-23T15:49:26Z</time>
      </trkpt>
      <trkpt lat="46.05711" lon="6.23627">
        <ele>849.708</ele>
        <time>2021-02-23T15:49:27Z</time>
      </trkpt>
      <trkpt lat="46.05722" lon="6.23636">
        <ele>849.808</ele>
        <time>2021-02-23T15:49:28Z</time>
      </trkpt>
      <trkpt lat="46.05733" lon="6.23643">
        <ele>850.098</ele>
        <time>2021-02-23T15:49:29Z</time>
      </trkpt>
      <trkpt lat="46.05746" lon="6.2365">
        <ele>850.249</ele>
        <time>2021-02-23T15:49:30Z</time>
      </trkpt>
      <trkpt lat="46.05759" lon="6.23657">
        <ele>850.45</ele>
        <time>2021-02-23T15:49:31Z</time>
      </trkpt>
      <trkpt lat="46.05773" lon="6.23664">
        <ele>851.213</ele>
        <time>2021-02-23T15:49:32Z</time>
      </trkpt>
      <trkpt lat="46.05788" lon="6.23673">
        <ele>852.036</ele>
        <time>2021-02-23T15:49:33Z</time>
      </trkpt>
      <trkpt lat="46.05803" lon="6.23681">
        <ele>852.839</ele>
        <time>2021-02-23T15:49:34Z</time>
      </trkpt>
      <trkpt lat="46.05816" lon="6.2369">
        <ele>852.853</ele>
        <time>2021-02-23T15:49:35Z</time>
      </trkpt>
      <trkpt lat="46.05831" lon="6.23702">
        <ele>853.047</ele>
        <time>2021-02-23T15:49:36Z</time>
      </trkpt>
      <trkpt lat="46.05844" lon="6.23716">
        <ele>853.826</ele>
        <time>2021-02-23T15:49:37Z</time>
      </trkpt>
      <trkpt lat="46.05856" lon="6.23733">
        <ele>854.647</ele>
        <time>2021-02-23T15:49:38Z</time>
      </trkpt>
      <trkpt lat="46.05867" lon="6.23752">
        <ele>855.111</ele>
        <time>2021-02-23T15:49:39Z</time>
      </trkpt>
      <trkpt lat="46.05878" lon="6.23772">
        <ele>856.108</ele>
        <time>2021-02-23T15:49:40Z</time>
      </trkpt>
      <trkpt lat="46.05889" lon="6.23794">
        <ele>856.868</ele>
        <time>2021-02-23T15:49:41Z</time>
      </trkpt>
      <trkpt lat="46.05901" lon="6.23816">
        <ele>856.839</ele>
        <time>2021-02-23T15:49:42Z</time>
      </trkpt>
      <trkpt lat="46.05913" lon="6.23837">
        <ele>856.41</ele>
        <time>2021-02-23T15:49:43Z</time>
      </trkpt>
      <trkpt lat="46.05925" lon="6.23857">
        <ele>856.463</ele>
        <time>2021-02-23T15:49:44Z</time>
      </trkpt>
      <trkpt lat="46.05937" lon="6.23877">
        <ele>856.466</ele>
        <time>2021-02-23T15:49:45Z</time>
      </trkpt>
      <trkpt lat="46.05949" lon="6.23897">
        <ele>856.549</ele>
        <time>2021-02-23T15:49:46Z</time>
      </trkpt>
      <trkpt lat="46.05961" lon="6.23915">
        <ele>857.023</ele>
        <time>2021-02-23T15:49:47Z</time>
      </trkpt>
      <trkpt lat="46.05975" lon="6.23931">
        <ele>857.687</ele>
        <time>2021-02-23T15:49:48Z</time>
      </trkpt>
      <trkpt lat="46.05993" lon="6.23948">
        <ele>857.749</ele>
        <time>2021-02-23T15:49:49Z</time>
      </trkpt>
      <trkpt lat="46.0601" lon="6.23965">
        <ele>857.902</ele>
        <time>2021-02-23T15:49:50Z</time>
      </trkpt>
      <trkpt lat="46.06026" lon="6.23982">
        <ele>858.222</ele>
        <time>2021-02-23T15:49:51Z</time>
      </trkpt>
      <trkpt lat="46.06042" lon="6.23998">
        <ele>859.008</ele>
        <time>2021-02-23T15:49:52Z</time>
      </trkpt>
      <trkpt lat="46.06057" lon="6.24014">
        <ele>859.41</ele>
        <time>2021-02-23T15:49:53Z</time>
      </trkpt>
      <trkpt lat="46.06072" lon="6.2403">
        <ele>859.961</ele>
        <time>2021-02-23T15:49:54Z</time>
      </trkpt>
      <trkpt lat="46.06085" lon="6.24044">
        <ele>861.042</ele>
        <time>2021-02-23T15:49:55Z</time>
      </trkpt>
      <trkpt lat="46.06098" lon="6.24058">
        <ele>861.135</ele>
        <time>2021-02-23T15:49:56Z</time>
      </trkpt>
      <trkpt lat="46.0611" lon="6.24068">
        <ele>861.488</ele>
        <time>2021-02-23T15:49:57Z</time>
      </trkpt>
      <trkpt lat="46.06122" lon="6.24076">
        <ele>862.211</ele>
        <time>2021-02-23T15:49:58Z</time>
      </trkpt>
      <trkpt lat="46.06133" lon="6.2408">
        <ele>863.465</ele>
        <time>2021-02-23T15:49:59Z</time>
      </trkpt>
      <trkpt lat="46.06145" lon="6.24078">
        <ele>864.199</ele>
        <time>2021-02-23T15:50:00Z</time>
      </trkpt>
      <trkpt lat="46.06158" lon="6.24072">
        <ele>865.461</ele>
        <time>2021-02-23T15:50:01Z</time>
      </trkpt>
      <trkpt lat="46.0617" lon="6.24061">
        <ele>866.521</ele>
        <time>2021-02-23T15:50:02Z</time>
      </trkpt>
      <trkpt lat="46.06182" lon="6.24045">
        <ele>867.613</ele>
        <time>2021-02-23T15:50:03Z</time>
      </trkpt>
      <trkpt lat="46.06193" lon="6.24027">
        <ele>868.408</ele>
        <time>2021-02-23T15:50:04Z</time>
      </trkpt>
      <trkpt lat="46.06206" lon="6.24009">
        <ele>869.292</ele>
        <time>2021-02-23T15:50:05Z</time>
      </trkpt>
      <trkpt lat="46.06218" lon="6.23991">
        <ele>870.133</ele>
        <time>2021-02-23T15:50:06Z</time>
      </trkpt>
      <trkpt lat="46.06231" lon="6.23972">
        <ele>870.874</ele>
        <time>2021-02-23T15:50:07Z</time>
      </trkpt>
      <trkpt lat="46.06243" lon="6.23954">
        <ele>871.527</ele>
        <time>2021-02-23T15:50:08Z</time>
      </trkpt>
      <trkpt lat="46.06256" lon="6.23937">
        <ele>872.59</ele>
        <time>2021-02-23T15:50:09Z</time>
      </trkpt>
      <trkpt lat="46.06267" lon="6.23921">
        <ele>873.883</ele>
        <time>2021-02-23T15:50:10Z</time>
      </trkpt>
      <trkpt lat="46.06279" lon="6.23907">
        <ele>875.087</ele>
        <time>2021-02-23T15:50:11Z</time>
      </trkpt>
      <trkpt lat="46.06291" lon="6.23894">
        <ele>876.451</ele>
        <time>2021-02-23T15:50:12Z</time>
      </trkpt>
      <trkpt lat="46.06303" lon="6.23882">
        <ele>877.818</ele>
        <time>2021-02-23T15:50:13Z</time>
      </trkpt>
      <trkpt lat="46.06313" lon="6.23872">
        <ele>879.498</ele>
        <time>2021-02-23T15:50:14Z</time>
      </trkpt>
      <trkpt lat="46.06322" lon="6.23858">
        <ele>880.417</ele>
        <time>2021-02-23T15:50:15Z</time>
      </trkpt>
      <trkpt lat="46.06329" lon="6.23841">
        <ele>881.708</ele>
        <time>2021-02-23T15:50:16Z</time>
      </trkpt>
      <trkpt lat="46.06334" lon="6.23826">
        <ele>882.977</ele>
        <time>2021-02-23T15:50:17Z</time>
      </trkpt>
      <trkpt lat="46.06342" lon="6.23814">
        <ele>884.578</ele>
        <time>2021-02-23T15:50:18Z</time>
      </trkpt>
      <trkpt lat="46.06352" lon="6.23804">
        <ele>885.749</ele>
        <time>2021-02-23T15:50:19Z</time>
      </trkpt>
      <trkpt lat="46.06364" lon="6.23802">
        <ele>887.472</ele>
        <time>2021-02-23T15:50:20Z</time>
      </trkpt>
      <trkpt lat="46.06378" lon="6.23804">
        <ele>889.175</ele>
        <time>2021-02-23T15:50:21Z</time>
      </trkpt>
      <trkpt lat="46.06392" lon="6.23807">
        <ele>890.778</ele>
        <time>2021-02-23T15:50:22Z</time>
      </trkpt>
      <trkpt lat="46.06411" lon="6.23812">
        <ele>892.012</ele>
        <time>2021-02-23T15:50:23Z</time>
      </trkpt>
      <trkpt lat="46.06429" lon="6.2382">
        <ele>893.266</ele>
        <time>2021-02-23T15:50:24Z</time>
      </trkpt>
      <trkpt lat="46.06443" lon="6.2383">
        <ele>894.516</ele>
        <time>2021-02-23T15:50:25Z</time>
      </trkpt>
      <trkpt lat="46.06453" lon="6.23841">
        <ele>895.876</ele>
        <time>2021-02-23T15:50:26Z</time>
      </trkpt>
      <trkpt lat="46.06463" lon="6.23849">
        <ele>897.113</ele>
        <time>2021-02-23T15:50:27Z</time>
      </trkpt>
      <trkpt lat="46.06472" lon="6.23854">
        <ele>898.608</ele>
        <time>2021-02-23T15:50:28Z</time>
      </trkpt>
      <trkpt lat="46.06484" lon="6.23853">
        <ele>900.057</ele>
        <time>2021-02-23T15:50:29Z</time>
      </trkpt>
      <trkpt lat="46.06495" lon="6.23845">
        <ele>901.258</ele>
        <time>2021-02-23T15:50:30Z</time>
      </trkpt>
      <trkpt lat="46.06508" lon="6.23839">
        <ele>902.259</ele>
        <time>2021-02-23T15:50:31Z</time>
      </trkpt>
      <trkpt lat="46.0652" lon="6.23834">
        <ele>903.432</ele>
        <time>2021-02-23T15:50:32Z</time>
      </trkpt>
      <trkpt lat="46.06532" lon="6.23837">
        <ele>904.475</ele>
        <time>2021-02-23T15:50:33Z</time>
      </trkpt>
      <trkpt lat="46.06544" lon="6.23841">
        <ele>905.528</ele>
        <time>2021-02-23T15:50:34Z</time>
      </trkpt>
      <trkpt lat="46.06559" lon="6.2385">
        <ele>906.552</ele>
        <time>2021-02-23T15:50:35Z</time>
      </trkpt>
      <trkpt lat="46.06572" lon="6.23862">
        <ele>907.436</ele>
        <time>2021-02-23T15:50:36Z</time>
      </trkpt>
      <trkpt lat="46.06586" lon="6.23874">
        <ele>908.125</ele>
        <time>2021-02-23T15:50:37Z</time>
      </trkpt>
      <trkpt lat="46.06602" lon="6.23888">
        <ele>908.826</ele>
        <time>2021-02-23T15:50:38Z</time>
      </trkpt>
      <trkpt lat="46.06617" lon="6.23901">
        <ele>909.308</ele>
        <time>2021-02-23T15:50:39Z</time>
      </trkpt>
      <trkpt lat="46.06634" lon="6.23913">
        <ele>909.708</ele>
        <time>2021-02-23T15:50:40Z</time>
      </trkpt>
      <trkpt lat="46.0665" lon="6.23925">
        <ele>910.668</ele>
        <time>2021-02-23T15:50:41Z</time>
      </trkpt>
      <trkpt lat="46.06667" lon="6.23937">
        <ele>911.539</ele>
        <time>2021-02-23T15:50:42Z</time>
      </trkpt>
      <trkpt lat="46.06683" lon="6.23946">
        <ele>912.55</ele>
        <time>2021-02-23T15:50:43Z</time>
      </trkpt>
      <trkpt lat="46.06697" lon="6.23955">
        <ele>913.943</ele>
        <time>2021-02-23T15:50:44Z</time>
      </trkpt>
      <trkpt lat="46.06711" lon="6.23965">
        <ele>915.726</ele>
        <time>2021-02-23T15:50:45Z</time>
      </trkpt>
      <trkpt lat="46.06724" lon="6.23973">
        <ele>916.879</ele>
        <time>2021-02-23T15:50:46Z</time>
      </trkpt>
      <trkpt lat="46.06734" lon="6.23977">
        <ele>917.693</ele>
        <time>2021-02-23T15:50:47Z</time>
      </trkpt>
      <trkpt lat="46.06743" lon="6.23982">
        <ele>918.327</ele>
        <time>2021-02-23T15:50:48Z</time>
      </trkpt>
      <trkpt lat="46.0675" lon="6.23983">
        <ele>918.879</ele>
        <time>2021-02-23T15:50:49Z</time>
      </trkpt>
      <trkpt lat="46.06756" lon="6.23981">
        <ele>919.105</ele>
        <time>2021-02-23T15:50:50Z</time>
      </trkpt>
      <trkpt lat="46.06761" lon="6.23975">
        <ele>919.625</ele>
        <time>2021-02-23T15:50:51Z</time>
      </trkpt>
      <trkpt lat="46.06766" lon="6.23968">
        <ele>920.208</ele>
        <time>2021-02-23T15:50:52Z</time>
      </trkpt>
      <trkpt lat="46.06773" lon="6.23959">
        <ele>920.873</ele>
        <time>2021-02-23T15:50:53Z</time>
      </trkpt>
      <trkpt lat="46.06781" lon="6.23948">
        <ele>921.534</ele>
        <time>2021-02-23T15:50:54Z</time>
      </trkpt>
      <trkpt lat="46.06792" lon="6.23935">
        <ele>922.085</ele>
        <time>2021-02-23T15:50:55Z</time>
      </trkpt>
      <trkpt lat="46.06802" lon="6.23924">
        <ele>922.658</ele>
        <time>2021-02-23T15:50:56Z</time>
      </trkpt>
      <trkpt lat="46.06812" lon="6.23915">
        <ele>923.141</ele>
        <time>2021-02-23T15:50:57Z</time>
      </trkpt>
      <trkpt lat="46.06823" lon="6.23912">
        <ele>923.884</ele>
        <time>2021-02-23T15:50:58Z</time>
      </trkpt>
      <trkpt lat="46.06833" lon="6.2391">
        <ele>924.668</ele>
        <time>2021-02-23T15:50:59Z</time>
      </trkpt>
      <trkpt lat="46.06847" lon="6.2391">
        <ele>925.642</ele>
        <time>2021-02-23T15:51:00Z</time>
      </trkpt>
      <trkpt lat="46.06859" lon="6.23909">
        <ele>926.867</ele>
        <time>2021-02-23T15:51:01Z</time>
      </trkpt>
      <trkpt lat="46.06872" lon="6.2391">
        <ele>928.081</ele>
        <time>2021-02-23T15:51:02Z</time>
      </trkpt>
      <trkpt lat="46.06883" lon="6.23908">
        <ele>929.219</ele>
        <time>2021-02-23T15:51:03Z</time>
      </trkpt>
      <trkpt lat="46.06894" lon="6.23904">
        <ele>930.408</ele>
        <time>2021-02-23T15:51:04Z</time>
      </trkpt>
      <trkpt lat="46.06905" lon="6.23895">
        <ele>931.422</ele>
        <time>2021-02-23T15:51:05Z</time>
      </trkpt>
      <trkpt lat="46.06914" lon="6.23885">
        <ele>932.463</ele>
        <time>2021-02-23T15:51:06Z</time>
      </trkpt>
      <trkpt lat="46.06923" lon="6.23873">
        <ele>933.534</ele>
        <time>2021-02-23T15:51:07Z</time>
      </trkpt>
      <trkpt lat="46.06931" lon="6.23859">
        <ele>934.477</ele>
        <time>2021-02-23T15:51:08Z</time>
      </trkpt>
      <trkpt lat="46.06937" lon="6.23846">
        <ele>935.02</ele>
        <time>2021-02-23T15:51:09Z</time>
      </trkpt>
      <trkpt lat="46.06942" lon="6.23831">
        <ele>935.543</ele>
        <time>2021-02-23T15:51:10Z</time>
      </trkpt>
      <trkpt lat="46.06944" lon="6.23814">
        <ele>935.967</ele>
        <time>2021-02-23T15:51:11Z</time>
      </trkpt>
      <trkpt lat="46.06943" lon="6.23799">
        <ele>936.031</ele>
        <time>2021-02-23T15:51:12Z</time>
      </trkpt>
      <trkpt lat="46.06939" lon="6.23783">
        <ele>936.287</ele>
        <time>2021-02-23T15:51:13Z</time>
      </trkpt>
      <trkpt lat="46.06933" lon="6.23765">
        <ele>936.542</ele>
        <time>2021-02-23T15:51:14Z</time>
      </trkpt>
      <trkpt lat="46.06929" lon="6.23749">
        <ele>936.626</ele>
        <time>2021-02-23T15:51:15Z</time>
      </trkpt>
      <trkpt lat="46.06928" lon="6.23736">
        <ele>936.608</ele>
        <time>2021-02-23T15:51:16Z</time>
      </trkpt>
      <trkpt lat="46.06929" lon="6.23723">
        <ele>936.634</ele>
        <time>2021-02-23T15:51:17Z</time>
      </trkpt>
      <trkpt lat="46.06934" lon="6.23708">
        <ele>936.645</ele>
        <time>2021-02-23T15:51:18Z</time>
      </trkpt>
      <trkpt lat="46.06942" lon="6.23697">
        <ele>936.716</ele>
        <time>2021-02-23T15:51:19Z</time>
      </trkpt>
      <trkpt lat="46.06951" lon="6.23683">
        <ele>937.189</ele>
        <time>2021-02-23T15:51:20Z</time>
      </trkpt>
      <trkpt lat="46.0696" lon="6.23667">
        <ele>937.332</ele>
        <time>2021-02-23T15:51:21Z</time>
      </trkpt>
      <trkpt lat="46.06969" lon="6.2365">
        <ele>937.545</ele>
        <time>2021-02-23T15:51:22Z</time>
      </trkpt>
      <trkpt lat="46.06977" lon="6.23635">
        <ele>937.829</ele>
        <time>2021-02-23T15:51:23Z</time>
      </trkpt>
      <trkpt lat="46.06987" lon="6.23625">
        <ele>937.833</ele>
        <time>2021-02-23T15:51:24Z</time>
      </trkpt>
      <trkpt lat="46.06999" lon="6.2362">
        <ele>937.735</ele>
        <time>2021-02-23T15:51:25Z</time>
      </trkpt>
      <trkpt lat="46.07011" lon="6.23619">
        <ele>937.786</ele>
        <time>2021-02-23T15:51:26Z</time>
      </trkpt>
      <trkpt lat="46.0702" lon="6.2362">
        <ele>937.814</ele>
        <time>2021-02-23T15:51:27Z</time>
      </trkpt>
      <trkpt lat="46.07027" lon="6.23621">
        <ele>937.908</ele>
        <time>2021-02-23T15:51:28Z</time>
      </trkpt>
      <trkpt lat="46.07033" lon="6.23622">
        <ele>938.029</ele>
        <time>2021-02-23T15:51:29Z</time>
      </trkpt>
      <trkpt lat="46.07038" lon="6.23623">
        <ele>938.29</ele>
        <time>2021-02-23T15:51:30Z</time>
      </trkpt>
      <trkpt lat="46.07047" lon="6.23625">
        <ele>938.551</ele>
        <time>2021-02-23T15:51:32Z</time>
      </trkpt>
      <trkpt lat="46.07053" lon="6.23625">
        <ele>938.674</ele>
        <time>2021-02-23T15:51:33Z</time>
      </trkpt>
      <trkpt lat="46.07061" lon="6.23622">
        <ele>938.817</ele>
        <time>2021-02-23T15:51:34Z</time>
      </trkpt>
      <trkpt lat="46.07071" lon="6.23621">
        <ele>939.01</ele>
        <time>2021-02-23T15:51:35Z</time>
      </trkpt>
      <trkpt lat="46.0708" lon="6.23623">
        <ele>939.334</ele>
        <time>2021-02-23T15:51:36Z</time>
      </trkpt>
      <trkpt lat="46.07089" lon="6.23623">
        <ele>939.448</ele>
        <time>2021-02-23T15:51:37Z</time>
      </trkpt>
      <trkpt lat="46.07098" lon="6.23624">
        <ele>939.665</ele>
        <time>2021-02-23T15:51:38Z</time>
      </trkpt>
      <trkpt lat="46.07104" lon="6.23624">
        <ele>939.668</ele>
        <time>2021-02-23T15:51:39Z</time>
      </trkpt>
      <trkpt lat="46.0711" lon="6.23623">
        <ele>939.614</ele>
        <time>2021-02-23T15:51:40Z</time>
      </trkpt>
      <trkpt lat="46.07115" lon="6.23622">
        <ele>939.508</ele>
        <time>2021-02-23T15:51:41Z</time>
      </trkpt>
      <trkpt lat="46.07122" lon="6.23621">
        <ele>939.262</ele>
        <time>2021-02-23T15:51:43Z</time>
      </trkpt>
      <trkpt lat="46.07127" lon="6.23619">
        <ele>938.933</ele>
        <time>2021-02-23T15:51:45Z</time>
      </trkpt>
      <trkpt lat="46.07133" lon="6.23622">
        <ele>938.524</ele>
        <time>2021-02-23T15:51:49Z</time>
      </trkpt>
      <trkpt lat="46.07137" lon="6.23624">
        <ele>938.627</ele>
        <time>2021-02-23T15:51:52Z</time>
      </trkpt>
      <trkpt lat="46.07144" lon="6.23621">
        <ele>938.66</ele>
        <time>2021-02-23T15:51:55Z</time>
      </trkpt>
      <trkpt lat="46.07151" lon="6.23624">
        <ele>938.493</ele>
        <time>2021-02-23T15:51:58Z</time>
      </trkpt>
      <trkpt lat="46.07157" lon="6.23626">
        <ele>938.327</ele>
        <time>2021-02-23T15:51:59Z</time>
      </trkpt>
      <trkpt lat="46.07162" lon="6.23627">
        <ele>938.161</ele>
        <time>2021-02-23T15:52:00Z</time>
      </trkpt>
      <trkpt lat="46.07167" lon="6.23627">
        <ele>938.022</ele>
        <time>2021-02-23T15:52:01Z</time>
      </trkpt>
      <trkpt lat="46.07175" lon="6.23629">
        <ele>937.662</ele>
        <time>2021-02-23T15:52:03Z</time>
      </trkpt>
      <trkpt lat="46.07182" lon="6.23628">
        <ele>937.208</ele>
        <time>2021-02-23T15:52:05Z</time>
      </trkpt>
      <trkpt lat="46.0719" lon="6.23625">
        <ele>936.508</ele>
        <time>2021-02-23T15:52:07Z</time>
      </trkpt>
      <trkpt lat="46.07195" lon="6.23625">
        <ele>936.228</ele>
        <time>2021-02-23T15:52:08Z</time>
      </trkpt>
      <trkpt lat="46.07203" lon="6.23626">
        <ele>935.429</ele>
        <time>2021-02-23T15:52:10Z</time>
      </trkpt>
      <trkpt lat="46.07211" lon="6.23628">
        <ele>934.52</ele>
        <time>2021-02-23T15:52:12Z</time>
      </trkpt>
      <trkpt lat="46.07219" lon="6.23624">
        <ele>932.463</ele>
        <time>2021-02-23T15:52:16Z</time>
      </trkpt>
      <trkpt lat="46.07225" lon="6.23624">
        <ele>931.266</ele>
        <time>2021-02-23T15:52:18Z</time>
      </trkpt>
      <trkpt lat="46.07233" lon="6.23624">
        <ele>930.039</ele>
        <time>2021-02-23T15:52:20Z</time>
      </trkpt>
      <trkpt lat="46.07241" lon="6.23624">
        <ele>928.813</ele>
        <time>2021-02-23T15:52:22Z</time>
      </trkpt>
      <trkpt lat="46.07245" lon="6.23621">
        <ele>928.327</ele>
        <time>2021-02-23T15:52:23Z</time>
      </trkpt>
      <trkpt lat="46.07251" lon="6.23616">
        <ele>927.792</ele>
        <time>2021-02-23T15:52:25Z</time>
      </trkpt>
      <trkpt lat="46.07256" lon="6.23616">
        <ele>927.573</ele>
        <time>2021-02-23T15:52:26Z</time>
      </trkpt>
      <trkpt lat="46.07262" lon="6.2362">
        <ele>927.22</ele>
        <time>2021-02-23T15:52:27Z</time>
      </trkpt>
      <trkpt lat="46.0727" lon="6.23624">
        <ele>926.908</ele>
        <time>2021-02-23T15:52:28Z</time>
      </trkpt>
      <trkpt lat="46.07275" lon="6.23632">
        <ele>926.675</ele>
        <time>2021-02-23T15:52:29Z</time>
      </trkpt>
      <trkpt lat="46.07282" lon="6.23641">
        <ele>926.376</ele>
        <time>2021-02-23T15:52:30Z</time>
      </trkpt>
      <trkpt lat="46.0729" lon="6.2365">
        <ele>926.067</ele>
        <time>2021-02-23T15:52:31Z</time>
      </trkpt>
      <trkpt lat="46.07298" lon="6.23656">
        <ele>925.77</ele>
        <time>2021-02-23T15:52:32Z</time>
      </trkpt>
      <trkpt lat="46.07305" lon="6.2366">
        <ele>925.473</ele>
        <time>2021-02-23T15:52:33Z</time>
      </trkpt>
      <trkpt lat="46.07314" lon="6.23662">
        <ele>925.086</ele>
        <time>2021-02-23T15:52:34Z</time>
      </trkpt>
      <trkpt lat="46.07323" lon="6.23662">
        <ele>924.64</ele>
        <time>2021-02-23T15:52:35Z</time>
      </trkpt>
      <trkpt lat="46.07333" lon="6.23659">
        <ele>924.154</ele>
        <time>2021-02-23T15:52:36Z</time>
      </trkpt>
      <trkpt lat="46.07342" lon="6.23653">
        <ele>923.777</ele>
        <time>2021-02-23T15:52:37Z</time>
      </trkpt>
      <trkpt lat="46.07352" lon="6.23649">
        <ele>923.361</ele>
        <time>2021-02-23T15:52:38Z</time>
      </trkpt>
      <trkpt lat="46.07364" lon="6.23647">
        <ele>923.127</ele>
        <time>2021-02-23T15:52:39Z</time>
      </trkpt>
      <trkpt lat="46.07376" lon="6.23647">
        <ele>922.808</ele>
        <time>2021-02-23T15:52:40Z</time>
      </trkpt>
      <trkpt lat="46.07388" lon="6.23647">
        <ele>922.583</ele>
        <time>2021-02-23T15:52:41Z</time>
      </trkpt>
      <trkpt lat="46.07399" lon="6.23646">
        <ele>922.294</ele>
        <time>2021-02-23T15:52:42Z</time>
      </trkpt>
      <trkpt lat="46.07409" lon="6.23645">
        <ele>921.895</ele>
        <time>2021-02-23T15:52:43Z</time>
      </trkpt>
      <trkpt lat="46.07419" lon="6.23643">
        <ele>921.228</ele>
        <time>2021-02-23T15:52:44Z</time>
      </trkpt>
      <trkpt lat="46.07429" lon="6.2364">
        <ele>920.671</ele>
        <time>2021-02-23T15:52:45Z</time>
      </trkpt>
      <trkpt lat="46.07438" lon="6.23635">
        <ele>920.054</ele>
        <time>2021-02-23T15:52:46Z</time>
      </trkpt>
      <trkpt lat="46.07448" lon="6.23627">
        <ele>919.428</ele>
        <time>2021-02-23T15:52:47Z</time>
      </trkpt>
      <trkpt lat="46.07457" lon="6.23618">
        <ele>918.972</ele>
        <time>2021-02-23T15:52:48Z</time>
      </trkpt>
      <trkpt lat="46.07467" lon="6.23607">
        <ele>918.474</ele>
        <time>2021-02-23T15:52:49Z</time>
      </trkpt>
      <trkpt lat="46.07476" lon="6.23597">
        <ele>918.056</ele>
        <time>2021-02-23T15:52:50Z</time>
      </trkpt>
      <trkpt lat="46.07487" lon="6.23587">
        <ele>917.221</ele>
        <time>2021-02-23T15:52:51Z</time>
      </trkpt>
      <trkpt lat="46.07499" lon="6.23577">
        <ele>916.408</ele>
        <time>2021-02-23T15:52:52Z</time>
      </trkpt>
      <trkpt lat="46.0751" lon="6.23568">
        <ele>915.533</ele>
        <time>2021-02-23T15:52:53Z</time>
      </trkpt>
      <trkpt lat="46.07521" lon="6.2356">
        <ele>914.864</ele>
        <time>2021-02-23T15:52:54Z</time>
      </trkpt>
      <trkpt lat="46.07532" lon="6.23553">
        <ele>914.175</ele>
        <time>2021-02-23T15:52:55Z</time>
      </trkpt>
      <trkpt lat="46.07544" lon="6.23548">
        <ele>913.628</ele>
        <time>2021-02-23T15:52:56Z</time>
      </trkpt>
      <trkpt lat="46.07556" lon="6.23543">
        <ele>913.411</ele>
        <time>2021-02-23T15:52:57Z</time>
      </trkpt>
      <trkpt lat="46.07568" lon="6.23539">
        <ele>913.234</ele>
        <time>2021-02-23T15:52:58Z</time>
      </trkpt>
      <trkpt lat="46.0758" lon="6.23537">
        <ele>913.068</ele>
        <time>2021-02-23T15:52:59Z</time>
      </trkpt>
      <trkpt lat="46.07591" lon="6.23535">
        <ele>912.722</ele>
        <time>2021-02-23T15:53:00Z</time>
      </trkpt>
      <trkpt lat="46.07603" lon="6.23533">
        <ele>912.599</ele>
        <time>2021-02-23T15:53:01Z</time>
      </trkpt>
      <trkpt lat="46.07613" lon="6.2353">
        <ele>912.307</ele>
        <time>2021-02-23T15:53:02Z</time>
      </trkpt>
      <trkpt lat="46.07622" lon="6.23527">
        <ele>912.027</ele>
        <time>2021-02-23T15:53:03Z</time>
      </trkpt>
      <trkpt lat="46.07629" lon="6.23524">
        <ele>911.608</ele>
        <time>2021-02-23T15:53:04Z</time>
      </trkpt>
      <trkpt lat="46.07634" lon="6.23523">
        <ele>911.315</ele>
        <time>2021-02-23T15:53:05Z</time>
      </trkpt>
      <trkpt lat="46.07639" lon="6.23526">
        <ele>911.066</ele>
        <time>2021-02-23T15:53:06Z</time>
      </trkpt>
      <trkpt lat="46.07644" lon="6.23527">
        <ele>910.867</ele>
        <time>2021-02-23T15:53:07Z</time>
      </trkpt>
      <trkpt lat="46.07653" lon="6.23526">
        <ele>910.84</ele>
        <time>2021-02-23T15:53:08Z</time>
      </trkpt>
      <trkpt lat="46.0766" lon="6.23524">
        <ele>910.823</ele>
        <time>2021-02-23T15:53:09Z</time>
      </trkpt>
      <trkpt lat="46.07664" lon="6.23522">
        <ele>911.096</ele>
        <time>2021-02-23T15:53:10Z</time>
      </trkpt>
      <trkpt lat="46.07669" lon="6.2352">
        <ele>911.31</ele>
        <time>2021-02-23T15:53:11Z</time>
      </trkpt>
      <trkpt lat="46.07675" lon="6.23519">
        <ele>911.624</ele>
        <time>2021-02-23T15:53:12Z</time>
      </trkpt>
      <trkpt lat="46.07679" lon="6.23516">
        <ele>911.651</ele>
        <time>2021-02-23T15:53:13Z</time>
      </trkpt>
      <trkpt lat="46.07684" lon="6.23514">
        <ele>911.601</ele>
        <time>2021-02-23T15:53:14Z</time>
      </trkpt>
      <trkpt lat="46.07692" lon="6.2351">
        <ele>911.111</ele>
        <time>2021-02-23T15:53:16Z</time>
      </trkpt>
      <trkpt lat="46.07697" lon="6.23507">
        <ele>910.708</ele>
        <time>2021-02-23T15:53:17Z</time>
      </trkpt>
      <trkpt lat="46.07702" lon="6.23504">
        <ele>910.341</ele>
        <time>2021-02-23T15:53:18Z</time>
      </trkpt>
      <trkpt lat="46.07707" lon="6.23503">
        <ele>909.912</ele>
        <time>2021-02-23T15:53:19Z</time>
      </trkpt>
      <trkpt lat="46.07713" lon="6.23503">
        <ele>909.483</ele>
        <time>2021-02-23T15:53:20Z</time>
      </trkpt>
      <trkpt lat="46.07719" lon="6.23505">
        <ele>908.926</ele>
        <time>2021-02-23T15:53:21Z</time>
      </trkpt>
      <trkpt lat="46.07727" lon="6.23506">
        <ele>908.219</ele>
        <time>2021-02-23T15:53:22Z</time>
      </trkpt>
      <trkpt lat="46.07734" lon="6.23506">
        <ele>907.432</ele>
        <time>2021-02-23T15:53:23Z</time>
      </trkpt>
      <trkpt lat="46.07739" lon="6.23507">
        <ele>906.696</ele>
        <time>2021-02-23T15:53:24Z</time>
      </trkpt>
      <trkpt lat="46.07744" lon="6.23508">
        <ele>905.75</ele>
        <time>2021-02-23T15:53:25Z</time>
      </trkpt>
      <trkpt lat="46.07752" lon="6.23509">
        <ele>904.414</ele>
        <time>2021-02-23T15:53:27Z</time>
      </trkpt>
      <trkpt lat="46.0776" lon="6.23511">
        <ele>903.654</ele>
        <time>2021-02-23T15:53:29Z</time>
      </trkpt>
      <trkpt lat="46.07766" lon="6.23513">
        <ele>903.309</ele>
        <time>2021-02-23T15:53:30Z</time>
      </trkpt>
      <trkpt lat="46.0777" lon="6.23516">
        <ele>902.708</ele>
        <time>2021-02-23T15:53:32Z</time>
      </trkpt>
      <trkpt lat="46.07778" lon="6.23515">
        <ele>901.917</ele>
        <time>2021-02-23T15:53:34Z</time>
      </trkpt>
      <trkpt lat="46.07783" lon="6.23513">
        <ele>901.558</ele>
        <time>2021-02-23T15:53:35Z</time>
      </trkpt>
      <trkpt lat="46.07788" lon="6.2351">
        <ele>901.129</ele>
        <time>2021-02-23T15:53:36Z</time>
      </trkpt>
      <trkpt lat="46.07794" lon="6.23507">
        <ele>900.682</ele>
        <time>2021-02-23T15:53:37Z</time>
      </trkpt>
      <trkpt lat="46.07801" lon="6.23506">
        <ele>900.225</ele>
        <time>2021-02-23T15:53:38Z</time>
      </trkpt>
      <trkpt lat="46.07808" lon="6.23505">
        <ele>899.838</ele>
        <time>2021-02-23T15:53:39Z</time>
      </trkpt>
      <trkpt lat="46.07816" lon="6.23505">
        <ele>899.422</ele>
        <time>2021-02-23T15:53:40Z</time>
      </trkpt>
      <trkpt lat="46.07822" lon="6.23505">
        <ele>899.056</ele>
        <time>2021-02-23T15:53:41Z</time>
      </trkpt>
      <trkpt lat="46.07833" lon="6.23508">
        <ele>897.448</ele>
        <time>2021-02-23T15:53:44Z</time>
      </trkpt>
      <trkpt lat="46.07838" lon="6.23506">
        <ele>896.861</ele>
        <time>2021-02-23T15:53:45Z</time>
      </trkpt>
      <trkpt lat="46.07843" lon="6.23504">
        <ele>896.117</ele>
        <time>2021-02-23T15:53:46Z</time>
      </trkpt>
      <trkpt lat="46.07849" lon="6.23501">
        <ele>895.508</ele>
        <time>2021-02-23T15:53:47Z</time>
      </trkpt>
      <trkpt lat="46.07854" lon="6.23499">
        <ele>894.74</ele>
        <time>2021-02-23T15:53:48Z</time>
      </trkpt>
      <trkpt lat="46.07859" lon="6.23497">
        <ele>893.931</ele>
        <time>2021-02-23T15:53:49Z</time>
      </trkpt>
      <trkpt lat="46.07868" lon="6.23492">
        <ele>892.152</ele>
        <time>2021-02-23T15:53:51Z</time>
      </trkpt>
      <trkpt lat="46.07873" lon="6.2349">
        <ele>891.345</ele>
        <time>2021-02-23T15:53:52Z</time>
      </trkpt>
      <trkpt lat="46.07881" lon="6.23482">
        <ele>890.668</ele>
        <time>2021-02-23T15:53:53Z</time>
      </trkpt>
      <trkpt lat="46.07885" lon="6.23481">
        <ele>890.061</ele>
        <time>2021-02-23T15:53:54Z</time>
      </trkpt>
      <trkpt lat="46.0789" lon="6.23477">
        <ele>889.665</ele>
        <time>2021-02-23T15:53:55Z</time>
      </trkpt>
      <trkpt lat="46.07895" lon="6.23474">
        <ele>889.469</ele>
        <time>2021-02-23T15:53:56Z</time>
      </trkpt>
      <trkpt lat="46.07902" lon="6.23471">
        <ele>889.173</ele>
        <time>2021-02-23T15:53:57Z</time>
      </trkpt>
      <trkpt lat="46.07917" lon="6.23474">
        <ele>888.785</ele>
        <time>2021-02-23T15:53:58Z</time>
      </trkpt>
      <trkpt lat="46.07927" lon="6.23473">
        <ele>888.013</ele>
        <time>2021-02-23T15:53:59Z</time>
      </trkpt>
      <trkpt lat="46.07939" lon="6.23476">
        <ele>887.008</ele>
        <time>2021-02-23T15:54:00Z</time>
      </trkpt>
      <trkpt lat="46.0795" lon="6.23479">
        <ele>885.733</ele>
        <time>2021-02-23T15:54:01Z</time>
      </trkpt>
      <trkpt lat="46.07957" lon="6.23482">
        <ele>884.384</ele>
        <time>2021-02-23T15:54:02Z</time>
      </trkpt>
      <trkpt lat="46.07965" lon="6.23486">
        <ele>882.895</ele>
        <time>2021-02-23T15:54:03Z</time>
      </trkpt>
      <trkpt lat="46.07972" lon="6.23488">
        <ele>881.358</ele>
        <time>2021-02-23T15:54:04Z</time>
      </trkpt>
      <trkpt lat="46.07979" lon="6.23491">
        <ele>879.961</ele>
        <time>2021-02-23T15:54:05Z</time>
      </trkpt>
      <trkpt lat="46.07988" lon="6.23495">
        <ele>878.554</ele>
        <time>2021-02-23T15:54:06Z</time>
      </trkpt>
      <trkpt lat="46.07995" lon="6.23496">
        <ele>877.188</ele>
        <time>2021-02-23T15:54:07Z</time>
      </trkpt>
      <trkpt lat="46.08004" lon="6.23498">
        <ele>875.832</ele>
        <time>2021-02-23T15:54:08Z</time>
      </trkpt>
      <trkpt lat="46.08014" lon="6.23498">
        <ele>874.696</ele>
        <time>2021-02-23T15:54:09Z</time>
      </trkpt>
      <trkpt lat="46.08024" lon="6.23498">
        <ele>873.531</ele>
        <time>2021-02-23T15:54:10Z</time>
      </trkpt>
      <trkpt lat="46.08036" lon="6.23498">
        <ele>872.324</ele>
        <time>2021-02-23T15:54:11Z</time>
      </trkpt>
      <trkpt lat="46.08047" lon="6.23494">
        <ele>871.108</ele>
        <time>2021-02-23T15:54:12Z</time>
      </trkpt>
      <trkpt lat="46.08055" lon="6.23488">
        <ele>870.075</ele>
        <time>2021-02-23T15:54:13Z</time>
      </trkpt>
      <trkpt lat="46.08064" lon="6.23478">
        <ele>868.976</ele>
        <time>2021-02-23T15:54:14Z</time>
      </trkpt>
      <trkpt lat="46.08073" lon="6.23468">
        <ele>867.927</ele>
        <time>2021-02-23T15:54:15Z</time>
      </trkpt>
      <trkpt lat="46.08082" lon="6.2346">
        <ele>867.26</ele>
        <time>2021-02-23T15:54:16Z</time>
      </trkpt>
      <trkpt lat="46.08089" lon="6.23454">
        <ele>866.783</ele>
        <time>2021-02-23T15:54:17Z</time>
      </trkpt>
      <trkpt lat="46.08099" lon="6.23447">
        <ele>866.396</ele>
        <time>2021-02-23T15:54:18Z</time>
      </trkpt>
      <trkpt lat="46.08108" lon="6.23441">
        <ele>866.05</ele>
        <time>2021-02-23T15:54:19Z</time>
      </trkpt>
      <trkpt lat="46.08117" lon="6.23435">
        <ele>866.094</ele>
        <time>2021-02-23T15:54:20Z</time>
      </trkpt>
      <trkpt lat="46.08127" lon="6.23428">
        <ele>865.964</ele>
        <time>2021-02-23T15:54:21Z</time>
      </trkpt>
      <trkpt lat="46.08136" lon="6.2342">
        <ele>865.706</ele>
        <time>2021-02-23T15:54:22Z</time>
      </trkpt>
      <trkpt lat="46.08143" lon="6.2341">
        <ele>865.216</ele>
        <time>2021-02-23T15:54:23Z</time>
      </trkpt>
      <trkpt lat="46.08151" lon="6.23398">
        <ele>864.608</ele>
        <time>2021-02-23T15:54:24Z</time>
      </trkpt>
      <trkpt lat="46.08155" lon="6.23385">
        <ele>863.622</ele>
        <time>2021-02-23T15:54:25Z</time>
      </trkpt>
      <trkpt lat="46.08158" lon="6.23373">
        <ele>862.493</ele>
        <time>2021-02-23T15:54:26Z</time>
      </trkpt>
      <trkpt lat="46.08161" lon="6.23362">
        <ele>861.114</ele>
        <time>2021-02-23T15:54:27Z</time>
      </trkpt>
      <trkpt lat="46.08172" lon="6.2335">
        <ele>859.917</ele>
        <time>2021-02-23T15:54:28Z</time>
      </trkpt>
      <trkpt lat="46.08181" lon="6.2334">
        <ele>858.65</ele>
        <time>2021-02-23T15:54:29Z</time>
      </trkpt>
      <trkpt lat="46.0819" lon="6.23329">
        <ele>857.393</ele>
        <time>2021-02-23T15:54:30Z</time>
      </trkpt>
      <trkpt lat="46.08198" lon="6.23317">
        <ele>855.867</ele>
        <time>2021-02-23T15:54:31Z</time>
      </trkpt>
      <trkpt lat="46.08204" lon="6.23304">
        <ele>854.161</ele>
        <time>2021-02-23T15:54:32Z</time>
      </trkpt>
      <trkpt lat="46.08209" lon="6.23292">
        <ele>852.245</ele>
        <time>2021-02-23T15:54:33Z</time>
      </trkpt>
      <trkpt lat="46.08212" lon="6.23281">
        <ele>850.247</ele>
        <time>2021-02-23T15:54:34Z</time>
      </trkpt>
      <trkpt lat="46.08212" lon="6.23266">
        <ele>846.711</ele>
        <time>2021-02-23T15:54:36Z</time>
      </trkpt>
      <trkpt lat="46.08212" lon="6.23257">
        <ele>845.408</ele>
        <time>2021-02-23T15:54:37Z</time>
      </trkpt>
      <trkpt lat="46.08212" lon="6.23247">
        <ele>844.24</ele>
        <time>2021-02-23T15:54:38Z</time>
      </trkpt>
      <trkpt lat="46.08212" lon="6.23239">
        <ele>842.931</ele>
        <time>2021-02-23T15:54:39Z</time>
      </trkpt>
      <trkpt lat="46.08211" lon="6.2323">
        <ele>841.692</ele>
        <time>2021-02-23T15:54:40Z</time>
      </trkpt>
      <trkpt lat="46.0821" lon="6.23217">
        <ele>840.285</ele>
        <time>2021-02-23T15:54:41Z</time>
      </trkpt>
      <trkpt lat="46.08207" lon="6.23202">
        <ele>838.858</ele>
        <time>2021-02-23T15:54:42Z</time>
      </trkpt>
      <trkpt lat="46.08206" lon="6.23188">
        <ele>837.571</ele>
        <time>2021-02-23T15:54:43Z</time>
      </trkpt>
      <trkpt lat="46.08205" lon="6.23176">
        <ele>836.575</ele>
        <time>2021-02-23T15:54:44Z</time>
      </trkpt>
      <trkpt lat="46.08203" lon="6.23159">
        <ele>835.779</ele>
        <time>2021-02-23T15:54:45Z</time>
      </trkpt>
      <trkpt lat="46.082" lon="6.23139">
        <ele>835.099</ele>
        <time>2021-02-23T15:54:46Z</time>
      </trkpt>
      <trkpt lat="46.08198" lon="6.23121">
        <ele>834.307</ele>
        <time>2021-02-23T15:54:47Z</time>
      </trkpt>
      <trkpt lat="46.08199" lon="6.23111">
        <ele>833.527</ele>
        <time>2021-02-23T15:54:48Z</time>
      </trkpt>
      <trkpt lat="46.08198" lon="6.231">
        <ele>832.708</ele>
        <time>2021-02-23T15:54:49Z</time>
      </trkpt>
      <trkpt lat="46.08202" lon="6.23095">
        <ele>831.825</ele>
        <time>2021-02-23T15:54:50Z</time>
      </trkpt>
      <trkpt lat="46.08207" lon="6.23095">
        <ele>830.956</ele>
        <time>2021-02-23T15:54:51Z</time>
      </trkpt>
      <trkpt lat="46.08214" lon="6.23095">
        <ele>830.117</ele>
        <time>2021-02-23T15:54:52Z</time>
      </trkpt>
      <trkpt lat="46.08219" lon="6.23102">
        <ele>829.41</ele>
        <time>2021-02-23T15:54:53Z</time>
      </trkpt>
      <trkpt lat="46.08225" lon="6.23112">
        <ele>828.843</ele>
        <time>2021-02-23T15:54:54Z</time>
      </trkpt>
      <trkpt lat="46.08234" lon="6.23121">
        <ele>828.396</ele>
        <time>2021-02-23T15:54:55Z</time>
      </trkpt>
      <trkpt lat="46.08243" lon="6.23131">
        <ele>827.89</ele>
        <time>2021-02-23T15:54:56Z</time>
      </trkpt>
      <trkpt lat="46.08255" lon="6.23138">
        <ele>827.354</ele>
        <time>2021-02-23T15:54:57Z</time>
      </trkpt>
      <trkpt lat="46.08268" lon="6.23141">
        <ele>826.621</ele>
        <time>2021-02-23T15:54:58Z</time>
      </trkpt>
      <trkpt lat="46.08282" lon="6.23141">
        <ele>825.941</ele>
        <time>2021-02-23T15:54:59Z</time>
      </trkpt>
      <trkpt lat="46.08294" lon="6.23141">
        <ele>825.205</ele>
        <time>2021-02-23T15:55:00Z</time>
      </trkpt>
      <trkpt lat="46.08307" lon="6.23142">
        <ele>824.308</ele>
        <time>2021-02-23T15:55:01Z</time>
      </trkpt>
      <trkpt lat="46.0832" lon="6.23143">
        <ele>823.448</ele>
        <time>2021-02-23T15:55:02Z</time>
      </trkpt>
      <trkpt lat="46.08332" lon="6.23144">
        <ele>822.649</ele>
        <time>2021-02-23T15:55:03Z</time>
      </trkpt>
      <trkpt lat="46.08343" lon="6.23144">
        <ele>821.69</ele>
        <time>2021-02-23T15:55:04Z</time>
      </trkpt>
      <trkpt lat="46.08355" lon="6.23143">
        <ele>820.693</ele>
        <time>2021-02-23T15:55:05Z</time>
      </trkpt>
      <trkpt lat="46.08366" lon="6.23142">
        <ele>819.896</ele>
        <time>2021-02-23T15:55:06Z</time>
      </trkpt>
      <trkpt lat="46.08377" lon="6.23139">
        <ele>819.189</ele>
        <time>2021-02-23T15:55:07Z</time>
      </trkpt>
      <trkpt lat="46.08388" lon="6.23132">
        <ele>818.393</ele>
        <time>2021-02-23T15:55:08Z</time>
      </trkpt>
      <trkpt lat="46.08399" lon="6.23123">
        <ele>817.717</ele>
        <time>2021-02-23T15:55:09Z</time>
      </trkpt>
      <trkpt lat="46.0841" lon="6.23113">
        <ele>817.364</ele>
        <time>2021-02-23T15:55:10Z</time>
      </trkpt>
      <trkpt lat="46.0842" lon="6.23103">
        <ele>816.806</ele>
        <time>2021-02-23T15:55:11Z</time>
      </trkpt>
      <trkpt lat="46.0843" lon="6.23093">
        <ele>816.416</ele>
        <time>2021-02-23T15:55:12Z</time>
      </trkpt>
      <trkpt lat="46.0844" lon="6.23084">
        <ele>816.108</ele>
        <time>2021-02-23T15:55:13Z</time>
      </trkpt>
      <trkpt lat="46.08448" lon="6.23075">
        <ele>815.672</ele>
        <time>2021-02-23T15:55:14Z</time>
      </trkpt>
      <trkpt lat="46.08458" lon="6.23067">
        <ele>815.023</ele>
        <time>2021-02-23T15:55:15Z</time>
      </trkpt>
      <trkpt lat="46.08468" lon="6.23061">
        <ele>814.494</ele>
        <time>2021-02-23T15:55:16Z</time>
      </trkpt>
      <trkpt lat="46.08477" lon="6.23053">
        <ele>813.897</ele>
        <time>2021-02-23T15:55:17Z</time>
      </trkpt>
      <trkpt lat="46.08488" lon="6.23047">
        <ele>813.12</ele>
        <time>2021-02-23T15:55:18Z</time>
      </trkpt>
      <trkpt lat="46.08497" lon="6.23044">
        <ele>812.743</ele>
        <time>2021-02-23T15:55:19Z</time>
      </trkpt>
      <trkpt lat="46.08506" lon="6.23043">
        <ele>812.337</ele>
        <time>2021-02-23T15:55:20Z</time>
      </trkpt>
      <trkpt lat="46.08512" lon="6.23039">
        <ele>812.291</ele>
        <time>2021-02-23T15:55:21Z</time>
      </trkpt>
      <trkpt lat="46.08516" lon="6.23031">
        <ele>811.968</ele>
        <time>2021-02-23T15:55:22Z</time>
      </trkpt>
      <trkpt lat="46.08517" lon="6.23022">
        <ele>811.642</ele>
        <time>2021-02-23T15:55:23Z</time>
      </trkpt>
      <trkpt lat="46.08514" lon="6.23015">
        <ele>811.226</ele>
        <time>2021-02-23T15:55:24Z</time>
      </trkpt>
      <trkpt lat="46.08507" lon="6.23009">
        <ele>810.708</ele>
        <time>2021-02-23T15:55:25Z</time>
      </trkpt>
      <trkpt lat="46.08499" lon="6.2301">
        <ele>810.132</ele>
        <time>2021-02-23T15:55:26Z</time>
      </trkpt>
      <trkpt lat="46.08489" lon="6.23012">
        <ele>809.523</ele>
        <time>2021-02-23T15:55:27Z</time>
      </trkpt>
      <trkpt lat="46.0848" lon="6.23011">
        <ele>809.094</ele>
        <time>2021-02-23T15:55:28Z</time>
      </trkpt>
      <trkpt lat="46.08471" lon="6.23007">
        <ele>808.477</ele>
        <time>2021-02-23T15:55:29Z</time>
      </trkpt>
      <trkpt lat="46.08463" lon="6.22999">
        <ele>807.89</ele>
        <time>2021-02-23T15:55:30Z</time>
      </trkpt>
      <trkpt lat="46.08459" lon="6.22987">
        <ele>807.223</ele>
        <time>2021-02-23T15:55:31Z</time>
      </trkpt>
      <trkpt lat="46.08458" lon="6.22974">
        <ele>806.777</ele>
        <time>2021-02-23T15:55:32Z</time>
      </trkpt>
      <trkpt lat="46.08461" lon="6.2296">
        <ele>806.011</ele>
        <time>2021-02-23T15:55:33Z</time>
      </trkpt>
      <trkpt lat="46.08469" lon="6.22949">
        <ele>805.216</ele>
        <time>2021-02-23T15:55:34Z</time>
      </trkpt>
      <trkpt lat="46.08479" lon="6.2294">
        <ele>804.176</ele>
        <time>2021-02-23T15:55:35Z</time>
      </trkpt>
      <trkpt lat="46.0849" lon="6.22931">
        <ele>802.713</ele>
        <time>2021-02-23T15:55:36Z</time>
      </trkpt>
      <trkpt lat="46.08502" lon="6.22919">
        <ele>801.108</ele>
        <time>2021-02-23T15:55:37Z</time>
      </trkpt>
      <trkpt lat="46.08515" lon="6.22904">
        <ele>799.467</ele>
        <time>2021-02-23T15:55:38Z</time>
      </trkpt>
      <trkpt lat="46.08527" lon="6.22891">
        <ele>797.768</ele>
        <time>2021-02-23T15:55:39Z</time>
      </trkpt>
      <trkpt lat="46.08542" lon="6.22878">
        <ele>796.489</ele>
        <time>2021-02-23T15:55:40Z</time>
      </trkpt>
      <trkpt lat="46.08558" lon="6.22868">
        <ele>795.592</ele>
        <time>2021-02-23T15:55:41Z</time>
      </trkpt>
      <trkpt lat="46.08576" lon="6.22864">
        <ele>794.865</ele>
        <time>2021-02-23T15:55:42Z</time>
      </trkpt>
      <trkpt lat="46.08594" lon="6.22864">
        <ele>794.358</ele>
        <time>2021-02-23T15:55:43Z</time>
      </trkpt>
      <trkpt lat="46.08613" lon="6.22869">
        <ele>794.072</ele>
        <time>2021-02-23T15:55:44Z</time>
      </trkpt>
      <trkpt lat="46.08632" lon="6.22876">
        <ele>793.466</ele>
        <time>2021-02-23T15:55:45Z</time>
      </trkpt>
      <trkpt lat="46.08651" lon="6.22879">
        <ele>793.139</ele>
        <time>2021-02-23T15:55:46Z</time>
      </trkpt>
      <trkpt lat="46.0867" lon="6.22878">
        <ele>792.801</ele>
        <time>2021-02-23T15:55:47Z</time>
      </trkpt>
      <trkpt lat="46.0869" lon="6.22876">
        <ele>792.421</ele>
        <time>2021-02-23T15:55:48Z</time>
      </trkpt>
      <trkpt lat="46.08709" lon="6.22876">
        <ele>791.808</ele>
        <time>2021-02-23T15:55:49Z</time>
      </trkpt>
      <trkpt lat="46.0873" lon="6.2288">
        <ele>791.529</ele>
        <time>2021-02-23T15:55:50Z</time>
      </trkpt>
      <trkpt lat="46.08751" lon="6.22889">
        <ele>790.92</ele>
        <time>2021-02-23T15:55:51Z</time>
      </trkpt>
      <trkpt lat="46.08772" lon="6.22902">
        <ele>790.011</ele>
        <time>2021-02-23T15:55:52Z</time>
      </trkpt>
      <trkpt lat="46.08791" lon="6.22916">
        <ele>789.764</ele>
        <time>2021-02-23T15:55:53Z</time>
      </trkpt>
      <trkpt lat="46.08809" lon="6.22929">
        <ele>789.777</ele>
        <time>2021-02-23T15:55:54Z</time>
      </trkpt>
      <trkpt lat="46.08828" lon="6.22941">
        <ele>789.29</ele>
        <time>2021-02-23T15:55:55Z</time>
      </trkpt>
      <trkpt lat="46.08845" lon="6.22954">
        <ele>788.964</ele>
        <time>2021-02-23T15:55:56Z</time>
      </trkpt>
      <trkpt lat="46.0886" lon="6.22969">
        <ele>788.728</ele>
        <time>2021-02-23T15:55:57Z</time>
      </trkpt>
      <trkpt lat="46.08874" lon="6.22984">
        <ele>788.689</ele>
        <time>2021-02-23T15:55:58Z</time>
      </trkpt>
      <trkpt lat="46.08884" lon="6.23001">
        <ele>788.606</ele>
        <time>2021-02-23T15:55:59Z</time>
      </trkpt>
      <trkpt lat="46.08893" lon="6.2302">
        <ele>789.226</ele>
        <time>2021-02-23T15:56:00Z</time>
      </trkpt>
      <trkpt lat="46.08904" lon="6.23034">
        <ele>789.708</ele>
        <time>2021-02-23T15:56:01Z</time>
      </trkpt>
      <trkpt lat="46.08918" lon="6.23045">
        <ele>790.384</ele>
        <time>2021-02-23T15:56:02Z</time>
      </trkpt>
      <trkpt lat="46.08935" lon="6.23049">
        <ele>790.625</ele>
        <time>2021-02-23T15:56:03Z</time>
      </trkpt>
      <trkpt lat="46.08951" lon="6.23048">
        <ele>790.636</ele>
        <time>2021-02-23T15:56:04Z</time>
      </trkpt>
      <trkpt lat="46.08968" lon="6.23043">
        <ele>790.149</ele>
        <time>2021-02-23T15:56:05Z</time>
      </trkpt>
      <trkpt lat="46.08987" lon="6.23036">
        <ele>789.532</ele>
        <time>2021-02-23T15:56:06Z</time>
      </trkpt>
      <trkpt lat="46.09007" lon="6.23029">
        <ele>788.765</ele>
        <time>2021-02-23T15:56:07Z</time>
      </trkpt>
      <trkpt lat="46.09027" lon="6.23026">
        <ele>787.899</ele>
        <time>2021-02-23T15:56:08Z</time>
      </trkpt>
      <trkpt lat="46.09047" lon="6.23029">
        <ele>787.353</ele>
        <time>2021-02-23T15:56:09Z</time>
      </trkpt>
      <trkpt lat="46.09066" lon="6.23035">
        <ele>786.755</ele>
        <time>2021-02-23T15:56:10Z</time>
      </trkpt>
      <trkpt lat="46.09083" lon="6.23047">
        <ele>786.007</ele>
        <time>2021-02-23T15:56:11Z</time>
      </trkpt>
      <trkpt lat="46.09098" lon="6.23064">
        <ele>786.017</ele>
        <time>2021-02-23T15:56:12Z</time>
      </trkpt>
      <trkpt lat="46.09113" lon="6.23084">
        <ele>786.008</ele>
        <time>2021-02-23T15:56:13Z</time>
      </trkpt>
      <trkpt lat="46.09129" lon="6.23106">
        <ele>786.011</ele>
        <time>2021-02-23T15:56:14Z</time>
      </trkpt>
      <trkpt lat="46.09145" lon="6.23129">
        <ele>785.552</ele>
        <time>2021-02-23T15:56:15Z</time>
      </trkpt>
      <trkpt lat="46.0916" lon="6.23149">
        <ele>785.443</ele>
        <time>2021-02-23T15:56:16Z</time>
      </trkpt>
      <trkpt lat="46.09174" lon="6.23169">
        <ele>785.486</ele>
        <time>2021-02-23T15:56:17Z</time>
      </trkpt>
      <trkpt lat="46.09188" lon="6.23187">
        <ele>784.969</ele>
        <time>2021-02-23T15:56:18Z</time>
      </trkpt>
      <trkpt lat="46.09201" lon="6.23205">
        <ele>784.222</ele>
        <time>2021-02-23T15:56:19Z</time>
      </trkpt>
      <trkpt lat="46.09215" lon="6.23221">
        <ele>784.286</ele>
        <time>2021-02-23T15:56:20Z</time>
      </trkpt>
      <trkpt lat="46.09232" lon="6.23234">
        <ele>783.92</ele>
        <time>2021-02-23T15:56:21Z</time>
      </trkpt>
      <trkpt lat="46.09251" lon="6.23244">
        <ele>783.132</ele>
        <time>2021-02-23T15:56:22Z</time>
      </trkpt>
      <trkpt lat="46.0927" lon="6.23255">
        <ele>782.192</ele>
        <time>2021-02-23T15:56:23Z</time>
      </trkpt>
      <trkpt lat="46.09287" lon="6.23268">
        <ele>781.311</ele>
        <time>2021-02-23T15:56:24Z</time>
      </trkpt>
      <trkpt lat="46.09304" lon="6.23285">
        <ele>780.708</ele>
        <time>2021-02-23T15:56:25Z</time>
      </trkpt>
      <trkpt lat="46.09321" lon="6.23302">
        <ele>780.479</ele>
        <time>2021-02-23T15:56:26Z</time>
      </trkpt>
      <trkpt lat="46.09339" lon="6.2332">
        <ele>780.47</ele>
        <time>2021-02-23T15:56:27Z</time>
      </trkpt>
      <trkpt lat="46.09356" lon="6.23338">
        <ele>780.661</ele>
        <time>2021-02-23T15:56:28Z</time>
      </trkpt>
      <trkpt lat="46.09375" lon="6.23356">
        <ele>780.824</ele>
        <time>2021-02-23T15:56:29Z</time>
      </trkpt>
      <trkpt lat="46.09393" lon="6.23372">
        <ele>780.867</ele>
        <time>2021-02-23T15:56:30Z</time>
      </trkpt>
      <trkpt lat="46.09412" lon="6.23389">
        <ele>780.54</ele>
        <time>2021-02-23T15:56:31Z</time>
      </trkpt>
      <trkpt lat="46.0943" lon="6.23404">
        <ele>779.474</ele>
        <time>2021-02-23T15:56:32Z</time>
      </trkpt>
      <trkpt lat="46.09446" lon="6.23419">
        <ele>778.578</ele>
        <time>2021-02-23T15:56:33Z</time>
      </trkpt>
      <trkpt lat="46.09462" lon="6.23436">
        <ele>777.873</ele>
        <time>2021-02-23T15:56:34Z</time>
      </trkpt>
      <trkpt lat="46.09477" lon="6.23456">
        <ele>777.885</ele>
        <time>2021-02-23T15:56:35Z</time>
      </trkpt>
      <trkpt lat="46.09492" lon="6.23477">
        <ele>777.913</ele>
        <time>2021-02-23T15:56:36Z</time>
      </trkpt>
      <trkpt lat="46.09506" lon="6.23498">
        <ele>778.308</ele>
        <time>2021-02-23T15:56:37Z</time>
      </trkpt>
      <trkpt lat="46.0952" lon="6.23518">
        <ele>778.543</ele>
        <time>2021-02-23T15:56:38Z</time>
      </trkpt>
      <trkpt lat="46.09533" lon="6.23536">
        <ele>778.544</ele>
        <time>2021-02-23T15:56:39Z</time>
      </trkpt>
      <trkpt lat="46.09545" lon="6.23554">
        <ele>778.585</ele>
        <time>2021-02-23T15:56:40Z</time>
      </trkpt>
      <trkpt lat="46.09558" lon="6.23574">
        <ele>777.768</ele>
        <time>2021-02-23T15:56:41Z</time>
      </trkpt>
      <trkpt lat="46.0957" lon="6.23592">
        <ele>777.731</ele>
        <time>2021-02-23T15:56:42Z</time>
      </trkpt>
      <trkpt lat="46.09582" lon="6.23606">
        <ele>777.844</ele>
        <time>2021-02-23T15:56:43Z</time>
      </trkpt>
      <trkpt lat="46.09596" lon="6.23618">
        <ele>777.838</ele>
        <time>2021-02-23T15:56:44Z</time>
      </trkpt>
      <trkpt lat="46.09614" lon="6.23622">
        <ele>777.732</ele>
        <time>2021-02-23T15:56:45Z</time>
      </trkpt>
      <trkpt lat="46.09634" lon="6.23624">
        <ele>777.595</ele>
        <time>2021-02-23T15:56:46Z</time>
      </trkpt>
      <trkpt lat="46.09655" lon="6.23623">
        <ele>776.949</ele>
        <time>2021-02-23T15:56:47Z</time>
      </trkpt>
      <trkpt lat="46.09675" lon="6.23622">
        <ele>775.223</ele>
        <time>2021-02-23T15:56:48Z</time>
      </trkpt>
      <trkpt lat="46.09695" lon="6.2362">
        <ele>774.008</ele>
        <time>2021-02-23T15:56:49Z</time>
      </trkpt>
      <trkpt lat="46.09713" lon="6.23621">
        <ele>773.085</ele>
        <time>2021-02-23T15:56:50Z</time>
      </trkpt>
      <trkpt lat="46.09732" lon="6.23623">
        <ele>772.196</ele>
        <time>2021-02-23T15:56:51Z</time>
      </trkpt>
      <trkpt lat="46.09751" lon="6.23629">
        <ele>771.637</ele>
        <time>2021-02-23T15:56:52Z</time>
      </trkpt>
      <trkpt lat="46.09771" lon="6.23638">
        <ele>771.65</ele>
        <time>2021-02-23T15:56:53Z</time>
      </trkpt>
      <trkpt lat="46.09791" lon="6.2365">
        <ele>771.623</ele>
        <time>2021-02-23T15:56:54Z</time>
      </trkpt>
      <trkpt lat="46.0981" lon="6.23665">
        <ele>771.646</ele>
        <time>2021-02-23T15:56:55Z</time>
      </trkpt>
      <trkpt lat="46.09827" lon="6.23679">
        <ele>771.77</ele>
        <time>2021-02-23T15:56:56Z</time>
      </trkpt>
      <trkpt lat="46.09843" lon="6.23693">
        <ele>772.084</ele>
        <time>2021-02-23T15:56:57Z</time>
      </trkpt>
      <trkpt lat="46.09859" lon="6.23707">
        <ele>772.018</ele>
        <time>2021-02-23T15:56:58Z</time>
      </trkpt>
      <trkpt lat="46.09876" lon="6.23722">
        <ele>772.098</ele>
        <time>2021-02-23T15:56:59Z</time>
      </trkpt>
      <trkpt lat="46.09894" lon="6.2374">
        <ele>772.017</ele>
        <time>2021-02-23T15:57:00Z</time>
      </trkpt>
      <trkpt lat="46.09911" lon="6.23758">
        <ele>771.308</ele>
        <time>2021-02-23T15:57:01Z</time>
      </trkpt>
      <trkpt lat="46.09927" lon="6.23776">
        <ele>770.627</ele>
        <time>2021-02-23T15:57:02Z</time>
      </trkpt>
      <trkpt lat="46.09942" lon="6.23792">
        <ele>770.368</ele>
        <time>2021-02-23T15:57:03Z</time>
      </trkpt>
      <trkpt lat="46.09957" lon="6.23808">
        <ele>770.059</ele>
        <time>2021-02-23T15:57:04Z</time>
      </trkpt>
      <trkpt lat="46.09974" lon="6.23824">
        <ele>769.812</ele>
        <time>2021-02-23T15:57:05Z</time>
      </trkpt>
      <trkpt lat="46.09994" lon="6.23837">
        <ele>769.665</ele>
        <time>2021-02-23T15:57:06Z</time>
      </trkpt>
      <trkpt lat="46.10015" lon="6.23847">
        <ele>769.428</ele>
        <time>2021-02-23T15:57:07Z</time>
      </trkpt>
      <trkpt lat="46.10035" lon="6.23855">
        <ele>768.462</ele>
        <time>2021-02-23T15:57:08Z</time>
      </trkpt>
      <trkpt lat="46.10054" lon="6.23865">
        <ele>767.266</ele>
        <time>2021-02-23T15:57:09Z</time>
      </trkpt>
      <trkpt lat="46.1007" lon="6.23874">
        <ele>766.774</ele>
        <time>2021-02-23T15:57:10Z</time>
      </trkpt>
      <trkpt lat="46.10088" lon="6.23886">
        <ele>766.556</ele>
        <time>2021-02-23T15:57:11Z</time>
      </trkpt>
      <trkpt lat="46.10105" lon="6.23903">
        <ele>766.021</ele>
        <time>2021-02-23T15:57:12Z</time>
      </trkpt>
      <trkpt lat="46.10122" lon="6.23925">
        <ele>766.008</ele>
        <time>2021-02-23T15:57:13Z</time>
      </trkpt>
      <trkpt lat="46.10139" lon="6.23946">
        <ele>765.873</ele>
        <time>2021-02-23T15:57:14Z</time>
      </trkpt>
      <trkpt lat="46.10155" lon="6.23961">
        <ele>764.764</ele>
        <time>2021-02-23T15:57:15Z</time>
      </trkpt>
      <trkpt lat="46.10172" lon="6.23974">
        <ele>763.245</ele>
        <time>2021-02-23T15:57:16Z</time>
      </trkpt>
      <trkpt lat="46.10192" lon="6.23989">
        <ele>762.358</ele>
        <time>2021-02-23T15:57:17Z</time>
      </trkpt>
      <trkpt lat="46.10212" lon="6.24002">
        <ele>761.851</ele>
        <time>2021-02-23T15:57:18Z</time>
      </trkpt>
      <trkpt lat="46.10231" lon="6.24014">
        <ele>761.334</ele>
        <time>2021-02-23T15:57:19Z</time>
      </trkpt>
      <trkpt lat="46.1025" lon="6.24028">
        <ele>761.038</ele>
        <time>2021-02-23T15:57:20Z</time>
      </trkpt>
      <trkpt lat="46.10266" lon="6.24041">
        <ele>760.852</ele>
        <time>2021-02-23T15:57:21Z</time>
      </trkpt>
      <trkpt lat="46.10283" lon="6.24052">
        <ele>760.143</ele>
        <time>2021-02-23T15:57:22Z</time>
      </trkpt>
      <trkpt lat="46.10301" lon="6.24063">
        <ele>759.264</ele>
        <time>2021-02-23T15:57:23Z</time>
      </trkpt>
      <trkpt lat="46.10319" lon="6.24073">
        <ele>758.71</ele>
        <time>2021-02-23T15:57:24Z</time>
      </trkpt>
      <trkpt lat="46.10336" lon="6.24084">
        <ele>757.908</ele>
        <time>2021-02-23T15:57:25Z</time>
      </trkpt>
      <trkpt lat="46.10354" lon="6.2409">
        <ele>757.01</ele>
        <time>2021-02-23T15:57:26Z</time>
      </trkpt>
      <trkpt lat="46.10373" lon="6.24096">
        <ele>756.321</ele>
        <time>2021-02-23T15:57:27Z</time>
      </trkpt>
      <trkpt lat="46.10394" lon="6.24102">
        <ele>755.622</ele>
        <time>2021-02-23T15:57:28Z</time>
      </trkpt>
      <trkpt lat="46.10413" lon="6.24108">
        <ele>753.775</ele>
        <time>2021-02-23T15:57:29Z</time>
      </trkpt>
      <trkpt lat="46.10431" lon="6.24113">
        <ele>753.138</ele>
        <time>2021-02-23T15:57:30Z</time>
      </trkpt>
      <trkpt lat="46.10448" lon="6.24119">
        <ele>752.531</ele>
        <time>2021-02-23T15:57:31Z</time>
      </trkpt>
      <trkpt lat="46.10467" lon="6.24127">
        <ele>751.965</ele>
        <time>2021-02-23T15:57:32Z</time>
      </trkpt>
      <trkpt lat="46.10486" lon="6.24138">
        <ele>751.819</ele>
        <time>2021-02-23T15:57:33Z</time>
      </trkpt>
      <trkpt lat="46.10505" lon="6.2415">
        <ele>751.471</ele>
        <time>2021-02-23T15:57:34Z</time>
      </trkpt>
      <trkpt lat="46.10525" lon="6.24161">
        <ele>751.041</ele>
        <time>2021-02-23T15:57:35Z</time>
      </trkpt>
      <trkpt lat="46.10545" lon="6.24169">
        <ele>750.015</ele>
        <time>2021-02-23T15:57:36Z</time>
      </trkpt>
      <trkpt lat="46.10564" lon="6.24175">
        <ele>749.008</ele>
        <time>2021-02-23T15:57:37Z</time>
      </trkpt>
      <trkpt lat="46.10583" lon="6.2418">
        <ele>747.693</ele>
        <time>2021-02-23T15:57:38Z</time>
      </trkpt>
      <trkpt lat="46.10602" lon="6.24186">
        <ele>746.134</ele>
        <time>2021-02-23T15:57:39Z</time>
      </trkpt>
      <trkpt lat="46.10621" lon="6.24192">
        <ele>745.285</ele>
        <time>2021-02-23T15:57:40Z</time>
      </trkpt>
      <trkpt lat="46.10641" lon="6.24197">
        <ele>744.428</ele>
        <time>2021-02-23T15:57:41Z</time>
      </trkpt>
      <trkpt lat="46.1066" lon="6.24202">
        <ele>743.361</ele>
        <time>2021-02-23T15:57:42Z</time>
      </trkpt>
      <trkpt lat="46.10679" lon="6.24207">
        <ele>742.254</ele>
        <time>2021-02-23T15:57:43Z</time>
      </trkpt>
      <trkpt lat="46.10697" lon="6.24213">
        <ele>741.578</ele>
        <time>2021-02-23T15:57:44Z</time>
      </trkpt>
      <trkpt lat="46.10713" lon="6.2422">
        <ele>740.542</ele>
        <time>2021-02-23T15:57:45Z</time>
      </trkpt>
      <trkpt lat="46.10728" lon="6.24228">
        <ele>739.779</ele>
        <time>2021-02-23T15:57:46Z</time>
      </trkpt>
      <trkpt lat="46.10742" lon="6.2424">
        <ele>739.005</ele>
        <time>2021-02-23T15:57:47Z</time>
      </trkpt>
      <trkpt lat="46.10755" lon="6.24253">
        <ele>738.625</ele>
        <time>2021-02-23T15:57:48Z</time>
      </trkpt>
      <trkpt lat="46.10766" lon="6.24268">
        <ele>738.008</ele>
        <time>2021-02-23T15:57:49Z</time>
      </trkpt>
      <trkpt lat="46.10776" lon="6.24283">
        <ele>737.533</ele>
        <time>2021-02-23T15:57:50Z</time>
      </trkpt>
      <trkpt lat="46.10785" lon="6.243">
        <ele>736.914</ele>
        <time>2021-02-23T15:57:51Z</time>
      </trkpt>
      <trkpt lat="46.10794" lon="6.24316">
        <ele>736.425</ele>
        <time>2021-02-23T15:57:52Z</time>
      </trkpt>
      <trkpt lat="46.10802" lon="6.24334">
        <ele>735.928</ele>
        <time>2021-02-23T15:57:53Z</time>
      </trkpt>
      <trkpt lat="46.10808" lon="6.24354">
        <ele>735.451</ele>
        <time>2021-02-23T15:57:54Z</time>
      </trkpt>
      <trkpt lat="46.10814" lon="6.24377">
        <ele>735.074</ele>
        <time>2021-02-23T15:57:55Z</time>
      </trkpt>
      <trkpt lat="46.10818" lon="6.24402">
        <ele>734.618</ele>
        <time>2021-02-23T15:57:56Z</time>
      </trkpt>
      <trkpt lat="46.10823" lon="6.24427">
        <ele>734.322</ele>
        <time>2021-02-23T15:57:57Z</time>
      </trkpt>
      <trkpt lat="46.10825" lon="6.24453">
        <ele>733.898</ele>
        <time>2021-02-23T15:57:58Z</time>
      </trkpt>
      <trkpt lat="46.10827" lon="6.24478">
        <ele>733.215</ele>
        <time>2021-02-23T15:57:59Z</time>
      </trkpt>
      <trkpt lat="46.10827" lon="6.24504">
        <ele>732.526</ele>
        <time>2021-02-23T15:58:00Z</time>
      </trkpt>
      <trkpt lat="46.10827" lon="6.2453">
        <ele>731.608</ele>
        <time>2021-02-23T15:58:01Z</time>
      </trkpt>
      <trkpt lat="46.10826" lon="6.24556">
        <ele>730.645</ele>
        <time>2021-02-23T15:58:02Z</time>
      </trkpt>
      <trkpt lat="46.10825" lon="6.24581">
        <ele>729.846</ele>
        <time>2021-02-23T15:58:03Z</time>
      </trkpt>
      <trkpt lat="46.10824" lon="6.24605">
        <ele>728.957</ele>
        <time>2021-02-23T15:58:04Z</time>
      </trkpt>
      <trkpt lat="46.10823" lon="6.24628">
        <ele>728.17</ele>
        <time>2021-02-23T15:58:05Z</time>
      </trkpt>
      <trkpt lat="46.10822" lon="6.2465">
        <ele>727.543</ele>
        <time>2021-02-23T15:58:06Z</time>
      </trkpt>
      <trkpt lat="46.1082" lon="6.2467">
        <ele>726.876</ele>
        <time>2021-02-23T15:58:07Z</time>
      </trkpt>
      <trkpt lat="46.10817" lon="6.24688">
        <ele>725.82</ele>
        <time>2021-02-23T15:58:08Z</time>
      </trkpt>
      <trkpt lat="46.10815" lon="6.24703">
        <ele>724.914</ele>
        <time>2021-02-23T15:58:09Z</time>
      </trkpt>
      <trkpt lat="46.10813" lon="6.24719">
        <ele>724.272</ele>
        <time>2021-02-23T15:58:10Z</time>
      </trkpt>
      <trkpt lat="46.10812" lon="6.24737">
        <ele>723.513</ele>
        <time>2021-02-23T15:58:11Z</time>
      </trkpt>
      <trkpt lat="46.1081" lon="6.24756">
        <ele>722.814</ele>
        <time>2021-02-23T15:58:12Z</time>
      </trkpt>
      <trkpt lat="46.10808" lon="6.24776">
        <ele>722.508</ele>
        <time>2021-02-23T15:58:13Z</time>
      </trkpt>
      <trkpt lat="46.10807" lon="6.248">
        <ele>722.273</ele>
        <time>2021-02-23T15:58:14Z</time>
      </trkpt>
      <trkpt lat="46.10807" lon="6.24824">
        <ele>721.664</ele>
        <time>2021-02-23T15:58:15Z</time>
      </trkpt>
      <trkpt lat="46.1081" lon="6.2485">
        <ele>720.795</ele>
        <time>2021-02-23T15:58:16Z</time>
      </trkpt>
      <trkpt lat="46.10813" lon="6.24879">
        <ele>719.518</ele>
        <time>2021-02-23T15:58:17Z</time>
      </trkpt>
      <trkpt lat="46.10819" lon="6.24909">
        <ele>718.211</ele>
        <time>2021-02-23T15:58:18Z</time>
      </trkpt>
      <trkpt lat="46.10823" lon="6.24938">
        <ele>716.744</ele>
        <time>2021-02-23T15:58:19Z</time>
      </trkpt>
      <trkpt lat="46.10823" lon="6.24968">
        <ele>715.198</ele>
        <time>2021-02-23T15:58:20Z</time>
      </trkpt>
      <trkpt lat="46.10826" lon="6.24995">
        <ele>713.752</ele>
        <time>2021-02-23T15:58:21Z</time>
      </trkpt>
      <trkpt lat="46.10826" lon="6.2502">
        <ele>712.652</ele>
        <time>2021-02-23T15:58:22Z</time>
      </trkpt>
      <trkpt lat="46.10825" lon="6.25045">
        <ele>711.653</ele>
        <time>2021-02-23T15:58:23Z</time>
      </trkpt>
      <trkpt lat="46.10825" lon="6.25068">
        <ele>710.908</ele>
        <time>2021-02-23T15:58:24Z</time>
      </trkpt>
      <trkpt lat="46.10824" lon="6.25092">
        <ele>710.408</ele>
        <time>2021-02-23T15:58:25Z</time>
      </trkpt>
      <trkpt lat="46.10824" lon="6.25115">
        <ele>709.851</ele>
        <time>2021-02-23T15:58:26Z</time>
      </trkpt>
      <trkpt lat="46.10825" lon="6.25138">
        <ele>709.492</ele>
        <time>2021-02-23T15:58:27Z</time>
      </trkpt>
      <trkpt lat="46.10827" lon="6.25161">
        <ele>709.043</ele>
        <time>2021-02-23T15:58:28Z</time>
      </trkpt>
      <trkpt lat="46.10832" lon="6.25185">
        <ele>708.456</ele>
        <time>2021-02-23T15:58:29Z</time>
      </trkpt>
      <trkpt lat="46.10839" lon="6.25211">
        <ele>707.869</ele>
        <time>2021-02-23T15:58:30Z</time>
      </trkpt>
      <trkpt lat="46.10847" lon="6.25235">
        <ele>706.732</ele>
        <time>2021-02-23T15:58:31Z</time>
      </trkpt>
      <trkpt lat="46.10854" lon="6.25261">
        <ele>704.956</ele>
        <time>2021-02-23T15:58:32Z</time>
      </trkpt>
      <trkpt lat="46.10859" lon="6.25285">
        <ele>703.04</ele>
        <time>2021-02-23T15:58:33Z</time>
      </trkpt>
      <trkpt lat="46.10861" lon="6.25311">
        <ele>701.332</ele>
        <time>2021-02-23T15:58:34Z</time>
      </trkpt>
      <trkpt lat="46.10859" lon="6.25337">
        <ele>699.892</ele>
        <time>2021-02-23T15:58:35Z</time>
      </trkpt>
      <trkpt lat="46.10855" lon="6.25364">
        <ele>699.011</ele>
        <time>2021-02-23T15:58:36Z</time>
      </trkpt>
      <trkpt lat="46.1085" lon="6.25393">
        <ele>698.508</ele>
        <time>2021-02-23T15:58:37Z</time>
      </trkpt>
      <trkpt lat="46.10846" lon="6.25421">
        <ele>698.049</ele>
        <time>2021-02-23T15:58:38Z</time>
      </trkpt>
      <trkpt lat="46.10842" lon="6.25448">
        <ele>697.23</ele>
        <time>2021-02-23T15:58:39Z</time>
      </trkpt>
      <trkpt lat="46.10839" lon="6.25474">
        <ele>696.031</ele>
        <time>2021-02-23T15:58:40Z</time>
      </trkpt>
      <trkpt lat="46.10836" lon="6.25498">
        <ele>694.784</ele>
        <time>2021-02-23T15:58:41Z</time>
      </trkpt>
      <trkpt lat="46.10832" lon="6.25524">
        <ele>693.717</ele>
        <time>2021-02-23T15:58:42Z</time>
      </trkpt>
      <trkpt lat="46.10829" lon="6.2555">
        <ele>692.83</ele>
        <time>2021-02-23T15:58:43Z</time>
      </trkpt>
      <trkpt lat="46.10825" lon="6.25576">
        <ele>692.284</ele>
        <time>2021-02-23T15:58:44Z</time>
      </trkpt>
      <trkpt lat="46.10819" lon="6.25605">
        <ele>691.488</ele>
        <time>2021-02-23T15:58:45Z</time>
      </trkpt>
      <trkpt lat="46.10811" lon="6.25633">
        <ele>690.577</ele>
        <time>2021-02-23T15:58:46Z</time>
      </trkpt>
      <trkpt lat="46.10802" lon="6.25658">
        <ele>689.661</ele>
        <time>2021-02-23T15:58:47Z</time>
      </trkpt>
      <trkpt lat="46.10794" lon="6.25683">
        <ele>688.527</ele>
        <time>2021-02-23T15:58:48Z</time>
      </trkpt>
      <trkpt lat="46.10786" lon="6.25706">
        <ele>687.308</ele>
        <time>2021-02-23T15:58:49Z</time>
      </trkpt>
      <trkpt lat="46.10778" lon="6.25728">
        <ele>686.453</ele>
        <time>2021-02-23T15:58:50Z</time>
      </trkpt>
      <trkpt lat="46.10771" lon="6.2575">
        <ele>685.834</ele>
        <time>2021-02-23T15:58:51Z</time>
      </trkpt>
      <trkpt lat="46.10765" lon="6.25771">
        <ele>685.395</ele>
        <time>2021-02-23T15:58:52Z</time>
      </trkpt>
      <trkpt lat="46.10759" lon="6.25792">
        <ele>684.668</ele>
        <time>2021-02-23T15:58:53Z</time>
      </trkpt>
      <trkpt lat="46.10754" lon="6.25812">
        <ele>683.961</ele>
        <time>2021-02-23T15:58:54Z</time>
      </trkpt>
      <trkpt lat="46.1075" lon="6.25831">
        <ele>683.024</ele>
        <time>2021-02-23T15:58:55Z</time>
      </trkpt>
      <trkpt lat="46.10747" lon="6.25849">
        <ele>682.068</ele>
        <time>2021-02-23T15:58:56Z</time>
      </trkpt>
      <trkpt lat="46.10745" lon="6.25867">
        <ele>680.872</ele>
        <time>2021-02-23T15:58:57Z</time>
      </trkpt>
      <trkpt lat="46.10741" lon="6.25886">
        <ele>679.997</ele>
        <time>2021-02-23T15:58:58Z</time>
      </trkpt>
      <trkpt lat="46.10737" lon="6.25905">
        <ele>679.023</ele>
        <time>2021-02-23T15:58:59Z</time>
      </trkpt>
      <trkpt lat="46.10735" lon="6.25927">
        <ele>678.025</ele>
        <time>2021-02-23T15:59:00Z</time>
      </trkpt>
      <trkpt lat="46.10732" lon="6.25949">
        <ele>677.408</ele>
        <time>2021-02-23T15:59:01Z</time>
      </trkpt>
      <trkpt lat="46.10725" lon="6.25972">
        <ele>676.635</ele>
        <time>2021-02-23T15:59:02Z</time>
      </trkpt>
      <trkpt lat="46.10716" lon="6.25995">
        <ele>675.416</ele>
        <time>2021-02-23T15:59:03Z</time>
      </trkpt>
      <trkpt lat="46.10702" lon="6.26015">
        <ele>674.587</ele>
        <time>2021-02-23T15:59:04Z</time>
      </trkpt>
      <trkpt lat="46.10689" lon="6.26035">
        <ele>674.03</ele>
        <time>2021-02-23T15:59:05Z</time>
      </trkpt>
      <trkpt lat="46.10676" lon="6.26053">
        <ele>672.853</ele>
        <time>2021-02-23T15:59:06Z</time>
      </trkpt>
      <trkpt lat="46.10663" lon="6.26071">
        <ele>671.666</ele>
        <time>2021-02-23T15:59:07Z</time>
      </trkpt>
      <trkpt lat="46.10651" lon="6.26088">
        <ele>670.85</ele>
        <time>2021-02-23T15:59:08Z</time>
      </trkpt>
      <trkpt lat="46.10637" lon="6.26103">
        <ele>669.824</ele>
        <time>2021-02-23T15:59:09Z</time>
      </trkpt>
      <trkpt lat="46.10625" lon="6.26117">
        <ele>668.639</ele>
        <time>2021-02-23T15:59:10Z</time>
      </trkpt>
      <trkpt lat="46.10615" lon="6.26134">
        <ele>668.001</ele>
        <time>2021-02-23T15:59:11Z</time>
      </trkpt>
      <trkpt lat="46.10607" lon="6.26152">
        <ele>667.421</ele>
        <time>2021-02-23T15:59:12Z</time>
      </trkpt>
      <trkpt lat="46.10598" lon="6.26175">
        <ele>666.108</ele>
        <time>2021-02-23T15:59:13Z</time>
      </trkpt>
      <trkpt lat="46.10591" lon="6.26197">
        <ele>664.829</ele>
        <time>2021-02-23T15:59:14Z</time>
      </trkpt>
      <trkpt lat="46.10584" lon="6.26221">
        <ele>663.74</ele>
        <time>2021-02-23T15:59:15Z</time>
      </trkpt>
      <trkpt lat="46.10573" lon="6.26241">
        <ele>662.721</ele>
        <time>2021-02-23T15:59:16Z</time>
      </trkpt>
      <trkpt lat="46.10559" lon="6.26258">
        <ele>661.814</ele>
        <time>2021-02-23T15:59:17Z</time>
      </trkpt>
      <trkpt lat="46.10542" lon="6.26273">
        <ele>661.147</ele>
        <time>2021-02-23T15:59:18Z</time>
      </trkpt>
      <trkpt lat="46.10525" lon="6.26288">
        <ele>659.94</ele>
        <time>2021-02-23T15:59:19Z</time>
      </trkpt>
      <trkpt lat="46.10509" lon="6.26304">
        <ele>659.284</ele>
        <time>2021-02-23T15:59:20Z</time>
      </trkpt>
      <trkpt lat="46.10494" lon="6.26319">
        <ele>657.938</ele>
        <time>2021-02-23T15:59:21Z</time>
      </trkpt>
      <trkpt lat="46.10479" lon="6.26335">
        <ele>656.933</ele>
        <time>2021-02-23T15:59:22Z</time>
      </trkpt>
      <trkpt lat="46.10467" lon="6.26353">
        <ele>655.723</ele>
        <time>2021-02-23T15:59:23Z</time>
      </trkpt>
      <trkpt lat="46.10455" lon="6.26373">
        <ele>655.115</ele>
        <time>2021-02-23T15:59:24Z</time>
      </trkpt>
      <trkpt lat="46.10444" lon="6.26394">
        <ele>654.008</ele>
        <time>2021-02-23T15:59:25Z</time>
      </trkpt>
      <trkpt lat="46.10433" lon="6.26414">
        <ele>652.889</ele>
        <time>2021-02-23T15:59:26Z</time>
      </trkpt>
      <trkpt lat="46.10421" lon="6.26432">
        <ele>651.63</ele>
        <time>2021-02-23T15:59:27Z</time>
      </trkpt>
      <trkpt lat="46.10407" lon="6.26447">
        <ele>650.671</ele>
        <time>2021-02-23T15:59:28Z</time>
      </trkpt>
      <trkpt lat="46.10391" lon="6.26457">
        <ele>649.854</ele>
        <time>2021-02-23T15:59:29Z</time>
      </trkpt>
      <trkpt lat="46.10376" lon="6.26465">
        <ele>649.017</ele>
        <time>2021-02-23T15:59:30Z</time>
      </trkpt>
      <trkpt lat="46.10363" lon="6.26475">
        <ele>648.18</ele>
        <time>2021-02-23T15:59:31Z</time>
      </trkpt>
      <trkpt lat="46.10352" lon="6.26486">
        <ele>647.234</ele>
        <time>2021-02-23T15:59:32Z</time>
      </trkpt>
      <trkpt lat="46.10343" lon="6.26502">
        <ele>646.568</ele>
        <time>2021-02-23T15:59:33Z</time>
      </trkpt>
      <trkpt lat="46.10336" lon="6.26519">
        <ele>646.154</ele>
        <time>2021-02-23T15:59:34Z</time>
      </trkpt>
      <trkpt lat="46.10331" lon="6.26536">
        <ele>645.656</ele>
        <time>2021-02-23T15:59:35Z</time>
      </trkpt>
      <trkpt lat="46.10326" lon="6.26549">
        <ele>645.311</ele>
        <time>2021-02-23T15:59:36Z</time>
      </trkpt>
      <trkpt lat="46.10324" lon="6.26561">
        <ele>645.108</ele>
        <time>2021-02-23T15:59:37Z</time>
      </trkpt>
      <trkpt lat="46.10325" lon="6.2657">
        <ele>644.961</ele>
        <time>2021-02-23T15:59:38Z</time>
      </trkpt>
      <trkpt lat="46.10328" lon="6.26579">
        <ele>644.562</ele>
        <time>2021-02-23T15:59:39Z</time>
      </trkpt>
      <trkpt lat="46.10334" lon="6.26586">
        <ele>644.443</ele>
        <time>2021-02-23T15:59:40Z</time>
      </trkpt>
      <trkpt lat="46.10342" lon="6.2659">
        <ele>644.496</ele>
        <time>2021-02-23T15:59:41Z</time>
      </trkpt>
      <trkpt lat="46.10352" lon="6.26591">
        <ele>644.269</ele>
        <time>2021-02-23T15:59:42Z</time>
      </trkpt>
      <trkpt lat="46.10365" lon="6.26588">
        <ele>643.822</ele>
        <time>2021-02-23T15:59:43Z</time>
      </trkpt>
      <trkpt lat="46.10379" lon="6.26582">
        <ele>643.356</ele>
        <time>2021-02-23T15:59:44Z</time>
      </trkpt>
      <trkpt lat="46.10395" lon="6.26577">
        <ele>642.48</ele>
        <time>2021-02-23T15:59:45Z</time>
      </trkpt>
      <trkpt lat="46.10413" lon="6.26574">
        <ele>641.295</ele>
        <time>2021-02-23T15:59:46Z</time>
      </trkpt>
      <trkpt lat="46.10432" lon="6.26575">
        <ele>639.649</ele>
        <time>2021-02-23T15:59:47Z</time>
      </trkpt>
      <trkpt lat="46.10452" lon="6.26578">
        <ele>637.823</ele>
        <time>2021-02-23T15:59:48Z</time>
      </trkpt>
      <trkpt lat="46.10473" lon="6.26585">
        <ele>635.908</ele>
        <time>2021-02-23T15:59:49Z</time>
      </trkpt>
      <trkpt lat="46.10494" lon="6.26592">
        <ele>634.355</ele>
        <time>2021-02-23T15:59:50Z</time>
      </trkpt>
      <trkpt lat="46.10512" lon="6.26599">
        <ele>632.816</ele>
        <time>2021-02-23T15:59:51Z</time>
      </trkpt>
      <trkpt lat="46.10531" lon="6.26605">
        <ele>632.217</ele>
        <time>2021-02-23T15:59:52Z</time>
      </trkpt>
      <trkpt lat="46.10549" lon="6.2661">
        <ele>631.72</ele>
        <time>2021-02-23T15:59:53Z</time>
      </trkpt>
      <trkpt lat="46.10566" lon="6.26616">
        <ele>630.753</ele>
        <time>2021-02-23T15:59:54Z</time>
      </trkpt>
      <trkpt lat="46.10583" lon="6.26621">
        <ele>630.146</ele>
        <time>2021-02-23T15:59:55Z</time>
      </trkpt>
      <trkpt lat="46.10602" lon="6.26623">
        <ele>629.42</ele>
        <time>2021-02-23T15:59:56Z</time>
      </trkpt>
      <trkpt lat="46.1062" lon="6.26621">
        <ele>627.814</ele>
        <time>2021-02-23T15:59:57Z</time>
      </trkpt>
      <trkpt lat="46.1064" lon="6.26615">
        <ele>626.091</ele>
        <time>2021-02-23T15:59:58Z</time>
      </trkpt>
      <trkpt lat="46.10658" lon="6.26607">
        <ele>624.281</ele>
        <time>2021-02-23T15:59:59Z</time>
      </trkpt>
      <trkpt lat="46.10676" lon="6.26596">
        <ele>622.019</ele>
        <time>2021-02-23T16:00:00Z</time>
      </trkpt>
      <trkpt lat="46.10692" lon="6.26584">
        <ele>619.808</ele>
        <time>2021-02-23T16:00:01Z</time>
      </trkpt>
      <trkpt lat="46.10708" lon="6.26573">
        <ele>618.025</ele>
        <time>2021-02-23T16:00:02Z</time>
      </trkpt>
      <trkpt lat="46.10723" lon="6.26562">
        <ele>617.016</ele>
        <time>2021-02-23T16:00:03Z</time>
      </trkpt>
      <trkpt lat="46.10738" lon="6.2655">
        <ele>616.267</ele>
        <time>2021-02-23T16:00:04Z</time>
      </trkpt>
      <trkpt lat="46.10753" lon="6.26539">
        <ele>615.55</ele>
        <time>2021-02-23T16:00:05Z</time>
      </trkpt>
      <trkpt lat="46.10768" lon="6.26529">
        <ele>615.123</ele>
        <time>2021-02-23T16:00:06Z</time>
      </trkpt>
      <trkpt lat="46.10781" lon="6.26518">
        <ele>614.116</ele>
        <time>2021-02-23T16:00:07Z</time>
      </trkpt>
      <trkpt lat="46.10795" lon="6.26507">
        <ele>612.16</ele>
        <time>2021-02-23T16:00:08Z</time>
      </trkpt>
      <trkpt lat="46.10808" lon="6.26496">
        <ele>610.334</ele>
        <time>2021-02-23T16:00:09Z</time>
      </trkpt>
      <trkpt lat="46.10821" lon="6.26485">
        <ele>608.751</ele>
        <time>2021-02-23T16:00:10Z</time>
      </trkpt>
      <trkpt lat="46.10832" lon="6.26473">
        <ele>606.801</ele>
        <time>2021-02-23T16:00:11Z</time>
      </trkpt>
      <trkpt lat="46.10843" lon="6.26461">
        <ele>605.411</ele>
        <time>2021-02-23T16:00:12Z</time>
      </trkpt>
      <trkpt lat="46.10854" lon="6.26449">
        <ele>604.408</ele>
        <time>2021-02-23T16:00:13Z</time>
      </trkpt>
      <trkpt lat="46.10864" lon="6.2644">
        <ele>603.331</ele>
        <time>2021-02-23T16:00:14Z</time>
      </trkpt>
      <trkpt lat="46.10877" lon="6.26434">
        <ele>602.392</ele>
        <time>2021-02-23T16:00:15Z</time>
      </trkpt>
      <trkpt lat="46.1089" lon="6.26431">
        <ele>601.133</ele>
        <time>2021-02-23T16:00:16Z</time>
      </trkpt>
      <trkpt lat="46.10903" lon="6.26432">
        <ele>600.076</ele>
        <time>2021-02-23T16:00:17Z</time>
      </trkpt>
      <trkpt lat="46.10916" lon="6.26434">
        <ele>598.989</ele>
        <time>2021-02-23T16:00:18Z</time>
      </trkpt>
      <trkpt lat="46.1093" lon="6.26435">
        <ele>598.152</ele>
        <time>2021-02-23T16:00:19Z</time>
      </trkpt>
      <trkpt lat="46.10943" lon="6.26431">
        <ele>597.026</ele>
        <time>2021-02-23T16:00:20Z</time>
      </trkpt>
      <trkpt lat="46.10955" lon="6.26428">
        <ele>596.24</ele>
        <time>2021-02-23T16:00:21Z</time>
      </trkpt>
      <trkpt lat="46.10968" lon="6.26424">
        <ele>595.587</ele>
        <time>2021-02-23T16:00:22Z</time>
      </trkpt>
      <trkpt lat="46.10981" lon="6.2642">
        <ele>595.042</ele>
        <time>2021-02-23T16:00:23Z</time>
      </trkpt>
      <trkpt lat="46.10995" lon="6.26416">
        <ele>594.626</ele>
        <time>2021-02-23T16:00:24Z</time>
      </trkpt>
      <trkpt lat="46.11011" lon="6.26413">
        <ele>594.308</ele>
        <time>2021-02-23T16:00:25Z</time>
      </trkpt>
      <trkpt lat="46.11026" lon="6.2641">
        <ele>594.124</ele>
        <time>2021-02-23T16:00:26Z</time>
      </trkpt>
      <trkpt lat="46.11042" lon="6.26406">
        <ele>593.545</ele>
        <time>2021-02-23T16:00:27Z</time>
      </trkpt>
      <trkpt lat="46.11058" lon="6.26398">
        <ele>592.746</ele>
        <time>2021-02-23T16:00:28Z</time>
      </trkpt>
      <trkpt lat="46.11073" lon="6.26389">
        <ele>591.869</ele>
        <time>2021-02-23T16:00:29Z</time>
      </trkpt>
      <trkpt lat="46.11087" lon="6.2638">
        <ele>591.032</ele>
        <time>2021-02-23T16:00:30Z</time>
      </trkpt>
      <trkpt lat="46.11102" lon="6.2637">
        <ele>590.225</ele>
        <time>2021-02-23T16:00:31Z</time>
      </trkpt>
      <trkpt lat="46.11119" lon="6.26357">
        <ele>589.489</ele>
        <time>2021-02-23T16:00:32Z</time>
      </trkpt>
      <trkpt lat="46.11133" lon="6.26345">
        <ele>588.793</ele>
        <time>2021-02-23T16:00:33Z</time>
      </trkpt>
      <trkpt lat="46.11148" lon="6.26332">
        <ele>587.822</ele>
        <time>2021-02-23T16:00:34Z</time>
      </trkpt>
      <trkpt lat="46.11164" lon="6.26323">
        <ele>586.962</ele>
        <time>2021-02-23T16:00:35Z</time>
      </trkpt>
      <trkpt lat="46.1118" lon="6.26317">
        <ele>585.908</ele>
        <time>2021-02-23T16:00:36Z</time>
      </trkpt>
      <trkpt lat="46.11196" lon="6.26312">
        <ele>585.608</ele>
        <time>2021-02-23T16:00:37Z</time>
      </trkpt>
      <trkpt lat="46.11211" lon="6.26307">
        <ele>585.378</ele>
        <time>2021-02-23T16:00:38Z</time>
      </trkpt>
      <trkpt lat="46.11226" lon="6.26302">
        <ele>585.319</ele>
        <time>2021-02-23T16:00:39Z</time>
      </trkpt>
      <trkpt lat="46.11241" lon="6.26296">
        <ele>585.24</ele>
        <time>2021-02-23T16:00:40Z</time>
      </trkpt>
      <trkpt lat="46.11257" lon="6.26287">
        <ele>585.083</ele>
        <time>2021-02-23T16:00:41Z</time>
      </trkpt>
      <trkpt lat="46.11272" lon="6.2627">
        <ele>583.926</ele>
        <time>2021-02-23T16:00:42Z</time>
      </trkpt>
      <trkpt lat="46.11287" lon="6.26255">
        <ele>581.959</ele>
        <time>2021-02-23T16:00:43Z</time>
      </trkpt>
      <trkpt lat="46.11303" lon="6.26243">
        <ele>580.023</ele>
        <time>2021-02-23T16:00:44Z</time>
      </trkpt>
      <trkpt lat="46.11318" lon="6.26232">
        <ele>578.577</ele>
        <time>2021-02-23T16:00:45Z</time>
      </trkpt>
      <trkpt lat="46.11333" lon="6.26221">
        <ele>577.322</ele>
        <time>2021-02-23T16:00:46Z</time>
      </trkpt>
      <trkpt lat="46.11348" lon="6.26211">
        <ele>576.062</ele>
        <time>2021-02-23T16:00:47Z</time>
      </trkpt>
      <trkpt lat="46.11363" lon="6.26201">
        <ele>575.908</ele>
        <time>2021-02-23T16:00:48Z</time>
      </trkpt>
      <trkpt lat="46.11378" lon="6.2619">
        <ele>575.608</ele>
        <time>2021-02-23T16:00:49Z</time>
      </trkpt>
      <trkpt lat="46.11393" lon="6.26179">
        <ele>574.848</ele>
        <time>2021-02-23T16:00:50Z</time>
      </trkpt>
      <trkpt lat="46.11407" lon="6.26167">
        <ele>573.439</ele>
        <time>2021-02-23T16:00:51Z</time>
      </trkpt>
      <trkpt lat="46.11422" lon="6.26152">
        <ele>572.56</ele>
        <time>2021-02-23T16:00:52Z</time>
      </trkpt>
      <trkpt lat="46.11435" lon="6.26135">
        <ele>570.773</ele>
        <time>2021-02-23T16:00:53Z</time>
      </trkpt>
      <trkpt lat="46.11448" lon="6.26118">
        <ele>568.866</ele>
        <time>2021-02-23T16:00:54Z</time>
      </trkpt>
      <trkpt lat="46.1146" lon="6.26102">
        <ele>567.559</ele>
        <time>2021-02-23T16:00:55Z</time>
      </trkpt>
      <trkpt lat="46.11472" lon="6.26086">
        <ele>566.453</ele>
        <time>2021-02-23T16:00:56Z</time>
      </trkpt>
      <trkpt lat="46.11483" lon="6.26071">
        <ele>564.987</ele>
        <time>2021-02-23T16:00:57Z</time>
      </trkpt>
      <trkpt lat="46.11495" lon="6.26055">
        <ele>564.331</ele>
        <time>2021-02-23T16:00:58Z</time>
      </trkpt>
      <trkpt lat="46.11506" lon="6.26036">
        <ele>564.361</ele>
        <time>2021-02-23T16:00:59Z</time>
      </trkpt>
      <trkpt lat="46.11513" lon="6.26016">
        <ele>563.407</ele>
        <time>2021-02-23T16:01:00Z</time>
      </trkpt>
      <trkpt lat="46.1152" lon="6.25998">
        <ele>562.508</ele>
        <time>2021-02-23T16:01:01Z</time>
      </trkpt>
      <trkpt lat="46.11527" lon="6.25981">
        <ele>562.249</ele>
        <time>2021-02-23T16:01:02Z</time>
      </trkpt>
      <trkpt lat="46.11537" lon="6.25967">
        <ele>561.76</ele>
        <time>2021-02-23T16:01:03Z</time>
      </trkpt>
      <trkpt lat="46.11548" lon="6.25957">
        <ele>560.911</ele>
        <time>2021-02-23T16:01:04Z</time>
      </trkpt>
      <trkpt lat="46.11561" lon="6.25951">
        <ele>560.524</ele>
        <time>2021-02-23T16:01:05Z</time>
      </trkpt>
      <trkpt lat="46.11573" lon="6.25948">
        <ele>560.027</ele>
        <time>2021-02-23T16:01:06Z</time>
      </trkpt>
      <trkpt lat="46.11588" lon="6.25948">
        <ele>558.76</ele>
        <time>2021-02-23T16:01:07Z</time>
      </trkpt>
      <trkpt lat="46.11602" lon="6.25947">
        <ele>558.024</ele>
        <time>2021-02-23T16:01:08Z</time>
      </trkpt>
      <trkpt lat="46.11614" lon="6.25947">
        <ele>556.958</ele>
        <time>2021-02-23T16:01:09Z</time>
      </trkpt>
      <trkpt lat="46.11627" lon="6.25949">
        <ele>555.871</ele>
        <time>2021-02-23T16:01:10Z</time>
      </trkpt>
      <trkpt lat="46.11638" lon="6.25953">
        <ele>554.841</ele>
        <time>2021-02-23T16:01:11Z</time>
      </trkpt>
      <trkpt lat="46.11649" lon="6.25961">
        <ele>554.415</ele>
        <time>2021-02-23T16:01:12Z</time>
      </trkpt>
      <trkpt lat="46.11659" lon="6.25973">
        <ele>553.608</ele>
        <time>2021-02-23T16:01:13Z</time>
      </trkpt>
      <trkpt lat="46.11668" lon="6.25988">
        <ele>552.783</ele>
        <time>2021-02-23T16:01:14Z</time>
      </trkpt>
      <trkpt lat="46.11674" lon="6.26005">
        <ele>551.814</ele>
        <time>2021-02-23T16:01:15Z</time>
      </trkpt>
      <trkpt lat="46.11679" lon="6.26025">
        <ele>550.825</ele>
        <time>2021-02-23T16:01:16Z</time>
      </trkpt>
      <trkpt lat="46.11682" lon="6.26049">
        <ele>549.688</ele>
        <time>2021-02-23T16:01:17Z</time>
      </trkpt>
      <trkpt lat="46.11685" lon="6.26074">
        <ele>548.541</ele>
        <time>2021-02-23T16:01:18Z</time>
      </trkpt>
      <trkpt lat="46.11688" lon="6.261">
        <ele>547.354</ele>
        <time>2021-02-23T16:01:19Z</time>
      </trkpt>
      <trkpt lat="46.1169" lon="6.26125">
        <ele>545.698</ele>
        <time>2021-02-23T16:01:20Z</time>
      </trkpt>
      <trkpt lat="46.11695" lon="6.26148">
        <ele>544.842</ele>
        <time>2021-02-23T16:01:21Z</time>
      </trkpt>
      <trkpt lat="46.11703" lon="6.26171">
        <ele>544.124</ele>
        <time>2021-02-23T16:01:22Z</time>
      </trkpt>
      <trkpt lat="46.11712" lon="6.26194">
        <ele>542.904</ele>
        <time>2021-02-23T16:01:23Z</time>
      </trkpt>
      <trkpt lat="46.11719" lon="6.26219">
        <ele>541.614</ele>
        <time>2021-02-23T16:01:24Z</time>
      </trkpt>
      <trkpt lat="46.11725" lon="6.26244">
        <ele>541.008</ele>
        <time>2021-02-23T16:01:25Z</time>
      </trkpt>
      <trkpt lat="46.1173" lon="6.26272">
        <ele>539.698</ele>
        <time>2021-02-23T16:01:26Z</time>
      </trkpt>
      <trkpt lat="46.11734" lon="6.263">
        <ele>538.999</ele>
        <time>2021-02-23T16:01:27Z</time>
      </trkpt>
      <trkpt lat="46.11739" lon="6.26327">
        <ele>538.43</ele>
        <time>2021-02-23T16:01:28Z</time>
      </trkpt>
      <trkpt lat="46.11743" lon="6.26353">
        <ele>538.213</ele>
        <time>2021-02-23T16:01:29Z</time>
      </trkpt>
      <trkpt lat="46.11747" lon="6.2638">
        <ele>537.886</ele>
        <time>2021-02-23T16:01:30Z</time>
      </trkpt>
      <trkpt lat="46.11751" lon="6.26406">
        <ele>537.439</ele>
        <time>2021-02-23T16:01:31Z</time>
      </trkpt>
      <trkpt lat="46.11756" lon="6.26433">
        <ele>536.393</ele>
        <time>2021-02-23T16:01:32Z</time>
      </trkpt>
      <trkpt lat="46.1176" lon="6.26462">
        <ele>535.787</ele>
        <time>2021-02-23T16:01:33Z</time>
      </trkpt>
      <trkpt lat="46.11764" lon="6.2649">
        <ele>535.174</ele>
        <time>2021-02-23T16:01:34Z</time>
      </trkpt>
      <trkpt lat="46.11769" lon="6.26517">
        <ele>534.756</ele>
        <time>2021-02-23T16:01:35Z</time>
      </trkpt>
      <trkpt lat="46.11773" lon="6.26544">
        <ele>533.821</ele>
        <time>2021-02-23T16:01:36Z</time>
      </trkpt>
      <trkpt lat="46.11778" lon="6.26569">
        <ele>532.808</ele>
        <time>2021-02-23T16:01:37Z</time>
      </trkpt>
      <trkpt lat="46.11783" lon="6.26594">
        <ele>532.473</ele>
        <time>2021-02-23T16:01:38Z</time>
      </trkpt>
      <trkpt lat="46.11791" lon="6.26617">
        <ele>532.144</ele>
        <time>2021-02-23T16:01:39Z</time>
      </trkpt>
      <trkpt lat="46.11803" lon="6.26639">
        <ele>531.455</ele>
        <time>2021-02-23T16:01:40Z</time>
      </trkpt>
      <trkpt lat="46.11818" lon="6.26659">
        <ele>531.118</ele>
        <time>2021-02-23T16:01:41Z</time>
      </trkpt>
      <trkpt lat="46.11834" lon="6.26677">
        <ele>530.971</ele>
        <time>2021-02-23T16:01:42Z</time>
      </trkpt>
      <trkpt lat="46.11851" lon="6.26693">
        <ele>529.854</ele>
        <time>2021-02-23T16:01:43Z</time>
      </trkpt>
      <trkpt lat="46.11867" lon="6.26709">
        <ele>528.728</ele>
        <time>2021-02-23T16:01:44Z</time>
      </trkpt>
      <trkpt lat="46.11883" lon="6.26725">
        <ele>527.862</ele>
        <time>2021-02-23T16:01:45Z</time>
      </trkpt>
      <trkpt lat="46.11899" lon="6.26741">
        <ele>526.863</ele>
        <time>2021-02-23T16:01:46Z</time>
      </trkpt>
      <trkpt lat="46.11915" lon="6.26757">
        <ele>526.544</ele>
        <time>2021-02-23T16:01:47Z</time>
      </trkpt>
      <trkpt lat="46.11931" lon="6.26774">
        <ele>526.418</ele>
        <time>2021-02-23T16:01:48Z</time>
      </trkpt>
      <trkpt lat="46.11948" lon="6.26791">
        <ele>525.608</ele>
        <time>2021-02-23T16:01:49Z</time>
      </trkpt>
      <trkpt lat="46.11964" lon="6.26808">
        <ele>524.682</ele>
        <time>2021-02-23T16:01:50Z</time>
      </trkpt>
      <trkpt lat="46.11981" lon="6.26825">
        <ele>524.063</ele>
        <time>2021-02-23T16:01:51Z</time>
      </trkpt>
      <trkpt lat="46.11996" lon="6.26841">
        <ele>523.884</ele>
        <time>2021-02-23T16:01:52Z</time>
      </trkpt>
      <trkpt lat="46.1201" lon="6.26855">
        <ele>523.817</ele>
        <time>2021-02-23T16:01:53Z</time>
      </trkpt>
      <trkpt lat="46.12021" lon="6.26866">
        <ele>523.88</ele>
        <time>2021-02-23T16:01:54Z</time>
      </trkpt>
      <trkpt lat="46.12032" lon="6.26876">
        <ele>524.843</ele>
        <time>2021-02-23T16:01:55Z</time>
      </trkpt>
      <trkpt lat="46.12041" lon="6.26885">
        <ele>525.787</ele>
        <time>2021-02-23T16:01:56Z</time>
      </trkpt>
      <trkpt lat="46.12051" lon="6.26892">
        <ele>526.251</ele>
        <time>2021-02-23T16:01:57Z</time>
      </trkpt>
      <trkpt lat="46.1206" lon="6.26897">
        <ele>526.894</ele>
        <time>2021-02-23T16:01:58Z</time>
      </trkpt>
      <trkpt lat="46.12066" lon="6.26902">
        <ele>527.857</ele>
        <time>2021-02-23T16:01:59Z</time>
      </trkpt>
      <trkpt lat="46.12071" lon="6.26908">
        <ele>528.522</ele>
        <time>2021-02-23T16:02:00Z</time>
      </trkpt>
      <trkpt lat="46.12074" lon="6.26916">
        <ele>529.108</ele>
        <time>2021-02-23T16:02:01Z</time>
      </trkpt>
      <trkpt lat="46.12076" lon="6.26929">
        <ele>529.725</ele>
        <time>2021-02-23T16:02:02Z</time>
      </trkpt>
      <trkpt lat="46.12079" lon="6.26941">
        <ele>530.226</ele>
        <time>2021-02-23T16:02:03Z</time>
      </trkpt>
      <trkpt lat="46.12084" lon="6.26951">
        <ele>530.687</ele>
        <time>2021-02-23T16:02:04Z</time>
      </trkpt>
      <trkpt lat="46.12091" lon="6.26957">
        <ele>530.94</ele>
        <time>2021-02-23T16:02:05Z</time>
      </trkpt>
      <trkpt lat="46.12099" lon="6.26957">
        <ele>531.153</ele>
        <time>2021-02-23T16:02:06Z</time>
      </trkpt>
      <trkpt lat="46.12107" lon="6.26954">
        <ele>531.186</ele>
        <time>2021-02-23T16:02:07Z</time>
      </trkpt>
      <trkpt lat="46.12113" lon="6.26946">
        <ele>531.15</ele>
        <time>2021-02-23T16:02:08Z</time>
      </trkpt>
      <trkpt lat="46.12116" lon="6.26936">
        <ele>531.024</ele>
        <time>2021-02-23T16:02:09Z</time>
      </trkpt>
      <trkpt lat="46.12115" lon="6.26923">
        <ele>530.834</ele>
        <time>2021-02-23T16:02:10Z</time>
      </trkpt>
      <trkpt lat="46.12112" lon="6.26912">
        <ele>530.655</ele>
        <time>2021-02-23T16:02:11Z</time>
      </trkpt>
      <trkpt lat="46.12109" lon="6.26902">
        <ele>530.51</ele>
        <time>2021-02-23T16:02:12Z</time>
      </trkpt>
      <trkpt lat="46.12108" lon="6.26891">
        <ele>530.408</ele>
        <time>2021-02-23T16:02:13Z</time>
      </trkpt>
      <trkpt lat="46.12111" lon="6.26881">
        <ele>530.299</ele>
        <time>2021-02-23T16:02:14Z</time>
      </trkpt>
      <trkpt lat="46.12117" lon="6.2687">
        <ele>530.14</ele>
        <time>2021-02-23T16:02:15Z</time>
      </trkpt>
      <trkpt lat="46.12125" lon="6.2686">
        <ele>530.141</ele>
        <time>2021-02-23T16:02:16Z</time>
      </trkpt>
      <trkpt lat="46.12134" lon="6.26848">
        <ele>529.954</ele>
        <time>2021-02-23T16:02:17Z</time>
      </trkpt>
      <trkpt lat="46.12143" lon="6.26837">
        <ele>529.497</ele>
        <time>2021-02-23T16:02:18Z</time>
      </trkpt>
      <trkpt lat="46.12151" lon="6.26825">
        <ele>528.95</ele>
        <time>2021-02-23T16:02:19Z</time>
      </trkpt>
      <trkpt lat="46.12159" lon="6.26817">
        <ele>528.694</ele>
        <time>2021-02-23T16:02:20Z</time>
      </trkpt>
      <trkpt lat="46.12165" lon="6.26812">
        <ele>528.398</ele>
        <time>2021-02-23T16:02:21Z</time>
      </trkpt>
      <trkpt lat="46.12169" lon="6.26808">
        <ele>528.294</ele>
        <time>2021-02-23T16:02:22Z</time>
      </trkpt>
      <trkpt lat="46.12174" lon="6.26802">
        <ele>528.457</ele>
        <time>2021-02-23T16:02:24Z</time>
      </trkpt>
      <trkpt lat="46.12176" lon="6.26796">
        <ele>528.422</ele>
        <time>2021-02-23T16:02:26Z</time>
      </trkpt>
      <trkpt lat="46.12177" lon="6.26789">
        <ele>528.308</ele>
        <time>2021-02-23T16:02:28Z</time>
      </trkpt>
      <trkpt lat="46.12173" lon="6.26782">
        <ele>527.955</ele>
        <time>2021-02-23T16:02:31Z</time>
      </trkpt>
      <trkpt lat="46.12166" lon="6.26778">
        <ele>527.046</ele>
        <time>2021-02-23T16:02:34Z</time>
      </trkpt>
      <trkpt lat="46.12164" lon="6.26784">
        <ele>526.557</ele>
        <time>2021-02-23T16:02:36Z</time>
      </trkpt>
      <trkpt lat="46.12166" lon="6.26792">
        <ele>526.68</ele>
        <time>2021-02-23T16:02:38Z</time>
      </trkpt>
      <trkpt lat="46.12166" lon="6.26801">
        <ele>527.233</ele>
        <time>2021-02-23T16:02:40Z</time>
      </trkpt>
      <trkpt lat="46.12162" lon="6.26808">
        <ele>527.666</ele>
        <time>2021-02-23T16:02:41Z</time>
      </trkpt>
      <trkpt lat="46.12157" lon="6.26813">
        <ele>527.96</ele>
        <time>2021-02-23T16:02:42Z</time>
      </trkpt>
      <trkpt lat="46.12152" lon="6.26819">
        <ele>528.194</ele>
        <time>2021-02-23T16:02:43Z</time>
      </trkpt>
      <trkpt lat="46.12146" lon="6.26828">
        <ele>528.317</ele>
        <time>2021-02-23T16:02:44Z</time>
      </trkpt>
      <trkpt lat="46.12138" lon="6.26837">
        <ele>528.587</ele>
        <time>2021-02-23T16:02:45Z</time>
      </trkpt>
      <trkpt lat="46.12131" lon="6.26846">
        <ele>528.615</ele>
        <time>2021-02-23T16:02:46Z</time>
      </trkpt>
      <trkpt lat="46.12123" lon="6.26853">
        <ele>528.708</ele>
        <time>2021-02-23T16:02:47Z</time>
      </trkpt>
      <trkpt lat="46.12115" lon="6.26861">
        <ele>528.857</ele>
        <time>2021-02-23T16:02:48Z</time>
      </trkpt>
      <trkpt lat="46.12108" lon="6.26869">
        <ele>529.058</ele>
        <time>2021-02-23T16:02:49Z</time>
      </trkpt>
      <trkpt lat="46.12103" lon="6.26877">
        <ele>529.339</ele>
        <time>2021-02-23T16:02:50Z</time>
      </trkpt>
      <trkpt lat="46.12098" lon="6.26885">
        <ele>529.552</ele>
        <time>2021-02-23T16:02:51Z</time>
      </trkpt>
      <trkpt lat="46.12091" lon="6.26893">
        <ele>529.755</ele>
        <time>2021-02-23T16:02:52Z</time>
      </trkpt>
      <trkpt lat="46.12083" lon="6.26898">
        <ele>529.818</ele>
        <time>2021-02-23T16:02:53Z</time>
      </trkpt>
      <trkpt lat="46.12073" lon="6.26898">
        <ele>529.872</ele>
        <time>2021-02-23T16:02:54Z</time>
      </trkpt>
      <trkpt lat="46.1206" lon="6.26894">
        <ele>529.766</ele>
        <time>2021-02-23T16:02:55Z</time>
      </trkpt>
      <trkpt lat="46.12045" lon="6.26886">
        <ele>529.477</ele>
        <time>2021-02-23T16:02:56Z</time>
      </trkpt>
      <trkpt lat="46.12031" lon="6.26875">
        <ele>528.861</ele>
        <time>2021-02-23T16:02:57Z</time>
      </trkpt>
      <trkpt lat="46.12015" lon="6.26859">
        <ele>528.027</ele>
        <time>2021-02-23T16:02:58Z</time>
      </trkpt>
      <trkpt lat="46.11999" lon="6.26842">
        <ele>527.308</ele>
        <time>2021-02-23T16:02:59Z</time>
      </trkpt>
      <trkpt lat="46.11982" lon="6.26825">
        <ele>526.333</ele>
        <time>2021-02-23T16:03:00Z</time>
      </trkpt>
      <trkpt lat="46.11965" lon="6.26809">
        <ele>524.734</ele>
        <time>2021-02-23T16:03:01Z</time>
      </trkpt>
      <trkpt lat="46.11949" lon="6.26793">
        <ele>523.225</ele>
        <time>2021-02-23T16:03:02Z</time>
      </trkpt>
      <trkpt lat="46.11934" lon="6.26777">
        <ele>522.948</ele>
        <time>2021-02-23T16:03:03Z</time>
      </trkpt>
      <trkpt lat="46.11919" lon="6.26761">
        <ele>522.421</ele>
        <time>2021-02-23T16:03:04Z</time>
      </trkpt>
      <trkpt lat="46.11905" lon="6.26746">
        <ele>522.464</ele>
        <time>2021-02-23T16:03:05Z</time>
      </trkpt>
      <trkpt lat="46.11889" lon="6.2673">
        <ele>522.788</ele>
        <time>2021-02-23T16:03:06Z</time>
      </trkpt>
      <trkpt lat="46.11872" lon="6.26715">
        <ele>523.222</ele>
        <time>2021-02-23T16:03:07Z</time>
      </trkpt>
      <trkpt lat="46.11857" lon="6.26699">
        <ele>523.294</ele>
        <time>2021-02-23T16:03:08Z</time>
      </trkpt>
      <trkpt lat="46.11841" lon="6.26683">
        <ele>522.957</ele>
        <time>2021-02-23T16:03:09Z</time>
      </trkpt>
      <trkpt lat="46.11825" lon="6.26667">
        <ele>522.922</ele>
        <time>2021-02-23T16:03:10Z</time>
      </trkpt>
      <trkpt lat="46.11812" lon="6.26653">
        <ele>523.108</ele>
        <time>2021-02-23T16:03:11Z</time>
      </trkpt>
      <trkpt lat="46.118" lon="6.26638">
        <ele>524.295</ele>
        <time>2021-02-23T16:03:12Z</time>
      </trkpt>
      <trkpt lat="46.1179" lon="6.26621">
        <ele>526.286</ele>
        <time>2021-02-23T16:03:13Z</time>
      </trkpt>
      <trkpt lat="46.11783" lon="6.266">
        <ele>528.277</ele>
        <time>2021-02-23T16:03:14Z</time>
      </trkpt>
      <trkpt lat="46.11777" lon="6.26576">
        <ele>529.95</ele>
        <time>2021-02-23T16:03:15Z</time>
      </trkpt>
      <trkpt lat="46.11773" lon="6.26549">
        <ele>531.573</ele>
        <time>2021-02-23T16:03:16Z</time>
      </trkpt>
      <trkpt lat="46.11769" lon="6.2652">
        <ele>531.546</ele>
        <time>2021-02-23T16:03:17Z</time>
      </trkpt>
      <trkpt lat="46.11764" lon="6.26491">
        <ele>531.31</ele>
        <time>2021-02-23T16:03:18Z</time>
      </trkpt>
      <trkpt lat="46.11759" lon="6.26462">
        <ele>530.714</ele>
        <time>2021-02-23T16:03:19Z</time>
      </trkpt>
      <trkpt lat="46.11754" lon="6.26433">
        <ele>529.972</ele>
        <time>2021-02-23T16:03:20Z</time>
      </trkpt>
      <trkpt lat="46.1175" lon="6.26404">
        <ele>529.113</ele>
        <time>2021-02-23T16:03:21Z</time>
      </trkpt>
      <trkpt lat="46.11746" lon="6.26373">
        <ele>528.814</ele>
        <time>2021-02-23T16:03:22Z</time>
      </trkpt>
      <trkpt lat="46.11742" lon="6.26344">
        <ele>528.808</ele>
        <time>2021-02-23T16:03:23Z</time>
      </trkpt>
      <trkpt lat="46.11738" lon="6.26314">
        <ele>529.153</ele>
        <time>2021-02-23T16:03:24Z</time>
      </trkpt>
      <trkpt lat="46.11733" lon="6.26285">
        <ele>529.364</ele>
        <time>2021-02-23T16:03:25Z</time>
      </trkpt>
      <trkpt lat="46.11728" lon="6.26256">
        <ele>529.425</ele>
        <time>2021-02-23T16:03:26Z</time>
      </trkpt>
      <trkpt lat="46.11722" lon="6.26227">
        <ele>530.148</ele>
        <time>2021-02-23T16:03:27Z</time>
      </trkpt>
      <trkpt lat="46.11713" lon="6.26198">
        <ele>530.971</ele>
        <time>2021-02-23T16:03:28Z</time>
      </trkpt>
      <trkpt lat="46.11703" lon="6.26172">
        <ele>531.394</ele>
        <time>2021-02-23T16:03:29Z</time>
      </trkpt>
      <trkpt lat="46.11696" lon="6.26143">
        <ele>532.648</ele>
        <time>2021-02-23T16:03:30Z</time>
      </trkpt>
      <trkpt lat="46.11691" lon="6.26114">
        <ele>533.622</ele>
        <time>2021-02-23T16:03:31Z</time>
      </trkpt>
      <trkpt lat="46.11686" lon="6.26084">
        <ele>534.364</ele>
        <time>2021-02-23T16:03:32Z</time>
      </trkpt>
      <trkpt lat="46.11682" lon="6.26057">
        <ele>536.206</ele>
        <time>2021-02-23T16:03:33Z</time>
      </trkpt>
      <trkpt lat="46.11679" lon="6.26032">
        <ele>538.316</ele>
        <time>2021-02-23T16:03:34Z</time>
      </trkpt>
      <trkpt lat="46.11676" lon="6.26009">
        <ele>539.908</ele>
        <time>2021-02-23T16:03:35Z</time>
      </trkpt>
      <trkpt lat="46.1167" lon="6.25989">
        <ele>542.432</ele>
        <time>2021-02-23T16:03:36Z</time>
      </trkpt>
      <trkpt lat="46.11661" lon="6.25971">
        <ele>544.933</ele>
        <time>2021-02-23T16:03:37Z</time>
      </trkpt>
      <trkpt lat="46.11651" lon="6.25959">
        <ele>546.834</ele>
        <time>2021-02-23T16:03:38Z</time>
      </trkpt>
      <trkpt lat="46.1164" lon="6.25951">
        <ele>548.587</ele>
        <time>2021-02-23T16:03:39Z</time>
      </trkpt>
      <trkpt lat="46.1163" lon="6.25947">
        <ele>550.37</ele>
        <time>2021-02-23T16:03:40Z</time>
      </trkpt>
      <trkpt lat="46.11622" lon="6.25944">
        <ele>551.883</ele>
        <time>2021-02-23T16:03:41Z</time>
      </trkpt>
      <trkpt lat="46.11618" lon="6.25939">
        <ele>552.987</ele>
        <time>2021-02-23T16:03:42Z</time>
      </trkpt>
      <trkpt lat="46.11616" lon="6.2593">
        <ele>553.841</ele>
        <time>2021-02-23T16:03:43Z</time>
      </trkpt>
      <trkpt lat="46.11618" lon="6.25918">
        <ele>554.682</ele>
        <time>2021-02-23T16:03:44Z</time>
      </trkpt>
      <trkpt lat="46.11622" lon="6.25905">
        <ele>555.343</ele>
        <time>2021-02-23T16:03:45Z</time>
      </trkpt>
      <trkpt lat="46.11628" lon="6.25892">
        <ele>555.917</ele>
        <time>2021-02-23T16:03:46Z</time>
      </trkpt>
      <trkpt lat="46.11635" lon="6.25874">
        <ele>556.608</ele>
        <time>2021-02-23T16:03:47Z</time>
      </trkpt>
      <trkpt lat="46.11643" lon="6.25857">
        <ele>557.244</ele>
        <time>2021-02-23T16:03:48Z</time>
      </trkpt>
      <trkpt lat="46.11651" lon="6.25839">
        <ele>557.985</ele>
        <time>2021-02-23T16:03:49Z</time>
      </trkpt>
      <trkpt lat="46.11659" lon="6.25818">
        <ele>558.576</ele>
        <time>2021-02-23T16:03:50Z</time>
      </trkpt>
      <trkpt lat="46.11666" lon="6.25797">
        <ele>559.099</ele>
        <time>2021-02-23T16:03:51Z</time>
      </trkpt>
      <trkpt lat="46.11674" lon="6.25777">
        <ele>559.892</ele>
        <time>2021-02-23T16:03:52Z</time>
      </trkpt>
      <trkpt lat="46.11683" lon="6.2576">
        <ele>560.875</ele>
        <time>2021-02-23T16:03:53Z</time>
      </trkpt>
      <trkpt lat="46.11693" lon="6.25742">
        <ele>561.789</ele>
        <time>2021-02-23T16:03:54Z</time>
      </trkpt>
      <trkpt lat="46.11702" lon="6.25724">
        <ele>562.743</ele>
        <time>2021-02-23T16:03:55Z</time>
      </trkpt>
      <trkpt lat="46.11712" lon="6.25707">
        <ele>564.215</ele>
        <time>2021-02-23T16:03:56Z</time>
      </trkpt>
      <trkpt lat="46.11722" lon="6.25689">
        <ele>565.665</ele>
        <time>2021-02-23T16:03:57Z</time>
      </trkpt>
      <trkpt lat="46.11731" lon="6.25672">
        <ele>566.711</ele>
        <time>2021-02-23T16:03:58Z</time>
      </trkpt>
      <trkpt lat="46.11739" lon="6.25656">
        <ele>567.908</ele>
        <time>2021-02-23T16:03:59Z</time>
      </trkpt>
      <trkpt lat="46.11743" lon="6.25641">
        <ele>569.267</ele>
        <time>2021-02-23T16:04:00Z</time>
      </trkpt>
      <trkpt lat="46.11744" lon="6.25623">
        <ele>570.368</ele>
        <time>2021-02-23T16:04:01Z</time>
      </trkpt>
      <trkpt lat="46.11742" lon="6.25605">
        <ele>571.189</ele>
        <time>2021-02-23T16:04:02Z</time>
      </trkpt>
      <trkpt lat="46.1174" lon="6.25585">
        <ele>571.892</ele>
        <time>2021-02-23T16:04:03Z</time>
      </trkpt>
      <trkpt lat="46.11742" lon="6.25563">
        <ele>572.845</ele>
        <time>2021-02-23T16:04:04Z</time>
      </trkpt>
      <trkpt lat="46.11749" lon="6.25542">
        <ele>573.888</ele>
        <time>2021-02-23T16:04:05Z</time>
      </trkpt>
      <trkpt lat="46.11757" lon="6.25521">
        <ele>574.652</ele>
        <time>2021-02-23T16:04:06Z</time>
      </trkpt>
      <trkpt lat="46.11766" lon="6.255">
        <ele>575.016</ele>
        <time>2021-02-23T16:04:07Z</time>
      </trkpt>
      <trkpt lat="46.11776" lon="6.25478">
        <ele>575.447</ele>
        <time>2021-02-23T16:04:08Z</time>
      </trkpt>
      <trkpt lat="46.11786" lon="6.25456">
        <ele>575.729</ele>
        <time>2021-02-23T16:04:09Z</time>
      </trkpt>
      <trkpt lat="46.11797" lon="6.25433">
        <ele>576.221</ele>
        <time>2021-02-23T16:04:10Z</time>
      </trkpt>
      <trkpt lat="46.11807" lon="6.2541">
        <ele>577.208</ele>
        <time>2021-02-23T16:04:11Z</time>
      </trkpt>
      <trkpt lat="46.11818" lon="6.25387">
        <ele>578.65</ele>
        <time>2021-02-23T16:04:12Z</time>
      </trkpt>
      <trkpt lat="46.11826" lon="6.25369">
        <ele>580.631</ele>
        <time>2021-02-23T16:04:13Z</time>
      </trkpt>
      <trkpt lat="46.11831" lon="6.25351">
        <ele>582.612</ele>
        <time>2021-02-23T16:04:14Z</time>
      </trkpt>
      <trkpt lat="46.11833" lon="6.25334">
        <ele>584.815</ele>
        <time>2021-02-23T16:04:15Z</time>
      </trkpt>
      <trkpt lat="46.11831" lon="6.25319">
        <ele>586.558</ele>
        <time>2021-02-23T16:04:16Z</time>
      </trkpt>
      <trkpt lat="46.11826" lon="6.25305">
        <ele>588.331</ele>
        <time>2021-02-23T16:04:17Z</time>
      </trkpt>
      <trkpt lat="46.11817" lon="6.25294">
        <ele>590.015</ele>
        <time>2021-02-23T16:04:18Z</time>
      </trkpt>
      <trkpt lat="46.11804" lon="6.25287">
        <ele>591.689</ele>
        <time>2021-02-23T16:04:19Z</time>
      </trkpt>
      <trkpt lat="46.11791" lon="6.25283">
        <ele>592.985</ele>
        <time>2021-02-23T16:04:20Z</time>
      </trkpt>
      <trkpt lat="46.11781" lon="6.25275">
        <ele>594.189</ele>
        <time>2021-02-23T16:04:21Z</time>
      </trkpt>
      <trkpt lat="46.11773" lon="6.25263">
        <ele>595.317</ele>
        <time>2021-02-23T16:04:22Z</time>
      </trkpt>
      <trkpt lat="46.11767" lon="6.25247">
        <ele>596.308</ele>
        <time>2021-02-23T16:04:23Z</time>
      </trkpt>
      <trkpt lat="46.11765" lon="6.25228">
        <ele>597.334</ele>
        <time>2021-02-23T16:04:24Z</time>
      </trkpt>
      <trkpt lat="46.11764" lon="6.25206">
        <ele>598.595</ele>
        <time>2021-02-23T16:04:25Z</time>
      </trkpt>
      <trkpt lat="46.11767" lon="6.25182">
        <ele>599.796</ele>
        <time>2021-02-23T16:04:26Z</time>
      </trkpt>
      <trkpt lat="46.1177" lon="6.25158">
        <ele>600.999</ele>
        <time>2021-02-23T16:04:27Z</time>
      </trkpt>
      <trkpt lat="46.11774" lon="6.25135">
        <ele>602.312</ele>
        <time>2021-02-23T16:04:28Z</time>
      </trkpt>
      <trkpt lat="46.11777" lon="6.2511">
        <ele>603.485</ele>
        <time>2021-02-23T16:04:29Z</time>
      </trkpt>
      <trkpt lat="46.1178" lon="6.25085">
        <ele>604.879</ele>
        <time>2021-02-23T16:04:30Z</time>
      </trkpt>
      <trkpt lat="46.11784" lon="6.25061">
        <ele>606.343</ele>
        <time>2021-02-23T16:04:31Z</time>
      </trkpt>
      <trkpt lat="46.11787" lon="6.25039">
        <ele>608.196</ele>
        <time>2021-02-23T16:04:32Z</time>
      </trkpt>
      <trkpt lat="46.11788" lon="6.25018">
        <ele>609.731</ele>
        <time>2021-02-23T16:04:33Z</time>
      </trkpt>
      <trkpt lat="46.11786" lon="6.24996">
        <ele>611.324</ele>
        <time>2021-02-23T16:04:34Z</time>
      </trkpt>
      <trkpt lat="46.1178" lon="6.24975">
        <ele>612.708</ele>
        <time>2021-02-23T16:04:35Z</time>
      </trkpt>
      <trkpt lat="46.11773" lon="6.24951">
        <ele>614.015</ele>
        <time>2021-02-23T16:04:36Z</time>
      </trkpt>
      <trkpt lat="46.11766" lon="6.24929">
        <ele>615.426</ele>
        <time>2021-02-23T16:04:37Z</time>
      </trkpt>
      <trkpt lat="46.11758" lon="6.24908">
        <ele>616.747</ele>
        <time>2021-02-23T16:04:38Z</time>
      </trkpt>
      <trkpt lat="46.11748" lon="6.24891">
        <ele>618.17</ele>
        <time>2021-02-23T16:04:39Z</time>
      </trkpt>
      <trkpt lat="46.11735" lon="6.24879">
        <ele>619.493</ele>
        <time>2021-02-23T16:04:40Z</time>
      </trkpt>
      <trkpt lat="46.11719" lon="6.24871">
        <ele>620.966</ele>
        <time>2021-02-23T16:04:41Z</time>
      </trkpt>
      <trkpt lat="46.11702" lon="6.24868">
        <ele>622.09</ele>
        <time>2021-02-23T16:04:42Z</time>
      </trkpt>
      <trkpt lat="46.11684" lon="6.24868">
        <ele>623.314</ele>
        <time>2021-02-23T16:04:43Z</time>
      </trkpt>
      <trkpt lat="46.11666" lon="6.24871">
        <ele>624.711</ele>
        <time>2021-02-23T16:04:44Z</time>
      </trkpt>
      <trkpt lat="46.1165" lon="6.24875">
        <ele>626.621</ele>
        <time>2021-02-23T16:04:45Z</time>
      </trkpt>
      <trkpt lat="46.11635" lon="6.24883">
        <ele>628.803</ele>
        <time>2021-02-23T16:04:46Z</time>
      </trkpt>
      <trkpt lat="46.11622" lon="6.24897">
        <ele>631.008</ele>
        <time>2021-02-23T16:04:47Z</time>
      </trkpt>
      <trkpt lat="46.11612" lon="6.24916">
        <ele>633.347</ele>
        <time>2021-02-23T16:04:48Z</time>
      </trkpt>
      <trkpt lat="46.11603" lon="6.24938">
        <ele>635.728</ele>
        <time>2021-02-23T16:04:49Z</time>
      </trkpt>
      <trkpt lat="46.11596" lon="6.24954">
        <ele>637.759</ele>
        <time>2021-02-23T16:04:50Z</time>
      </trkpt>
      <trkpt lat="46.11587" lon="6.2497">
        <ele>639.532</ele>
        <time>2021-02-23T16:04:51Z</time>
      </trkpt>
      <trkpt lat="46.11576" lon="6.24977">
        <ele>640.975</ele>
        <time>2021-02-23T16:04:52Z</time>
      </trkpt>
      <trkpt lat="46.11562" lon="6.24979">
        <ele>642.058</ele>
        <time>2021-02-23T16:04:53Z</time>
      </trkpt>
      <trkpt lat="46.11547" lon="6.24973">
        <ele>642.912</ele>
        <time>2021-02-23T16:04:54Z</time>
      </trkpt>
      <trkpt lat="46.11531" lon="6.24964">
        <ele>643.726</ele>
        <time>2021-02-23T16:04:55Z</time>
      </trkpt>
      <trkpt lat="46.11515" lon="6.24957">
        <ele>644.366</ele>
        <time>2021-02-23T16:04:56Z</time>
      </trkpt>
      <trkpt lat="46.11496" lon="6.24954">
        <ele>645.329</ele>
        <time>2021-02-23T16:04:57Z</time>
      </trkpt>
      <trkpt lat="46.11478" lon="6.24954">
        <ele>646.721</ele>
        <time>2021-02-23T16:04:58Z</time>
      </trkpt>
      <trkpt lat="46.11461" lon="6.24956">
        <ele>648.008</ele>
        <time>2021-02-23T16:04:59Z</time>
      </trkpt>
      <trkpt lat="46.11445" lon="6.24959">
        <ele>649.362</ele>
        <time>2021-02-23T16:05:00Z</time>
      </trkpt>
      <trkpt lat="46.11429" lon="6.2496">
        <ele>651.133</ele>
        <time>2021-02-23T16:05:01Z</time>
      </trkpt>
      <trkpt lat="46.11413" lon="6.24959">
        <ele>653.034</ele>
        <time>2021-02-23T16:05:02Z</time>
      </trkpt>
      <trkpt lat="46.11398" lon="6.24954">
        <ele>655.057</ele>
        <time>2021-02-23T16:05:03Z</time>
      </trkpt>
      <trkpt lat="46.11382" lon="6.24947">
        <ele>657.34</ele>
        <time>2021-02-23T16:05:04Z</time>
      </trkpt>
      <trkpt lat="46.11365" lon="6.2494">
        <ele>659.463</ele>
        <time>2021-02-23T16:05:05Z</time>
      </trkpt>
      <trkpt lat="46.11347" lon="6.24929">
        <ele>661.167</ele>
        <time>2021-02-23T16:05:06Z</time>
      </trkpt>
      <trkpt lat="46.11331" lon="6.24918">
        <ele>662.521</ele>
        <time>2021-02-23T16:05:07Z</time>
      </trkpt>
      <trkpt lat="46.11316" lon="6.24909">
        <ele>664.095</ele>
        <time>2021-02-23T16:05:08Z</time>
      </trkpt>
      <trkpt lat="46.11304" lon="6.24901">
        <ele>665.449</ele>
        <time>2021-02-23T16:05:09Z</time>
      </trkpt>
      <trkpt lat="46.11295" lon="6.24895">
        <ele>666.723</ele>
        <time>2021-02-23T16:05:10Z</time>
      </trkpt>
      <trkpt lat="46.11289" lon="6.24886">
        <ele>668.208</ele>
        <time>2021-02-23T16:05:11Z</time>
      </trkpt>
      <trkpt lat="46.11284" lon="6.24876">
        <ele>669.745</ele>
        <time>2021-02-23T16:05:12Z</time>
      </trkpt>
      <trkpt lat="46.11285" lon="6.24864">
        <ele>670.846</ele>
        <time>2021-02-23T16:05:13Z</time>
      </trkpt>
      <trkpt lat="46.11289" lon="6.24851">
        <ele>671.697</ele>
        <time>2021-02-23T16:05:14Z</time>
      </trkpt>
      <trkpt lat="46.11294" lon="6.24837">
        <ele>672.24</ele>
        <time>2021-02-23T16:05:15Z</time>
      </trkpt>
      <trkpt lat="46.11298" lon="6.24823">
        <ele>672.363</ele>
        <time>2021-02-23T16:05:16Z</time>
      </trkpt>
      <trkpt lat="46.11301" lon="6.24809">
        <ele>672.346</ele>
        <time>2021-02-23T16:05:17Z</time>
      </trkpt>
      <trkpt lat="46.11302" lon="6.24796">
        <ele>672.15</ele>
        <time>2021-02-23T16:05:18Z</time>
      </trkpt>
      <trkpt lat="46.11302" lon="6.24783">
        <ele>671.814</ele>
        <time>2021-02-23T16:05:19Z</time>
      </trkpt>
      <trkpt lat="46.11299" lon="6.24771">
        <ele>671.666</ele>
        <time>2021-02-23T16:05:20Z</time>
      </trkpt>
      <trkpt lat="46.11293" lon="6.24758">
        <ele>671.629</ele>
        <time>2021-02-23T16:05:21Z</time>
      </trkpt>
      <trkpt lat="46.11284" lon="6.24746">
        <ele>671.621</ele>
        <time>2021-02-23T16:05:22Z</time>
      </trkpt>
      <trkpt lat="46.11275" lon="6.24736">
        <ele>671.708</ele>
        <time>2021-02-23T16:05:23Z</time>
      </trkpt>
      <trkpt lat="46.11266" lon="6.24722">
        <ele>672.162</ele>
        <time>2021-02-23T16:05:24Z</time>
      </trkpt>
      <trkpt lat="46.11261" lon="6.24706">
        <ele>672.773</ele>
        <time>2021-02-23T16:05:25Z</time>
      </trkpt>
      <trkpt lat="46.11256" lon="6.24692">
        <ele>673.584</ele>
        <time>2021-02-23T16:05:26Z</time>
      </trkpt>
      <trkpt lat="46.11251" lon="6.24677">
        <ele>674.417</ele>
        <time>2021-02-23T16:05:27Z</time>
      </trkpt>
      <trkpt lat="46.11243" lon="6.24665">
        <ele>675.43</ele>
        <time>2021-02-23T16:05:28Z</time>
      </trkpt>
      <trkpt lat="46.11232" lon="6.24659">
        <ele>676.423</ele>
        <time>2021-02-23T16:05:29Z</time>
      </trkpt>
      <trkpt lat="46.11218" lon="6.24651">
        <ele>677.317</ele>
        <time>2021-02-23T16:05:30Z</time>
      </trkpt>
      <trkpt lat="46.11205" lon="6.24649">
        <ele>678.051</ele>
        <time>2021-02-23T16:05:31Z</time>
      </trkpt>
      <trkpt lat="46.11193" lon="6.24639">
        <ele>678.928</ele>
        <time>2021-02-23T16:05:32Z</time>
      </trkpt>
      <trkpt lat="46.1118" lon="6.24624">
        <ele>680.189</ele>
        <time>2021-02-23T16:05:33Z</time>
      </trkpt>
      <trkpt lat="46.11168" lon="6.24607">
        <ele>680.117</ele>
        <time>2021-02-23T16:05:34Z</time>
      </trkpt>
      <trkpt lat="46.11155" lon="6.2459">
        <ele>682.108</ele>
        <time>2021-02-23T16:05:35Z</time>
      </trkpt>
      <trkpt lat="46.11139" lon="6.24576">
        <ele>683.738</ele>
        <time>2021-02-23T16:05:36Z</time>
      </trkpt>
      <trkpt lat="46.11125" lon="6.24559">
        <ele>683.719</ele>
        <time>2021-02-23T16:05:37Z</time>
      </trkpt>
      <trkpt lat="46.11112" lon="6.2454">
        <ele>686.85</ele>
        <time>2021-02-23T16:05:38Z</time>
      </trkpt>
      <trkpt lat="46.11101" lon="6.24519">
        <ele>689.093</ele>
        <time>2021-02-23T16:05:39Z</time>
      </trkpt>
      <trkpt lat="46.11089" lon="6.24495">
        <ele>690.936</ele>
        <time>2021-02-23T16:05:40Z</time>
      </trkpt>
      <trkpt lat="46.11076" lon="6.24474">
        <ele>692.169</ele>
        <time>2021-02-23T16:05:41Z</time>
      </trkpt>
      <trkpt lat="46.11063" lon="6.24454">
        <ele>693.363</ele>
        <time>2021-02-23T16:05:42Z</time>
      </trkpt>
      <trkpt lat="46.11049" lon="6.24436">
        <ele>693.337</ele>
        <time>2021-02-23T16:05:43Z</time>
      </trkpt>
      <trkpt lat="46.11035" lon="6.24418">
        <ele>696.096</ele>
        <time>2021-02-23T16:05:44Z</time>
      </trkpt>
      <trkpt lat="46.11022" lon="6.24402">
        <ele>697.131</ele>
        <time>2021-02-23T16:05:45Z</time>
      </trkpt>
      <trkpt lat="46.1101" lon="6.24388">
        <ele>698.924</ele>
        <time>2021-02-23T16:05:46Z</time>
      </trkpt>
      <trkpt lat="46.10998" lon="6.2438">
        <ele>698.908</ele>
        <time>2021-02-23T16:05:47Z</time>
      </trkpt>
      <trkpt lat="46.10986" lon="6.24376">
        <ele>702.415</ele>
        <time>2021-02-23T16:05:48Z</time>
      </trkpt>
      <trkpt lat="46.10974" lon="6.24377">
        <ele>703.666</ele>
        <time>2021-02-23T16:05:49Z</time>
      </trkpt>
      <trkpt lat="46.10961" lon="6.24385">
        <ele>703.637</ele>
        <time>2021-02-23T16:05:50Z</time>
      </trkpt>
      <trkpt lat="46.1095" lon="6.24398">
        <ele>705.31</ele>
        <time>2021-02-23T16:05:51Z</time>
      </trkpt>
      <trkpt lat="46.10941" lon="6.2441">
        <ele>707.073</ele>
        <time>2021-02-23T16:05:52Z</time>
      </trkpt>
      <trkpt lat="46.10933" lon="6.24416">
        <ele>708.636</ele>
        <time>2021-02-23T16:05:53Z</time>
      </trkpt>
      <trkpt lat="46.10924" lon="6.24415">
        <ele>711.97</ele>
        <time>2021-02-23T16:05:54Z</time>
      </trkpt>
      <trkpt lat="46.10913" lon="6.24409">
        <ele>711.914</ele>
        <time>2021-02-23T16:05:55Z</time>
      </trkpt>
      <trkpt lat="46.10903" lon="6.24399">
        <ele>713.522</ele>
        <time>2021-02-23T16:05:56Z</time>
      </trkpt>
      <trkpt lat="46.10891" lon="6.24387">
        <ele>715.062</ele>
        <time>2021-02-23T16:05:57Z</time>
      </trkpt>
      <trkpt lat="46.10877" lon="6.24377">
        <ele>716.508</ele>
        <time>2021-02-23T16:05:58Z</time>
      </trkpt>
      <trkpt lat="46.1086" lon="6.24375">
        <ele>718.308</ele>
        <time>2021-02-23T16:05:59Z</time>
      </trkpt>
      <trkpt lat="46.10845" lon="6.24376">
        <ele>720.448</ele>
        <time>2021-02-23T16:06:00Z</time>
      </trkpt>
      <trkpt lat="46.10833" lon="6.24379">
        <ele>722.499</ele>
        <time>2021-02-23T16:06:01Z</time>
      </trkpt>
      <trkpt lat="46.10823" lon="6.24379">
        <ele>724.39</ele>
        <time>2021-02-23T16:06:02Z</time>
      </trkpt>
      <trkpt lat="46.10817" lon="6.24378">
        <ele>726.323</ele>
        <time>2021-02-23T16:06:03Z</time>
      </trkpt>
      <trkpt lat="46.10811" lon="6.24373">
        <ele>729.256</ele>
        <time>2021-02-23T16:06:05Z</time>
      </trkpt>
      <trkpt lat="46.10808" lon="6.24362">
        <ele>731.349</ele>
        <time>2021-02-23T16:06:07Z</time>
      </trkpt>
      <trkpt lat="46.10807" lon="6.24355">
        <ele>731.933</ele>
        <time>2021-02-23T16:06:08Z</time>
      </trkpt>
      <trkpt lat="46.10805" lon="6.24345">
        <ele>732.317</ele>
        <time>2021-02-23T16:06:09Z</time>
      </trkpt>
      <trkpt lat="46.10801" lon="6.24334">
        <ele>732.737</ele>
        <time>2021-02-23T16:06:10Z</time>
      </trkpt>
      <trkpt lat="46.10793" lon="6.24316">
        <ele>733.149</ele>
        <time>2021-02-23T16:06:11Z</time>
      </trkpt>
      <trkpt lat="46.10783" lon="6.24297">
        <ele>733.413</ele>
        <time>2021-02-23T16:06:12Z</time>
      </trkpt>
      <trkpt lat="46.1077" lon="6.24278">
        <ele>733.708</ele>
        <time>2021-02-23T16:06:13Z</time>
      </trkpt>
      <trkpt lat="46.1076" lon="6.24259">
        <ele>734.079</ele>
        <time>2021-02-23T16:06:14Z</time>
      </trkpt>
      <trkpt lat="46.10742" lon="6.24242">
        <ele>734.51</ele>
        <time>2021-02-23T16:06:15Z</time>
      </trkpt>
      <trkpt lat="46.10724" lon="6.24228">
        <ele>735.021</ele>
        <time>2021-02-23T16:06:16Z</time>
      </trkpt>
      <trkpt lat="46.10704" lon="6.24216">
        <ele>735.334</ele>
        <time>2021-02-23T16:06:17Z</time>
      </trkpt>
      <trkpt lat="46.10682" lon="6.24207">
        <ele>735.737</ele>
        <time>2021-02-23T16:06:18Z</time>
      </trkpt>
      <trkpt lat="46.10661" lon="6.24201">
        <ele>736.21</ele>
        <time>2021-02-23T16:06:19Z</time>
      </trkpt>
      <trkpt lat="46.10641" lon="6.24195">
        <ele>736.454</ele>
        <time>2021-02-23T16:06:20Z</time>
      </trkpt>
      <trkpt lat="46.10622" lon="6.24189">
        <ele>736.728</ele>
        <time>2021-02-23T16:06:21Z</time>
      </trkpt>
      <trkpt lat="46.10603" lon="6.24184">
        <ele>738.143</ele>
        <time>2021-02-23T16:06:22Z</time>
      </trkpt>
      <trkpt lat="46.10584" lon="6.24178">
        <ele>739.864</ele>
        <time>2021-02-23T16:06:23Z</time>
      </trkpt>
      <trkpt lat="46.10566" lon="6.24172">
        <ele>741.31</ele>
        <time>2021-02-23T16:06:24Z</time>
      </trkpt>
      <trkpt lat="46.10547" lon="6.24167">
        <ele>743.308</ele>
        <time>2021-02-23T16:06:25Z</time>
      </trkpt>
      <trkpt lat="46.10528" lon="6.24161">
        <ele>745.28</ele>
        <time>2021-02-23T16:06:26Z</time>
      </trkpt>
      <trkpt lat="46.1051" lon="6.24152">
        <ele>745.971</ele>
        <time>2021-02-23T16:06:27Z</time>
      </trkpt>
      <trkpt lat="46.10493" lon="6.24142">
        <ele>746.722</ele>
        <time>2021-02-23T16:06:28Z</time>
      </trkpt>
      <trkpt lat="46.10477" lon="6.24133">
        <ele>747.615</ele>
        <time>2021-02-23T16:06:29Z</time>
      </trkpt>
      <trkpt lat="46.10462" lon="6.2412">
        <ele>748.148</ele>
        <time>2021-02-23T16:06:30Z</time>
      </trkpt>
      <trkpt lat="46.10448" lon="6.24106">
        <ele>748.691</ele>
        <time>2021-02-23T16:06:31Z</time>
      </trkpt>
      <trkpt lat="46.10433" lon="6.2409">
        <ele>749.365</ele>
        <time>2021-02-23T16:06:32Z</time>
      </trkpt>
      <trkpt lat="46.10418" lon="6.24075">
        <ele>750.199</ele>
        <time>2021-02-23T16:06:33Z</time>
      </trkpt>
      <trkpt lat="46.10403" lon="6.2406">
        <ele>750.361</ele>
        <time>2021-02-23T16:06:34Z</time>
      </trkpt>
      <trkpt lat="46.10388" lon="6.24046">
        <ele>750.321</ele>
        <time>2021-02-23T16:06:35Z</time>
      </trkpt>
      <trkpt lat="46.10373" lon="6.24031">
        <ele>750.213</ele>
        <time>2021-02-23T16:06:36Z</time>
      </trkpt>
      <trkpt lat="46.10357" lon="6.24016">
        <ele>749.708</ele>
        <time>2021-02-23T16:06:37Z</time>
      </trkpt>
      <trkpt lat="46.10341" lon="6.24002">
        <ele>749.012</ele>
        <time>2021-02-23T16:06:38Z</time>
      </trkpt>
      <trkpt lat="46.10327" lon="6.23988">
        <ele>748.583</ele>
        <time>2021-02-23T16:06:39Z</time>
      </trkpt>
      <trkpt lat="46.10311" lon="6.23973">
        <ele>747.914</ele>
        <time>2021-02-23T16:06:40Z</time>
      </trkpt>
      <trkpt lat="46.10297" lon="6.23958">
        <ele>747.337</ele>
        <time>2021-02-23T16:06:41Z</time>
      </trkpt>
      <trkpt lat="46.10283" lon="6.23942">
        <ele>746.96</ele>
        <time>2021-02-23T16:06:42Z</time>
      </trkpt>
      <trkpt lat="46.10269" lon="6.23925">
        <ele>746.553</ele>
        <time>2021-02-23T16:06:43Z</time>
      </trkpt>
      <trkpt lat="46.10255" lon="6.23909">
        <ele>746.147</ele>
        <time>2021-02-23T16:06:44Z</time>
      </trkpt>
      <trkpt lat="46.10241" lon="6.23892">
        <ele>746.071</ele>
        <time>2021-02-23T16:06:45Z</time>
      </trkpt>
      <trkpt lat="46.10226" lon="6.23876">
        <ele>746.097</ele>
        <time>2021-02-23T16:06:46Z</time>
      </trkpt>
      <trkpt lat="46.10211" lon="6.23856">
        <ele>746.123</ele>
        <time>2021-02-23T16:06:47Z</time>
      </trkpt>
      <trkpt lat="46.10196" lon="6.2384">
        <ele>746.325</ele>
        <time>2021-02-23T16:06:48Z</time>
      </trkpt>
      <trkpt lat="46.10181" lon="6.23824">
        <ele>746.508</ele>
        <time>2021-02-23T16:06:49Z</time>
      </trkpt>
      <trkpt lat="46.10165" lon="6.2381">
        <ele>746.785</ele>
        <time>2021-02-23T16:06:50Z</time>
      </trkpt>
      <trkpt lat="46.1015" lon="6.23796">
        <ele>746.876</ele>
        <time>2021-02-23T16:06:51Z</time>
      </trkpt>
      <trkpt lat="46.10134" lon="6.23784">
        <ele>747.287</ele>
        <time>2021-02-23T16:06:52Z</time>
      </trkpt>
      <trkpt lat="46.10119" lon="6.23771">
        <ele>747.55</ele>
        <time>2021-02-23T16:06:53Z</time>
      </trkpt>
      <trkpt lat="46.10106" lon="6.23757">
        <ele>747.673</ele>
        <time>2021-02-23T16:06:54Z</time>
      </trkpt>
      <trkpt lat="46.10094" lon="6.23743">
        <ele>748.126</ele>
        <time>2021-02-23T16:06:55Z</time>
      </trkpt>
      <trkpt lat="46.10083" lon="6.23732">
        <ele>748.21</ele>
        <time>2021-02-23T16:06:56Z</time>
      </trkpt>
      <trkpt lat="46.10073" lon="6.2372">
        <ele>748.354</ele>
        <time>2021-02-23T16:06:57Z</time>
      </trkpt>
      <trkpt lat="46.10063" lon="6.23707">
        <ele>748.384</ele>
        <time>2021-02-23T16:06:58Z</time>
      </trkpt>
      <trkpt lat="46.10056" lon="6.23689">
        <ele>748.307</ele>
        <time>2021-02-23T16:06:59Z</time>
      </trkpt>
      <trkpt lat="46.1005" lon="6.23668">
        <ele>748.017</ele>
        <time>2021-02-23T16:07:00Z</time>
      </trkpt>
      <trkpt lat="46.10043" lon="6.2365">
        <ele>747.908</ele>
        <time>2021-02-23T16:07:01Z</time>
      </trkpt>
      <trkpt lat="46.10037" lon="6.23632">
        <ele>747.754</ele>
        <time>2021-02-23T16:07:02Z</time>
      </trkpt>
      <trkpt lat="46.10031" lon="6.23614">
        <ele>747.465</ele>
        <time>2021-02-23T16:07:03Z</time>
      </trkpt>
      <trkpt lat="46.10025" lon="6.23598">
        <ele>747.156</ele>
        <time>2021-02-23T16:07:04Z</time>
      </trkpt>
      <trkpt lat="46.10019" lon="6.23582">
        <ele>746.899</ele>
        <time>2021-02-23T16:07:05Z</time>
      </trkpt>
      <trkpt lat="46.10014" lon="6.23567">
        <ele>746.442</ele>
        <time>2021-02-23T16:07:06Z</time>
      </trkpt>
      <trkpt lat="46.10008" lon="6.23554">
        <ele>745.965</ele>
        <time>2021-02-23T16:07:07Z</time>
      </trkpt>
      <trkpt lat="46.10005" lon="6.23541">
        <ele>745.369</ele>
        <time>2021-02-23T16:07:08Z</time>
      </trkpt>
      <trkpt lat="46.10002" lon="6.23527">
        <ele>744.623</ele>
        <time>2021-02-23T16:07:09Z</time>
      </trkpt>
      <trkpt lat="46.10002" lon="6.23514">
        <ele>743.829</ele>
        <time>2021-02-23T16:07:10Z</time>
      </trkpt>
      <trkpt lat="46.10004" lon="6.23502">
        <ele>743</ele>
        <time>2021-02-23T16:07:11Z</time>
      </trkpt>
      <trkpt lat="46.10007" lon="6.23492">
        <ele>742.12</ele>
        <time>2021-02-23T16:07:12Z</time>
      </trkpt>
      <trkpt lat="46.10009" lon="6.23485">
        <ele>741.208</ele>
        <time>2021-02-23T16:07:13Z</time>
      </trkpt>
      <trkpt lat="46.10009" lon="6.23478">
        <ele>740.598</ele>
        <time>2021-02-23T16:07:14Z</time>
      </trkpt>
      <trkpt lat="46.10004" lon="6.2347">
        <ele>739.979</ele>
        <time>2021-02-23T16:07:15Z</time>
      </trkpt>
      <trkpt lat="46.1" lon="6.23463">
        <ele>739.36</ele>
        <time>2021-02-23T16:07:16Z</time>
      </trkpt>
      <trkpt lat="46.09995" lon="6.23457">
        <ele>738.783</ele>
        <time>2021-02-23T16:07:17Z</time>
      </trkpt>
      <trkpt lat="46.09991" lon="6.23451">
        <ele>738.146</ele>
        <time>2021-02-23T16:07:18Z</time>
      </trkpt>
      <trkpt lat="46.09988" lon="6.23441">
        <ele>737.129</ele>
        <time>2021-02-23T16:07:20Z</time>
      </trkpt>
      <trkpt lat="46.09986" lon="6.23435">
        <ele>736.543</ele>
        <time>2021-02-23T16:07:22Z</time>
      </trkpt>
      <trkpt lat="46.09984" lon="6.23427">
        <ele>734.677</ele>
        <time>2021-02-23T16:13:17Z</time>
      </trkpt>
      <trkpt lat="46.09992" lon="6.2343">
        <ele>734.331</ele>
        <time>2021-02-23T16:14:32Z</time>
      </trkpt>
      <trkpt lat="46.09987" lon="6.23431">
        <ele>734.761</ele>
        <time>2021-02-23T16:15:03Z</time>
      </trkpt>
      <trkpt lat="46.09981" lon="6.23429">
        <ele>734.807</ele>
        <time>2021-02-23T16:25:52Z</time>
      </trkpt>
    </trkseg>
  </trk>
</gpx>